Wetterdaten: Donnerstag, 12.05.2022
Datum Zeit Temp. 2m Temp +5 cm Feuchte A. Luftdruck Regen Wind Richtung Richtung Sonnenschein UV Solar Taupunkt Windchill Windben
12.05.2022 00:00 16,2 C 14,4 C 68 % 1012,6 hPa 0,0 l/m 14,5 km/h (3 Bft) S-SW 202 0 min 0,0 UV-I 0 W/m 10,3 C 12,8 C 22,5 km/h (4 Bft)
12.05.2022 00:01 16,2 C 15,0 C 68 % 1012,6 hPa 0,0 l/m 14,5 km/h (3 Bft) S-SW 202 0 min 0,0 UV-I 0 W/m 10,3 C 12,8 C 20,9 km/h (4 Bft)
12.05.2022 00:02 16,2 C 15,0 C 68 % 1012,6 hPa 0,0 l/m 16,1 km/h (3 Bft) S-SW 202 0 min 0,0 UV-I 0 W/m 10,3 C 12,3 C 22,5 km/h (4 Bft)
12.05.2022 00:03 16,2 C 15,0 C 68 % 1012,6 hPa 0,0 l/m 11,3 km/h (2 Bft) S 180 0 min 0,0 UV-I 0 W/m 10,3 C 13,9 C 16,1 km/h (3 Bft)
12.05.2022 00:04 16,2 C 14,4 C 68 % 1012,7 hPa 0,0 l/m 14,5 km/h (3 Bft) S 180 0 min 0,0 UV-I 0 W/m 10,3 C 12,8 C 20,9 km/h (4 Bft)
12.05.2022 00:05 16,1 C 14,4 C 68 % 1012,7 hPa 0,0 l/m 12,9 km/h (3 Bft) S-SW 202 0 min 0,0 UV-I 0 W/m 10,2 C 13,2 C 17,7 km/h (3 Bft)
12.05.2022 00:06 16,1 C 14,4 C 68 % 1012,7 hPa 0,0 l/m 12,9 km/h (3 Bft) S-SW 202 0 min 0,0 UV-I 0 W/m 10,2 C 13,2 C 20,9 km/h (4 Bft)
12.05.2022 00:07 16,1 C 15,0 C 68 % 1012,7 hPa 0,0 l/m 14,5 km/h (3 Bft) S-SW 202 0 min 0,0 UV-I 0 W/m 10,2 C 12,7 C 19,3 km/h (3 Bft)
12.05.2022 00:08 16,1 C 15,0 C 68 % 1012,7 hPa 0,0 l/m 9,7 km/h (2 Bft) S-SW 202 0 min 0,0 UV-I 0 W/m 10,2 C 14,5 C 14,5 km/h (3 Bft)
12.05.2022 00:09 16,1 C 15,0 C 68 % 1012,7 hPa 0,0 l/m 14,5 km/h (3 Bft) S-SW 202 0 min 0,0 UV-I 0 W/m 10,2 C 12,7 C 20,9 km/h (4 Bft)
12.05.2022 00:10 16,1 C 15,0 C 68 % 1012,9 hPa 0,0 l/m 11,3 km/h (2 Bft) S-SW 202 0 min 0,0 UV-I 0 W/m 10,2 C 13,8 C 16,1 km/h (3 Bft)
12.05.2022 00:11 16,1 C 15,0 C 68 % 1012,9 hPa 0,0 l/m 11,3 km/h (2 Bft) S-SW 202 0 min 0,0 UV-I 0 W/m 10,2 C 13,8 C 16,1 km/h (3 Bft)
12.05.2022 00:12 16,1 C 15,0 C 69 % 1012,7 hPa 0,0 l/m 11,3 km/h (2 Bft) S-SW 202 0 min 0,0 UV-I 0 W/m 10,4 C 13,8 C 19,3 km/h (3 Bft)
12.05.2022 00:13 16,1 C 15,0 C 69 % 1012,9 hPa 0,0 l/m 16,1 km/h (3 Bft) S-SW 202 0 min 0,0 UV-I 0 W/m 10,4 C 12,2 C 20,9 km/h (4 Bft)
12.05.2022 00:14 16,2 C 15,0 C 69 % 1012,8 hPa 0,0 l/m 9,7 km/h (2 Bft) S-SW 202 0 min 0,0 UV-I 0 W/m 10,5 C 14,6 C 17,7 km/h (3 Bft)
12.05.2022 00:15 16,2 C 15,0 C 69 % 1012,8 hPa 0,0 l/m 8,0 km/h (2 Bft) SW 225 0 min 0,0 UV-I 0 W/m 10,5 C 15,4 C 24,1 km/h (4 Bft)
12.05.2022 00:16 16,3 C 15,0 C 69 % 1012,9 hPa 0,0 l/m 11,3 km/h (2 Bft) S-SW 202 0 min 0,0 UV-I 0 W/m 10,6 C 14,0 C 12,9 km/h (3 Bft)
12.05.2022 00:17 16,3 C 15,0 C 69 % 1012,9 hPa 0,0 l/m 12,9 km/h (3 Bft) S-SW 202 0 min 0,0 UV-I 0 W/m 10,6 C 13,4 C 17,7 km/h (3 Bft)
12.05.2022 00:18 16,3 C 15,0 C 69 % 1013,0 hPa 0,0 l/m 12,9 km/h (3 Bft) S-SW 202 0 min 0,0 UV-I 0 W/m 10,6 C 13,4 C 14,5 km/h (3 Bft)
12.05.2022 00:19 16,3 C 15,0 C 69 % 1012,9 hPa 0,0 l/m 9,7 km/h (2 Bft) S-SW 202 0 min 0,0 UV-I 0 W/m 10,6 C 14,7 C 14,5 km/h (3 Bft)
12.05.2022 00:20 16,3 C 15,0 C 69 % 1013,0 hPa 0,0 l/m 11,3 km/h (2 Bft) S-SW 202 0 min 0,0 UV-I 0 W/m 10,6 C 14,0 C 16,1 km/h (3 Bft)
12.05.2022 00:21 16,2 C 15,0 C 69 % 1013,0 hPa 0,0 l/m 9,7 km/h (2 Bft) SW 225 0 min 0,0 UV-I 0 W/m 10,5 C 14,6 C 14,5 km/h (3 Bft)
12.05.2022 00:22 16,2 C 15,0 C 69 % 1013,0 hPa 0,0 l/m 8,0 km/h (2 Bft) S 180 0 min 0,0 UV-I 0 W/m 10,5 C 15,4 C 12,9 km/h (3 Bft)
12.05.2022 00:23 16,2 C 14,4 C 69 % 1012,9 hPa 0,0 l/m 11,3 km/h (2 Bft) S-SW 202 0 min 0,0 UV-I 0 W/m 10,5 C 13,9 C 16,1 km/h (3 Bft)
12.05.2022 00:24 16,1 C 14,4 C 69 % 1013,0 hPa 0,0 l/m 11,3 km/h (2 Bft) S-SW 202 0 min 0,0 UV-I 0 W/m 10,4 C 13,8 C 16,1 km/h (3 Bft)
12.05.2022 00:25 16,1 C 14,4 C 70 % 1012,9 hPa 0,0 l/m 11,3 km/h (2 Bft) SW 225 0 min 0,0 UV-I 0 W/m 10,6 C 13,8 C 17,7 km/h (3 Bft)
12.05.2022 00:26 16,1 C 14,4 C 70 % 1013,0 hPa 0,0 l/m 9,7 km/h (2 Bft) S-SW 202 0 min 0,0 UV-I 0 W/m 10,6 C 14,5 C 11,3 km/h (2 Bft)
12.05.2022 00:27 16,0 C 14,4 C 70 % 1012,9 hPa 0,0 l/m 6,4 km/h (2 Bft) S-SW 202 0 min 0,0 UV-I 0 W/m 10,5 C 16,0 C 9,7 km/h (2 Bft)
12.05.2022 00:28 16,0 C 14,4 C 70 % 1013,0 hPa 0,0 l/m 8,0 km/h (2 Bft) SW 225 0 min 0,0 UV-I 0 W/m 10,5 C 15,2 C 16,1 km/h (3 Bft)
12.05.2022 00:29 16,0 C 14,4 C 70 % 1013,0 hPa 0,0 l/m 6,4 km/h (2 Bft) S-SW 202 0 min 0,0 UV-I 0 W/m 10,5 C 16,0 C 11,3 km/h (2 Bft)
12.05.2022 00:30 15,9 C 14,4 C 70 % 1013,0 hPa 0,0 l/m 9,7 km/h (2 Bft) SW 225 0 min 0,0 UV-I 0 W/m 10,4 C 14,2 C 14,5 km/h (3 Bft)
12.05.2022 00:31 15,9 C 14,4 C 70 % 1013,1 hPa 0,0 l/m 9,7 km/h (2 Bft) SW 225 0 min 0,0 UV-I 0 W/m 10,4 C 14,2 C 17,7 km/h (3 Bft)
12.05.2022 00:32 15,9 C 14,4 C 71 % 1013,1 hPa 0,0 l/m 9,7 km/h (2 Bft) SW 225 0 min 0,0 UV-I 0 W/m 10,6 C 14,2 C 14,5 km/h (3 Bft)
12.05.2022 00:33 15,9 C 14,4 C 71 % 1013,0 hPa 0,0 l/m 9,7 km/h (2 Bft) SW 225 0 min 0,0 UV-I 0 W/m 10,6 C 14,2 C 14,5 km/h (3 Bft)
12.05.2022 00:34 15,9 C 14,4 C 71 % 1013,0 hPa 0,0 l/m 9,7 km/h (2 Bft) SW 225 0 min 0,0 UV-I 0 W/m 10,6 C 14,2 C 12,9 km/h (3 Bft)
12.05.2022 00:35 15,9 C 14,4 C 71 % 1013,1 hPa 0,0 l/m 8,0 km/h (2 Bft) SW 225 0 min 0,0 UV-I 0 W/m 10,6 C 15,0 C 12,9 km/h (3 Bft)
12.05.2022 00:36 15,9 C 14,4 C 71 % 1013,2 hPa 0,0 l/m 12,9 km/h (3 Bft) SW 225 0 min 0,0 UV-I 0 W/m 10,6 C 13,0 C 20,9 km/h (4 Bft)
12.05.2022 00:37 15,9 C 13,9 C 71 % 1013,2 hPa 0,0 l/m 19,3 km/h (3 Bft) SW 225 0 min 0,0 UV-I 0 W/m 10,6 C 11,1 C 30,6 km/h (5 Bft)
12.05.2022 00:38 15,9 C 14,4 C 71 % 1013,2 hPa 0,0 l/m 17,7 km/h (3 Bft) W-SW 247 0 min 0,0 UV-I 0 W/m 10,6 C 11,5 C 32,2 km/h (5 Bft)
12.05.2022 00:39 15,9 C 14,4 C 71 % 1013,2 hPa 0,0 l/m 14,5 km/h (3 Bft) SW 225 0 min 0,0 UV-I 0 W/m 10,6 C 12,4 C 27,4 km/h (4 Bft)
12.05.2022 00:40 15,9 C 14,4 C 71 % 1013,2 hPa 0,0 l/m 11,3 km/h (2 Bft) W-SW 247 0 min 0,0 UV-I 0 W/m 10,6 C 13,6 C 19,3 km/h (3 Bft)
12.05.2022 00:41 15,9 C 14,4 C 71 % 1013,2 hPa 0,0 l/m 11,3 km/h (2 Bft) SW 225 0 min 0,0 UV-I 0 W/m 10,6 C 13,6 C 22,5 km/h (4 Bft)
12.05.2022 00:42 15,9 C 14,4 C 71 % 1013,3 hPa 0,0 l/m 14,5 km/h (3 Bft) S-SW 202 0 min 0,0 UV-I 0 W/m 10,6 C 12,4 C 20,9 km/h (4 Bft)
12.05.2022 00:43 15,9 C 14,4 C 71 % 1013,2 hPa 0,0 l/m 11,3 km/h (2 Bft) SW 225 0 min 0,0 UV-I 0 W/m 10,6 C 13,6 C 22,5 km/h (4 Bft)
12.05.2022 00:44 15,9 C 14,4 C 71 % 1013,2 hPa 0,0 l/m 16,1 km/h (3 Bft) SW 225 0 min 0,0 UV-I 0 W/m 10,6 C 11,9 C 25,7 km/h (4 Bft)
12.05.2022 00:45 15,9 C 14,4 C 71 % 1013,2 hPa 0,0 l/m 16,1 km/h (3 Bft) SW 225 0 min 0,0 UV-I 0 W/m 10,6 C 11,9 C 25,7 km/h (4 Bft)
12.05.2022 00:46 15,9 C 14,4 C 71 % 1013,2 hPa 0,0 l/m 12,9 km/h (3 Bft) S-SW 202 0 min 0,0 UV-I 0 W/m 10,6 C 13,0 C 19,3 km/h (3 Bft)
12.05.2022 00:47 15,9 C 14,4 C 72 % 1013,3 hPa 0,0 l/m 14,5 km/h (3 Bft) SW 225 0 min 0,0 UV-I 0 W/m 10,9 C 12,4 C 32,2 km/h (5 Bft)
12.05.2022 00:48 15,9 C 14,4 C 72 % 1013,3 hPa 0,0 l/m 11,3 km/h (2 Bft) W-SW 247 0 min 0,0 UV-I 0 W/m 10,9 C 13,6 C 17,7 km/h (3 Bft)
12.05.2022 00:49 15,9 C 14,4 C 72 % 1013,3 hPa 0,0 l/m 11,3 km/h (2 Bft) SW 225 0 min 0,0 UV-I 0 W/m 10,9 C 13,6 C 20,9 km/h (4 Bft)
12.05.2022 00:50 15,9 C 14,4 C 72 % 1013,3 hPa 0,0 l/m 17,7 km/h (3 Bft) SW 225 0 min 0,0 UV-I 0 W/m 10,9 C 11,5 C 27,4 km/h (4 Bft)
12.05.2022 00:51 15,9 C 14,4 C 72 % 1013,4 hPa 0,0 l/m 14,5 km/h (3 Bft) W-SW 247 0 min 0,0 UV-I 0 W/m 10,9 C 12,4 C 22,5 km/h (4 Bft)
12.05.2022 00:52 15,9 C 14,4 C 72 % 1013,4 hPa 0,0 l/m 12,9 km/h (3 Bft) W-SW 247 0 min 0,0 UV-I 0 W/m 10,9 C 13,0 C 19,3 km/h (3 Bft)
12.05.2022 00:53 15,9 C 14,4 C 72 % 1013,3 hPa 0,0 l/m 20,9 km/h (4 Bft) SW 225 0 min 0,0 UV-I 0 W/m 10,9 C 10,7 C 29,0 km/h (5 Bft)
12.05.2022 00:54 15,9 C 14,4 C 72 % 1013,3 hPa 0,0 l/m 14,5 km/h (3 Bft) SW 225 0 min 0,0 UV-I 0 W/m 10,9 C 12,4 C 20,9 km/h (4 Bft)
12.05.2022 00:55 15,9 C 14,4 C 72 % 1013,3 hPa 0,0 l/m 11,3 km/h (2 Bft) SW 225 0 min 0,0 UV-I 0 W/m 10,9 C 13,6 C 20,9 km/h (4 Bft)
12.05.2022 00:56 15,9 C 14,4 C 72 % 1013,3 hPa 0,0 l/m 12,9 km/h (3 Bft) SW 225 0 min 0,0 UV-I 0 W/m 10,9 C 13,0 C 19,3 km/h (3 Bft)
12.05.2022 00:57 15,8 C 14,4 C 72 % 1013,3 hPa 0,0 l/m 14,5 km/h (3 Bft) SW 225 0 min 0,0 UV-I 0 W/m 10,8 C 12,3 C 32,2 km/h (5 Bft)
12.05.2022 00:58 15,8 C 14,4 C 72 % 1013,3 hPa 0,0 l/m 17,7 km/h (3 Bft) SW 225 0 min 0,0 UV-I 0 W/m 10,8 C 11,4 C 25,7 km/h (4 Bft)
12.05.2022 00:59 15,8 C 14,4 C 72 % 1013,3 hPa 0,0 l/m 11,3 km/h (2 Bft) W-SW 247 0 min 0,0 UV-I 0 W/m 10,8 C 13,5 C 16,1 km/h (3 Bft)
12.05.2022 01:00 15,8 C 14,4 C 72 % 1013,3 hPa 0,0 l/m 12,9 km/h (3 Bft) SW 225 0 min 0,0 UV-I 0 W/m 10,8 C 12,9 C 20,9 km/h (4 Bft)
12.05.2022 01:01 15,7 C 14,4 C 72 % 1013,4 hPa 0,0 l/m 16,1 km/h (3 Bft) SW 225 0 min 0,0 UV-I 0 W/m 10,7 C 11,7 C 24,1 km/h (4 Bft)
12.05.2022 01:02 15,7 C 14,4 C 72 % 1013,4 hPa 0,0 l/m 11,3 km/h (2 Bft) W-SW 247 0 min 0,0 UV-I 0 W/m 10,7 C 13,3 C 17,7 km/h (3 Bft)
12.05.2022 01:03 15,7 C 14,4 C 72 % 1013,5 hPa 0,0 l/m 11,3 km/h (2 Bft) W-SW 247 0 min 0,0 UV-I 0 W/m 10,7 C 13,3 C 16,1 km/h (3 Bft)
12.05.2022 01:04 15,7 C 14,4 C 73 % 1013,3 hPa 0,0 l/m 12,9 km/h (3 Bft) W-SW 247 0 min 0,0 UV-I 0 W/m 10,9 C 12,7 C 20,9 km/h (4 Bft)
12.05.2022 01:05 15,7 C 14,4 C 73 % 1013,5 hPa 0,0 l/m 20,9 km/h (4 Bft) SW 225 0 min 0,0 UV-I 0 W/m 10,9 C 10,4 C 29,0 km/h (5 Bft)
12.05.2022 01:06 15,7 C 14,4 C 73 % 1013,4 hPa 0,0 l/m 19,3 km/h (3 Bft) SW 225 0 min 0,0 UV-I 0 W/m 10,9 C 10,8 C 30,6 km/h (5 Bft)
12.05.2022 01:07 15,7 C 14,4 C 73 % 1013,7 hPa 0,0 l/m 16,1 km/h (3 Bft) S-SW 202 0 min 0,0 UV-I 0 W/m 10,9 C 11,7 C 29,0 km/h (5 Bft)
12.05.2022 01:08 15,7 C 14,4 C 73 % 1013,5 hPa 0,0 l/m 12,9 km/h (3 Bft) W 270 0 min 0,0 UV-I 0 W/m 10,9 C 12,7 C 22,5 km/h (4 Bft)
12.05.2022 01:09 15,6 C 14,4 C 73 % 1013,6 hPa 0,0 l/m 12,9 km/h (3 Bft) SW 225 0 min 0,0 UV-I 0 W/m 10,8 C 12,6 C 20,9 km/h (4 Bft)
12.05.2022 01:10 15,6 C 14,4 C 73 % 1013,7 hPa 0,0 l/m 9,7 km/h (2 Bft) S-SW 202 0 min 0,0 UV-I 0 W/m 10,8 C 13,9 C 14,5 km/h (3 Bft)
12.05.2022 01:11 15,6 C 14,4 C 73 % 1013,6 hPa 0,0 l/m 12,9 km/h (3 Bft) SW 225 0 min 0,0 UV-I 0 W/m 10,8 C 12,6 C 24,1 km/h (4 Bft)
12.05.2022 01:12 15,6 C 14,4 C 73 % 1013,7 hPa 0,0 l/m 11,3 km/h (2 Bft) S-SW 202 0 min 0,0 UV-I 0 W/m 10,8 C 13,2 C 17,7 km/h (3 Bft)
12.05.2022 01:13 15,5 C 14,4 C 73 % 1013,7 hPa 0,0 l/m 19,3 km/h (3 Bft) W-SW 247 0 min 0,0 UV-I 0 W/m 10,7 C 10,6 C 29,0 km/h (5 Bft)
12.05.2022 01:14 15,5 C 14,4 C 73 % 1013,7 hPa 0,0 l/m 16,1 km/h (3 Bft) W-SW 247 0 min 0,0 UV-I 0 W/m 10,7 C 11,5 C 20,9 km/h (4 Bft)
12.05.2022 01:15 15,5 C 13,9 C 73 % 1013,7 hPa 0,0 l/m 9,7 km/h (2 Bft) SW 225 0 min 0,0 UV-I 0 W/m 10,7 C 13,8 C 17,7 km/h (3 Bft)
12.05.2022 01:16 15,4 C 13,9 C 74 % 1013,6 hPa 0,0 l/m 12,9 km/h (3 Bft) W-SW 247 0 min 0,0 UV-I 0 W/m 10,8 C 12,4 C 20,9 km/h (4 Bft)
12.05.2022 01:17 15,4 C 13,9 C 74 % 1013,6 hPa 0,0 l/m 16,1 km/h (3 Bft) SW 225 0 min 0,0 UV-I 0 W/m 10,8 C 11,3 C 24,1 km/h (4 Bft)
12.05.2022 01:18 15,4 C 13,9 C 74 % 1013,7 hPa 0,0 l/m 17,7 km/h (3 Bft) SW 225 0 min 0,0 UV-I 0 W/m 10,8 C 10,9 C 27,4 km/h (4 Bft)
12.05.2022 01:19 15,4 C 13,9 C 74 % 1013,7 hPa 0,0 l/m 16,1 km/h (3 Bft) S-SW 202 0 min 0,0 UV-I 0 W/m 10,8 C 11,3 C 22,5 km/h (4 Bft)
12.05.2022 01:20 15,4 C 13,9 C 74 % 1013,5 hPa 0,0 l/m 20,9 km/h (4 Bft) SW 225 0 min 0,0 UV-I 0 W/m 10,8 C 10,0 C 29,0 km/h (5 Bft)
12.05.2022 01:21 15,4 C 13,9 C 74 % 1013,6 hPa 0,0 l/m 19,3 km/h (3 Bft) W-SW 247 0 min 0,0 UV-I 0 W/m 10,8 C 10,4 C 29,0 km/h (5 Bft)
12.05.2022 01:22 15,4 C 13,9 C 74 % 1013,7 hPa 0,0 l/m 12,9 km/h (3 Bft) SW 225 0 min 0,0 UV-I 0 W/m 10,8 C 12,4 C 22,5 km/h (4 Bft)
12.05.2022 01:23 15,3 C 13,9 C 74 % 1013,7 hPa 0,0 l/m 11,3 km/h (2 Bft) SW 225 0 min 0,0 UV-I 0 W/m 10,7 C 12,9 C 20,9 km/h (4 Bft)
12.05.2022 01:24 15,3 C 13,9 C 74 % 1013,8 hPa 0,0 l/m 20,9 km/h (4 Bft) SW 225 0 min 0,0 UV-I 0 W/m 10,7 C 9,9 C 30,6 km/h (5 Bft)
12.05.2022 01:25 15,3 C 13,9 C 74 % 1013,7 hPa 0,0 l/m 17,7 km/h (3 Bft) SW 225 0 min 0,0 UV-I 0 W/m 10,7 C 10,7 C 24,1 km/h (4 Bft)
12.05.2022 01:26 15,3 C 13,9 C 74 % 1013,7 hPa 0,0 l/m 14,5 km/h (3 Bft) SW 225 0 min 0,0 UV-I 0 W/m 10,7 C 11,7 C 24,1 km/h (4 Bft)
12.05.2022 01:27 15,3 C 13,9 C 74 % 1013,9 hPa 0,0 l/m 17,7 km/h (3 Bft) S-SW 202 0 min 0,0 UV-I 0 W/m 10,7 C 10,7 C 22,5 km/h (4 Bft)
12.05.2022 01:28 15,3 C 13,9 C 74 % 1013,8 hPa 0,0 l/m 17,7 km/h (3 Bft) W-SW 247 0 min 0,0 UV-I 0 W/m 10,7 C 10,7 C 22,5 km/h (4 Bft)
12.05.2022 01:29 15,3 C 13,9 C 74 % 1013,8 hPa 0,0 l/m 17,7 km/h (3 Bft) SW 225 0 min 0,0 UV-I 0 W/m 10,7 C 10,7 C 27,4 km/h (4 Bft)
12.05.2022 01:30 15,3 C 13,9 C 74 % 1013,8 hPa 0,0 l/m 16,1 km/h (3 Bft) SW 225 0 min 0,0 UV-I 0 W/m 10,7 C 11,2 C 32,2 km/h (5 Bft)
12.05.2022 01:31 15,3 C 13,9 C 74 % 1013,8 hPa 0,0 l/m 12,9 km/h (3 Bft) S-SW 202 0 min 0,0 UV-I 0 W/m 10,7 C 12,3 C 20,9 km/h (4 Bft)
12.05.2022 01:32 15,2 C 13,9 C 74 % 1013,8 hPa 0,0 l/m 17,7 km/h (3 Bft) SW 225 0 min 0,0 UV-I 0 W/m 10,6 C 10,6 C 32,2 km/h (5 Bft)
12.05.2022 01:33 15,2 C 13,9 C 75 % 1013,8 hPa 0,0 l/m 16,1 km/h (3 Bft) SW 225 0 min 0,0 UV-I 0 W/m 10,8 C 11,1 C 24,1 km/h (4 Bft)
12.05.2022 01:34 15,2 C 13,9 C 75 % 1013,8 hPa 0,0 l/m 11,3 km/h (2 Bft) S-SW 202 0 min 0,0 UV-I 0 W/m 10,8 C 12,8 C 16,1 km/h (3 Bft)
12.05.2022 01:35 15,2 C 13,9 C 75 % 1013,9 hPa 0,0 l/m 16,1 km/h (3 Bft) SW 225 0 min 0,0 UV-I 0 W/m 10,8 C 11,1 C 30,6 km/h (5 Bft)
12.05.2022 01:36 15,2 C 13,9 C 75 % 1014,0 hPa 0,0 l/m 8,0 km/h (2 Bft) SW 225 0 min 0,0 UV-I 0 W/m 10,8 C 14,3 C 14,5 km/h (3 Bft)
12.05.2022 01:37 15,2 C 13,9 C 75 % 1013,9 hPa 0,0 l/m 12,9 km/h (3 Bft) S-SW 202 0 min 0,0 UV-I 0 W/m 10,8 C 12,2 C 17,7 km/h (3 Bft)
12.05.2022 01:38 15,1 C 13,9 C 75 % 1013,9 hPa 0,0 l/m 9,7 km/h (2 Bft) SW 225 0 min 0,0 UV-I 0 W/m 10,7 C 13,4 C 19,3 km/h (3 Bft)
12.05.2022 01:39 15,1 C 13,9 C 75 % 1013,9 hPa 0,0 l/m 11,3 km/h (2 Bft) SW 225 0 min 0,0 UV-I 0 W/m 10,7 C 12,7 C 22,5 km/h (4 Bft)
12.05.2022 01:40 15,1 C 13,9 C 75 % 1013,8 hPa 0,0 l/m 16,1 km/h (3 Bft) S-SW 202 0 min 0,0 UV-I 0 W/m 10,7 C 11,0 C 25,7 km/h (4 Bft)
12.05.2022 01:41 15,1 C 13,9 C 75 % 1013,9 hPa 0,0 l/m 12,9 km/h (3 Bft) SW 225 0 min 0,0 UV-I 0 W/m 10,7 C 12,0 C 19,3 km/h (3 Bft)
12.05.2022 01:42 15,1 C 13,9 C 75 % 1013,9 hPa 0,0 l/m 12,9 km/h (3 Bft) SW 225 0 min 0,0 UV-I 0 W/m 10,7 C 12,0 C 19,3 km/h (3 Bft)
12.05.2022 01:43 15,2 C 13,9 C 75 % 1013,9 hPa 0,0 l/m 14,5 km/h (3 Bft) SW 225 0 min 0,0 UV-I 0 W/m 10,8 C 11,6 C 19,3 km/h (3 Bft)
12.05.2022 01:44 15,2 C 14,4 C 75 % 1013,9 hPa 0,0 l/m 11,3 km/h (2 Bft) SW 225 0 min 0,0 UV-I 0 W/m 10,8 C 12,8 C 16,1 km/h (3 Bft)
12.05.2022 01:45 15,2 C 14,4 C 75 % 1013,8 hPa 0,0 l/m 6,4 km/h (2 Bft) S-SW 202 0 min 0,0 UV-I 0 W/m 10,8 C 15,2 C 11,3 km/h (2 Bft)
12.05.2022 01:46 15,2 C 13,9 C 75 % 1014,0 hPa 0,0 l/m 12,9 km/h (3 Bft) W-SW 247 0 min 0,0 UV-I 0 W/m 10,8 C 12,2 C 22,5 km/h (4 Bft)
12.05.2022 01:47 15,2 C 13,9 C 75 % 1013,9 hPa 0,0 l/m 16,1 km/h (3 Bft) W-SW 247 0 min 0,0 UV-I 0 W/m 10,8 C 11,1 C 25,7 km/h (4 Bft)
12.05.2022 01:48 15,2 C 13,9 C 75 % 1013,9 hPa 0,0 l/m 12,9 km/h (3 Bft) SW 225 0 min 0,0 UV-I 0 W/m 10,8 C 12,2 C 16,1 km/h (3 Bft)
12.05.2022 01:49 15,2 C 13,9 C 75 % 1013,8 hPa 0,0 l/m 16,1 km/h (3 Bft) SW 225 0 min 0,0 UV-I 0 W/m 10,8 C 11,1 C 25,7 km/h (4 Bft)
12.05.2022 01:50 15,2 C 13,9 C 75 % 1014,0 hPa 0,0 l/m 9,7 km/h (2 Bft) SW 225 0 min 0,0 UV-I 0 W/m 10,8 C 13,5 C 16,1 km/h (3 Bft)
12.05.2022 01:51 15,2 C 13,9 C 75 % 1013,9 hPa 0,0 l/m 11,3 km/h (2 Bft) SW 225 0 min 0,0 UV-I 0 W/m 10,8 C 12,8 C 20,9 km/h (4 Bft)
12.05.2022 01:52 15,2 C 13,9 C 75 % 1013,9 hPa 0,0 l/m 14,5 km/h (3 Bft) S-SW 202 0 min 0,0 UV-I 0 W/m 10,8 C 11,6 C 27,4 km/h (4 Bft)
12.05.2022 01:53 15,2 C 13,9 C 75 % 1013,9 hPa 0,0 l/m 17,7 km/h (3 Bft) SW 225 0 min 0,0 UV-I 0 W/m 10,8 C 10,6 C 25,7 km/h (4 Bft)
12.05.2022 01:54 15,2 C 13,9 C 75 % 1013,9 hPa 0,0 l/m 14,5 km/h (3 Bft) SW 225 0 min 0,0 UV-I 0 W/m 10,8 C 11,6 C 22,5 km/h (4 Bft)
12.05.2022 01:55 15,1 C 13,9 C 75 % 1013,9 hPa 0,0 l/m 14,5 km/h (3 Bft) SW 225 0 min 0,0 UV-I 0 W/m 10,7 C 11,5 C 17,7 km/h (3 Bft)
12.05.2022 01:56 15,1 C 13,9 C 75 % 1014,0 hPa 0,0 l/m 12,9 km/h (3 Bft) W-SW 247 0 min 0,0 UV-I 0 W/m 10,7 C 12,0 C 17,7 km/h (3 Bft)
12.05.2022 01:57 15,1 C 13,9 C 76 % 1013,9 hPa 0,0 l/m 17,7 km/h (3 Bft) W-SW 247 0 min 0,0 UV-I 0 W/m 10,9 C 10,5 C 29,0 km/h (5 Bft)
12.05.2022 01:58 15,2 C 13,9 C 76 % 1014,0 hPa 0,0 l/m 20,9 km/h (4 Bft) W-SW 247 0 min 0,0 UV-I 0 W/m 11,0 C 9,8 C 30,6 km/h (5 Bft)
12.05.2022 01:59 15,1 C 13,9 C 75 % 1014,0 hPa 0,0 l/m 16,1 km/h (3 Bft) W 270 0 min 0,0 UV-I 0 W/m 10,7 C 11,0 C 22,5 km/h (4 Bft)
12.05.2022 02:00 15,1 C 13,9 C 75 % 1014,2 hPa 0,0 l/m 16,1 km/h (3 Bft) W 270 0 min 0,0 UV-I 0 W/m 10,7 C 11,0 C 20,9 km/h (4 Bft)
12.05.2022 02:01 15,1 C 13,9 C 75 % 1014,2 hPa 0,0 l/m 14,5 km/h (3 Bft) W 270 0 min 0,0 UV-I 0 W/m 10,7 C 11,5 C 19,3 km/h (3 Bft)
12.05.2022 02:02 15,1 C 13,9 C 75 % 1014,3 hPa 0,0 l/m 17,7 km/h (3 Bft) W 270 0 min 0,0 UV-I 0 W/m 10,7 C 10,5 C 27,4 km/h (4 Bft)
12.05.2022 02:03 15,0 C 13,9 C 75 % 1014,3 hPa 0,0 l/m 14,5 km/h (3 Bft) W-SW 247 0 min 0,0 UV-I 0 W/m 10,6 C 11,4 C 20,9 km/h (4 Bft)
12.05.2022 02:04 14,9 C 13,9 C 75 % 1014,4 hPa 0,0 l/m 11,3 km/h (2 Bft) W 270 0 min 0,0 UV-I 0 W/m 10,5 C 12,4 C 16,1 km/h (3 Bft)
12.05.2022 02:05 14,8 C 13,9 C 75 % 1014,4 hPa 0,0 l/m 16,1 km/h (3 Bft) W 270 0 min 0,0 UV-I 0 W/m 10,4 C 10,6 C 22,5 km/h (4 Bft)
12.05.2022 02:06 14,8 C 13,9 C 75 % 1014,3 hPa 0,0 l/m 16,1 km/h (3 Bft) W-SW 247 0 min 0,0 UV-I 0 W/m 10,4 C 10,6 C 27,4 km/h (4 Bft)
12.05.2022 02:07 14,7 C 13,3 C 75 % 1014,3 hPa 0,0 l/m 14,5 km/h (3 Bft) W 270 0 min 0,0 UV-I 0 W/m 10,3 C 11,0 C 19,3 km/h (3 Bft)
12.05.2022 02:08 14,6 C 13,3 C 75 % 1014,4 hPa 0,0 l/m 16,1 km/h (3 Bft) W-SW 247 0 min 0,0 UV-I 0 W/m 10,2 C 10,3 C 22,5 km/h (4 Bft)
12.05.2022 02:09 14,6 C 13,3 C 75 % 1014,4 hPa 0,0 l/m 11,3 km/h (2 Bft) W-SW 247 0 min 0,0 UV-I 0 W/m 10,2 C 12,1 C 20,9 km/h (4 Bft)
12.05.2022 02:10 14,4 C 13,3 C 75 % 1014,4 hPa 0,0 l/m 16,1 km/h (3 Bft) W-SW 247 0 min 0,0 UV-I 0 W/m 10,0 C 10,1 C 24,1 km/h (4 Bft)
12.05.2022 02:11 14,4 C 13,3 C 75 % 1014,4 hPa 0,0 l/m 12,9 km/h (3 Bft) W 270 0 min 0,0 UV-I 0 W/m 10,0 C 11,2 C 17,7 km/h (3 Bft)
12.05.2022 02:12 14,3 C 13,3 C 76 % 1014,4 hPa 0,0 l/m 8,0 km/h (2 Bft) W-SW 247 0 min 0,0 UV-I 0 W/m 10,1 C 13,4 C 11,3 km/h (2 Bft)
12.05.2022 02:13 14,2 C 12,8 C 76 % 1014,4 hPa 0,0 l/m 6,4 km/h (2 Bft) W-SW 247 0 min 0,0 UV-I 0 W/m 10,0 C 14,2 C 14,5 km/h (3 Bft)
12.05.2022 02:14 14,2 C 12,8 C 76 % 1014,5 hPa 0,0 l/m 9,7 km/h (2 Bft) W-SW 247 0 min 0,0 UV-I 0 W/m 10,0 C 12,4 C 17,7 km/h (3 Bft)
12.05.2022 02:15 14,1 C 12,8 C 76 % 1014,5 hPa 0,0 l/m 11,3 km/h (2 Bft) W-SW 247 0 min 0,0 UV-I 0 W/m 9,9 C 11,5 C 16,1 km/h (3 Bft)
12.05.2022 02:16 14,1 C 12,8 C 76 % 1014,5 hPa 0,0 l/m 12,9 km/h (3 Bft) W 270 0 min 0,0 UV-I 0 W/m 9,9 C 10,9 C 16,1 km/h (3 Bft)
12.05.2022 02:17 14,0 C 12,8 C 77 % 1014,5 hPa 0,0 l/m 14,5 km/h (3 Bft) W 270 0 min 0,0 UV-I 0 W/m 10,0 C 10,2 C 19,3 km/h (3 Bft)
12.05.2022 02:18 14,0 C 12,8 C 77 % 1014,6 hPa 0,0 l/m 14,5 km/h (3 Bft) W-SW 247 0 min 0,0 UV-I 0 W/m 10,0 C 10,2 C 19,3 km/h (3 Bft)
12.05.2022 02:19 13,9 C 12,8 C 77 % 1014,5 hPa 0,0 l/m 9,7 km/h (2 Bft) W-SW 247 0 min 0,0 UV-I 0 W/m 9,9 C 12,0 C 14,5 km/h (3 Bft)
12.05.2022 02:20 13,9 C 13,3 C 77 % 1014,5 hPa 0,0 l/m 8,0 km/h (2 Bft) W-SW 247 0 min 0,0 UV-I 0 W/m 9,9 C 12,9 C 11,3 km/h (2 Bft)
12.05.2022 02:21 13,9 C 12,8 C 77 % 1014,5 hPa 0,0 l/m 9,7 km/h (2 Bft) W 270 0 min 0,0 UV-I 0 W/m 9,9 C 12,0 C 14,5 km/h (3 Bft)
12.05.2022 02:22 13,9 C 13,3 C 77 % 1014,5 hPa 0,0 l/m 8,0 km/h (2 Bft) W-SW 247 0 min 0,0 UV-I 0 W/m 9,9 C 12,9 C 12,9 km/h (3 Bft)
12.05.2022 02:23 13,9 C 13,3 C 77 % 1014,5 hPa 0,0 l/m 11,3 km/h (2 Bft) W-SW 247 0 min 0,0 UV-I 0 W/m 9,9 C 11,3 C 14,5 km/h (3 Bft)
12.05.2022 02:24 13,9 C 13,3 C 77 % 1014,5 hPa 0,0 l/m 9,7 km/h (2 Bft) W 270 0 min 0,0 UV-I 0 W/m 9,9 C 12,0 C 12,9 km/h (3 Bft)
12.05.2022 02:25 13,9 C 13,3 C 77 % 1014,5 hPa 0,0 l/m 9,7 km/h (2 Bft) W-SW 247 0 min 0,0 UV-I 0 W/m 9,9 C 12,0 C 16,1 km/h (3 Bft)
12.05.2022 02:26 13,9 C 13,3 C 77 % 1014,6 hPa 0,0 l/m 12,9 km/h (3 Bft) SW 225 0 min 0,0 UV-I 0 W/m 9,9 C 10,6 C 17,7 km/h (3 Bft)
12.05.2022 02:27 13,9 C 13,3 C 77 % 1014,5 hPa 0,0 l/m 17,7 km/h (3 Bft) SW 225 0 min 0,0 UV-I 0 W/m 9,9 C 9,0 C 24,1 km/h (4 Bft)
12.05.2022 02:28 13,9 C 13,3 C 77 % 1014,4 hPa 0,0 l/m 17,7 km/h (3 Bft) SW 225 0 min 0,0 UV-I 0 W/m 9,9 C 9,0 C 25,7 km/h (4 Bft)
12.05.2022 02:29 13,9 C 13,3 C 77 % 1014,5 hPa 0,0 l/m 9,7 km/h (2 Bft) W 270 0 min 0,0 UV-I 0 W/m 9,9 C 12,0 C 17,7 km/h (3 Bft)
12.05.2022 02:30 13,9 C 13,3 C 77 % 1014,5 hPa 0,0 l/m 11,3 km/h (2 Bft) W-SW 247 0 min 0,0 UV-I 0 W/m 9,9 C 11,3 C 17,7 km/h (3 Bft)
12.05.2022 02:31 13,9 C 13,3 C 77 % 1014,5 hPa 0,0 l/m 11,3 km/h (2 Bft) SW 225 0 min 0,0 UV-I 0 W/m 9,9 C 11,3 C 19,3 km/h (3 Bft)
12.05.2022 02:32 14,0 C 13,3 C 77 % 1014,6 hPa 0,0 l/m 6,4 km/h (2 Bft) SW 225 0 min 0,0 UV-I 0 W/m 10,0 C 14,0 C 9,7 km/h (2 Bft)
12.05.2022 02:33 14,0 C 13,3 C 77 % 1014,6 hPa 0,0 l/m 8,0 km/h (2 Bft) SW 225 0 min 0,0 UV-I 0 W/m 10,0 C 13,1 C 12,9 km/h (3 Bft)
12.05.2022 02:34 14,0 C 13,3 C 77 % 1014,5 hPa 0,0 l/m 16,1 km/h (3 Bft) SW 225 0 min 0,0 UV-I 0 W/m 10,0 C 9,6 C 25,7 km/h (4 Bft)
12.05.2022 02:35 14,0 C 13,3 C 77 % 1014,5 hPa 0,0 l/m 16,1 km/h (3 Bft) W-SW 247 0 min 0,0 UV-I 0 W/m 10,0 C 9,6 C 24,1 km/h (4 Bft)
12.05.2022 02:36 14,1 C 13,3 C 77 % 1014,5 hPa 0,0 l/m 14,5 km/h (3 Bft) W-SW 247 0 min 0,0 UV-I 0 W/m 10,1 C 10,3 C 25,7 km/h (4 Bft)
12.05.2022 02:37 14,1 C 13,3 C 77 % 1014,5 hPa 0,0 l/m 14,5 km/h (3 Bft) SW 225 0 min 0,0 UV-I 0 W/m 10,1 C 10,3 C 19,3 km/h (3 Bft)
12.05.2022 02:38 14,1 C 13,3 C 77 % 1014,6 hPa 0,0 l/m 14,5 km/h (3 Bft) SW 225 0 min 0,0 UV-I 0 W/m 10,1 C 10,3 C 24,1 km/h (4 Bft)
12.05.2022 02:39 14,1 C 13,3 C 76 % 1014,7 hPa 0,0 l/m 14,5 km/h (3 Bft) SW 225 0 min 0,0 UV-I 0 W/m 9,9 C 10,3 C 27,4 km/h (4 Bft)
12.05.2022 02:40 14,1 C 13,3 C 76 % 1014,5 hPa 0,0 l/m 19,3 km/h (3 Bft) W-SW 247 0 min 0,0 UV-I 0 W/m 9,9 C 8,8 C 33,8 km/h (5 Bft)
12.05.2022 02:41 14,1 C 13,3 C 76 % 1014,6 hPa 0,0 l/m 11,3 km/h (2 Bft) W-SW 247 0 min 0,0 UV-I 0 W/m 9,9 C 11,5 C 33,8 km/h (5 Bft)
12.05.2022 02:42 14,1 C 13,3 C 76 % 1014,6 hPa 0,0 l/m 17,7 km/h (3 Bft) W-SW 247 0 min 0,0 UV-I 0 W/m 9,9 C 9,2 C 22,5 km/h (4 Bft)
12.05.2022 02:43 14,1 C 13,3 C 76 % 1014,7 hPa 0,0 l/m 12,9 km/h (3 Bft) W-SW 247 0 min 0,0 UV-I 0 W/m 9,9 C 10,9 C 17,7 km/h (3 Bft)
12.05.2022 02:44 14,1 C 13,3 C 76 % 1014,6 hPa 0,0 l/m 11,3 km/h (2 Bft) SW 225 0 min 0,0 UV-I 0 W/m 9,9 C 11,5 C 19,3 km/h (3 Bft)
12.05.2022 02:45 14,1 C 13,3 C 76 % 1014,6 hPa 0,0 l/m 12,9 km/h (3 Bft) W-SW 247 0 min 0,0 UV-I 0 W/m 9,9 C 10,9 C 19,3 km/h (3 Bft)
12.05.2022 02:46 14,1 C 13,3 C 76 % 1014,7 hPa 0,0 l/m 8,0 km/h (2 Bft) SW 225 0 min 0,0 UV-I 0 W/m 9,9 C 13,2 C 14,5 km/h (3 Bft)
12.05.2022 02:47 14,1 C 13,3 C 77 % 1014,6 hPa 0,0 l/m 9,7 km/h (2 Bft) SW 225 0 min 0,0 UV-I 0 W/m 10,1 C 12,3 C 19,3 km/h (3 Bft)
12.05.2022 02:48 14,1 C 13,3 C 77 % 1014,5 hPa 0,0 l/m 9,7 km/h (2 Bft) SW 225 0 min 0,0 UV-I 0 W/m 10,1 C 12,3 C 16,1 km/h (3 Bft)
12.05.2022 02:49 14,1 C 13,3 C 77 % 1014,5 hPa 0,0 l/m 11,3 km/h (2 Bft) W-NW 292 0 min 0,0 UV-I 0 W/m 10,1 C 11,5 C 22,5 km/h (4 Bft)
12.05.2022 02:50 14,0 C 13,3 C 77 % 1014,5 hPa 0,0 l/m 12,9 km/h (3 Bft) W-SW 247 0 min 0,0 UV-I 0 W/m 10,0 C 10,8 C 19,3 km/h (3 Bft)
12.05.2022 02:51 13,9 C 13,3 C 77 % 1014,5 hPa 0,0 l/m 12,9 km/h (3 Bft) W 270 0 min 0,0 UV-I 0 W/m 9,9 C 10,6 C 24,1 km/h (4 Bft)
12.05.2022 02:52 13,9 C 13,3 C 77 % 1014,5 hPa 0,0 l/m 12,9 km/h (3 Bft) SW 225 0 min 0,0 UV-I 0 W/m 9,9 C 10,6 C 22,5 km/h (4 Bft)
12.05.2022 02:53 13,9 C 13,3 C 77 % 1014,5 hPa 0,0 l/m 12,9 km/h (3 Bft) W-SW 247 0 min 0,0 UV-I 0 W/m 9,9 C 10,6 C 20,9 km/h (4 Bft)
12.05.2022 02:54 13,9 C 13,3 C 77 % 1014,5 hPa 0,0 l/m 12,9 km/h (3 Bft) W-SW 247 0 min 0,0 UV-I 0 W/m 9,9 C 10,6 C 19,3 km/h (3 Bft)
12.05.2022 02:55 13,9 C 13,3 C 77 % 1014,5 hPa 0,0 l/m 11,3 km/h (2 Bft) SW 225 0 min 0,0 UV-I 0 W/m 9,9 C 11,3 C 17,7 km/h (3 Bft)
12.05.2022 02:56 13,9 C 13,3 C 77 % 1014,5 hPa 0,0 l/m 12,9 km/h (3 Bft) W-SW 247 0 min 0,0 UV-I 0 W/m 9,9 C 10,6 C 20,9 km/h (4 Bft)
12.05.2022 02:57 13,8 C 13,3 C 77 % 1014,6 hPa 0,0 l/m 12,9 km/h (3 Bft) SW 225 0 min 0,0 UV-I 0 W/m 9,8 C 10,5 C 19,3 km/h (3 Bft)
12.05.2022 02:58 13,8 C 13,3 C 77 % 1014,5 hPa 0,0 l/m 9,7 km/h (2 Bft) SW 225 0 min 0,0 UV-I 0 W/m 9,8 C 11,9 C 19,3 km/h (3 Bft)
12.05.2022 02:59 13,8 C 13,3 C 77 % 1014,6 hPa 0,0 l/m 14,5 km/h (3 Bft) W-SW 247 0 min 0,0 UV-I 0 W/m 9,8 C 9,9 C 27,4 km/h (4 Bft)
12.05.2022 03:00 13,8 C 13,3 C 77 % 1014,5 hPa 0,0 l/m 11,3 km/h (2 Bft) W-SW 247 0 min 0,0 UV-I 0 W/m 9,8 C 11,2 C 17,7 km/h (3 Bft)
12.05.2022 03:01 13,8 C 13,3 C 77 % 1014,5 hPa 0,0 l/m 8,0 km/h (2 Bft) W-SW 247 0 min 0,0 UV-I 0 W/m 9,8 C 12,8 C 11,3 km/h (2 Bft)
12.05.2022 03:02 13,9 C 13,3 C 77 % 1014,6 hPa 0,0 l/m 8,0 km/h (2 Bft) W-SW 247 0 min 0,0 UV-I 0 W/m 9,9 C 12,9 C 11,3 km/h (2 Bft)
12.05.2022 03:03 13,8 C 13,3 C 77 % 1014,6 hPa 0,0 l/m 11,3 km/h (2 Bft) W 270 0 min 0,0 UV-I 0 W/m 9,8 C 11,2 C 17,7 km/h (3 Bft)
12.05.2022 03:04 13,8 C 13,3 C 77 % 1014,5 hPa 0,0 l/m 11,3 km/h (2 Bft) W-SW 247 0 min 0,0 UV-I 0 W/m 9,8 C 11,2 C 17,7 km/h (3 Bft)
12.05.2022 03:05 13,8 C 13,3 C 77 % 1014,5 hPa 0,0 l/m 12,9 km/h (3 Bft) W-SW 247 0 min 0,0 UV-I 0 W/m 9,8 C 10,5 C 16,1 km/h (3 Bft)
12.05.2022 03:06 13,8 C 13,3 C 77 % 1014,7 hPa 0,0 l/m 11,3 km/h (2 Bft) W-SW 247 0 min 0,0 UV-I 0 W/m 9,8 C 11,2 C 16,1 km/h (3 Bft)
12.05.2022 03:07 13,8 C 13,3 C 77 % 1014,6 hPa 0,0 l/m 8,0 km/h (2 Bft) W 270 0 min 0,0 UV-I 0 W/m 9,8 C 12,8 C 16,1 km/h (3 Bft)
12.05.2022 03:08 13,8 C 13,3 C 77 % 1014,7 hPa 0,0 l/m 6,4 km/h (2 Bft) W-SW 247 0 min 0,0 UV-I 0 W/m 9,8 C 13,8 C 20,9 km/h (4 Bft)
12.05.2022 03:09 13,8 C 13,3 C 77 % 1014,7 hPa 0,0 l/m 20,9 km/h (4 Bft) W 270 0 min 0,0 UV-I 0 W/m 9,8 C 8,0 C 25,7 km/h (4 Bft)
12.05.2022 03:10 13,8 C 13,3 C 77 % 1014,8 hPa 0,0 l/m 16,1 km/h (3 Bft) W-SW 247 0 min 0,0 UV-I 0 W/m 9,8 C 9,4 C 22,5 km/h (4 Bft)
12.05.2022 03:11 13,8 C 13,3 C 77 % 1014,7 hPa 0,0 l/m 16,1 km/h (3 Bft) W-SW 247 0 min 0,0 UV-I 0 W/m 9,8 C 9,4 C 20,9 km/h (4 Bft)
12.05.2022 03:12 13,8 C 13,3 C 77 % 1014,8 hPa 0,0 l/m 11,3 km/h (2 Bft) W 270 0 min 0,0 UV-I 0 W/m 9,8 C 11,2 C 19,3 km/h (3 Bft)
12.05.2022 03:13 13,8 C 13,3 C 77 % 1014,7 hPa 0,0 l/m 16,1 km/h (3 Bft) W-SW 247 0 min 0,0 UV-I 0 W/m 9,8 C 9,4 C 24,1 km/h (4 Bft)
12.05.2022 03:14 13,8 C 13,3 C 76 % 1014,7 hPa 0,0 l/m 14,5 km/h (3 Bft) W 270 0 min 0,0 UV-I 0 W/m 9,6 C 9,9 C 20,9 km/h (4 Bft)
12.05.2022 03:15 13,7 C 13,3 C 76 % 1014,9 hPa 0,0 l/m 14,5 km/h (3 Bft) W 270 0 min 0,0 UV-I 0 W/m 9,5 C 9,8 C 22,5 km/h (4 Bft)
12.05.2022 03:16 13,7 C 13,3 C 76 % 1014,8 hPa 0,0 l/m 16,1 km/h (3 Bft) W-SW 247 0 min 0,0 UV-I 0 W/m 9,5 C 9,2 C 27,4 km/h (4 Bft)
12.05.2022 03:17 13,7 C 13,3 C 76 % 1014,7 hPa 0,0 l/m 19,3 km/h (3 Bft) W 270 0 min 0,0 UV-I 0 W/m 9,5 C 8,3 C 24,1 km/h (4 Bft)
12.05.2022 03:18 13,7 C 12,8 C 76 % 1014,8 hPa 0,0 l/m 14,5 km/h (3 Bft) W-SW 247 0 min 0,0 UV-I 0 W/m 9,5 C 9,8 C 20,9 km/h (4 Bft)
12.05.2022 03:19 13,7 C 12,8 C 76 % 1014,8 hPa 0,0 l/m 11,3 km/h (2 Bft) W-SW 247 0 min 0,0 UV-I 0 W/m 9,5 C 11,1 C 16,1 km/h (3 Bft)
12.05.2022 03:20 13,6 C 12,8 C 76 % 1014,8 hPa 0,0 l/m 12,9 km/h (3 Bft) W 270 0 min 0,0 UV-I 0 W/m 9,4 C 10,3 C 17,7 km/h (3 Bft)
12.05.2022 03:21 13,6 C 12,8 C 75 % 1014,8 hPa 0,0 l/m 16,1 km/h (3 Bft) W-SW 247 0 min 0,0 UV-I 0 W/m 9,3 C 9,1 C 22,5 km/h (4 Bft)
12.05.2022 03:22 13,6 C 12,8 C 75 % 1014,8 hPa 0,0 l/m 16,1 km/h (3 Bft) W-SW 247 0 min 0,0 UV-I 0 W/m 9,3 C 9,1 C 24,1 km/h (4 Bft)
12.05.2022 03:23 13,6 C 12,8 C 75 % 1014,9 hPa 0,0 l/m 14,5 km/h (3 Bft) W 270 0 min 0,0 UV-I 0 W/m 9,3 C 9,7 C 19,3 km/h (3 Bft)
12.05.2022 03:24 13,5 C 12,8 C 75 % 1014,9 hPa 0,0 l/m 19,3 km/h (3 Bft) W-SW 247 0 min 0,0 UV-I 0 W/m 9,2 C 8,0 C 35,4 km/h (5 Bft)
12.05.2022 03:25 13,5 C 12,8 C 75 % 1014,9 hPa 0,0 l/m 19,3 km/h (3 Bft) W 270 0 min 0,0 UV-I 0 W/m 9,2 C 8,0 C 37,0 km/h (5 Bft)
12.05.2022 03:26 13,4 C 12,8 C 75 % 1014,9 hPa 0,0 l/m 14,5 km/h (3 Bft) W 270 0 min 0,0 UV-I 0 W/m 9,1 C 9,4 C 25,7 km/h (4 Bft)
12.05.2022 03:27 13,4 C 12,8 C 75 % 1014,9 hPa 0,0 l/m 22,5 km/h (4 Bft) W 270 0 min 0,0 UV-I 0 W/m 9,1 C 7,0 C 30,6 km/h (5 Bft)
12.05.2022 03:28 13,4 C 12,8 C 75 % 1015,0 hPa 0,0 l/m 17,7 km/h (3 Bft) W 270 0 min 0,0 UV-I 0 W/m 9,1 C 8,4 C 29,0 km/h (5 Bft)
12.05.2022 03:29 13,3 C 12,8 C 75 % 1015,0 hPa 0,0 l/m 16,1 km/h (3 Bft) W-SW 247 0 min 0,0 UV-I 0 W/m 9,0 C 8,7 C 20,9 km/h (4 Bft)
12.05.2022 03:30 13,3 C 12,8 C 75 % 1015,0 hPa 0,0 l/m 9,7 km/h (2 Bft) W-SW 247 0 min 0,0 UV-I 0 W/m 9,0 C 11,4 C 14,5 km/h (3 Bft)
12.05.2022 03:31 13,3 C 12,2 C 75 % 1015,0 hPa 0,0 l/m 17,7 km/h (3 Bft) W-SW 247 0 min 0,0 UV-I 0 W/m 9,0 C 8,2 C 24,1 km/h (4 Bft)
12.05.2022 03:32 13,3 C 12,2 C 75 % 1015,1 hPa 0,0 l/m 12,9 km/h (3 Bft) W-SW 247 0 min 0,0 UV-I 0 W/m 9,0 C 9,9 C 22,5 km/h (4 Bft)
12.05.2022 03:33 13,2 C 12,2 C 75 % 1015,0 hPa 0,0 l/m 11,3 km/h (2 Bft) W-SW 247 0 min 0,0 UV-I 0 W/m 8,9 C 10,5 C 16,1 km/h (3 Bft)
12.05.2022 03:34 13,2 C 12,2 C 75 % 1015,1 hPa 0,0 l/m 11,3 km/h (2 Bft) W 270 0 min 0,0 UV-I 0 W/m 8,9 C 10,5 C 16,1 km/h (3 Bft)
12.05.2022 03:35 13,2 C 12,2 C 75 % 1015,1 hPa 0,0 l/m 8,0 km/h (2 Bft) W-SW 247 0 min 0,0 UV-I 0 W/m 8,9 C 12,2 C 12,9 km/h (3 Bft)
12.05.2022 03:36 13,1 C 12,2 C 75 % 1015,1 hPa 0,0 l/m 6,4 km/h (2 Bft) W-SW 247 0 min 0,0 UV-I 0 W/m 8,8 C 13,1 C 11,3 km/h (2 Bft)
12.05.2022 03:37 13,1 C 12,2 C 75 % 1015,2 hPa 0,0 l/m 9,7 km/h (2 Bft) W-SW 247 0 min 0,0 UV-I 0 W/m 8,8 C 11,2 C 14,5 km/h (3 Bft)
12.05.2022 03:38 13,0 C 12,2 C 74 % 1015,2 hPa 0,0 l/m 14,5 km/h (3 Bft) W-SW 247 0 min 0,0 UV-I 0 W/m 8,5 C 9,0 C 19,3 km/h (3 Bft)
12.05.2022 03:39 13,0 C 12,2 C 74 % 1015,2 hPa 0,0 l/m 9,7 km/h (2 Bft) W 270 0 min 0,0 UV-I 0 W/m 8,5 C 11,1 C 14,5 km/h (3 Bft)
12.05.2022 03:40 12,9 C 12,2 C 74 % 1015,2 hPa 0,0 l/m 9,7 km/h (2 Bft) W-SW 247 0 min 0,0 UV-I 0 W/m 8,4 C 11,0 C 16,1 km/h (3 Bft)
12.05.2022 03:41 12,9 C 11,7 C 74 % 1015,2 hPa 0,0 l/m 8,0 km/h (2 Bft) SW 225 0 min 0,0 UV-I 0 W/m 8,4 C 11,9 C 14,5 km/h (3 Bft)
12.05.2022 03:42 12,9 C 11,7 C 75 % 1015,2 hPa 0,0 l/m 9,7 km/h (2 Bft) W-SW 247 0 min 0,0 UV-I 0 W/m 8,6 C 11,0 C 14,5 km/h (3 Bft)
12.05.2022 03:43 12,9 C 11,7 C 75 % 1015,3 hPa 0,0 l/m 6,4 km/h (2 Bft) W-SW 247 0 min 0,0 UV-I 0 W/m 8,6 C 12,9 C 8,0 km/h (2 Bft)
12.05.2022 03:44 12,8 C 11,7 C 75 % 1015,3 hPa 0,0 l/m 8,0 km/h (2 Bft) W-SW 247 0 min 0,0 UV-I 0 W/m 8,5 C 11,8 C 12,9 km/h (3 Bft)
12.05.2022 03:45 12,8 C 11,7 C 75 % 1015,3 hPa 0,0 l/m 8,0 km/h (2 Bft) W-SW 247 0 min 0,0 UV-I 0 W/m 8,5 C 11,8 C 12,9 km/h (3 Bft)
12.05.2022 03:46 12,7 C 11,7 C 75 % 1015,3 hPa 0,0 l/m 8,0 km/h (2 Bft) W-SW 247 0 min 0,0 UV-I 0 W/m 8,4 C 11,7 C 11,3 km/h (2 Bft)
12.05.2022 03:47 12,7 C 11,7 C 75 % 1015,2 hPa 0,0 l/m 8,0 km/h (2 Bft) W-SW 247 0 min 0,0 UV-I 0 W/m 8,4 C 11,7 C 9,7 km/h (2 Bft)
12.05.2022 03:48 12,6 C 11,1 C 75 % 1015,3 hPa 0,0 l/m 6,4 km/h (2 Bft) W-SW 247 0 min 0,0 UV-I 0 W/m 8,3 C 12,6 C 12,9 km/h (3 Bft)
12.05.2022 03:49 12,6 C 11,1 C 75 % 1015,3 hPa 0,0 l/m 3,2 km/h (1 Bft) W-SW 247 0 min 0,0 UV-I 0 W/m 8,3 C 12,6 C 4,8 km/h (1 Bft)
12.05.2022 03:50 12,5 C 11,1 C 75 % 1015,3 hPa 0,0 l/m 4,8 km/h (1 Bft) W-SW 247 0 min 0,0 UV-I 0 W/m 8,2 C 12,5 C 8,0 km/h (2 Bft)
12.05.2022 03:51 12,5 C 11,1 C 76 % 1015,3 hPa 0,0 l/m 6,4 km/h (2 Bft) W-SW 247 0 min 0,0 UV-I 0 W/m 8,4 C 12,5 C 11,3 km/h (2 Bft)
12.05.2022 03:52 12,4 C 11,1 C 76 % 1015,4 hPa 0,0 l/m 4,8 km/h (1 Bft) W 270 0 min 0,0 UV-I 0 W/m 8,3 C 12,4 C 6,4 km/h (2 Bft)
12.05.2022 03:53 12,4 C 11,1 C 76 % 1015,3 hPa 0,0 l/m 6,4 km/h (2 Bft) W 270 0 min 0,0 UV-I 0 W/m 8,3 C 12,4 C 9,7 km/h (2 Bft)
12.05.2022 03:54 12,3 C 11,1 C 76 % 1015,4 hPa 0,0 l/m 8,0 km/h (2 Bft) W 270 0 min 0,0 UV-I 0 W/m 8,2 C 11,3 C 11,3 km/h (2 Bft)
12.05.2022 03:55 12,3 C 10,6 C 76 % 1015,4 hPa 0,0 l/m 8,0 km/h (2 Bft) W 270 0 min 0,0 UV-I 0 W/m 8,2 C 11,3 C 11,3 km/h (2 Bft)
12.05.2022 03:56 12,3 C 11,1 C 76 % 1015,4 hPa 0,0 l/m 6,4 km/h (2 Bft) W-NW 292 0 min 0,0 UV-I 0 W/m 8,2 C 12,3 C 9,7 km/h (2 Bft)
12.05.2022 03:57 12,2 C 11,1 C 77 % 1015,5 hPa 0,0 l/m 3,2 km/h (1 Bft) W 270 0 min 0,0 UV-I 0 W/m 8,3 C 12,2 C 6,4 km/h (2 Bft)
12.05.2022 03:58 12,2 C 11,1 C 77 % 1015,4 hPa 0,0 l/m 4,8 km/h (1 Bft) W 270 0 min 0,0 UV-I 0 W/m 8,3 C 12,2 C 11,3 km/h (2 Bft)
12.05.2022 03:59 12,2 C 11,1 C 77 % 1015,4 hPa 0,0 l/m 4,8 km/h (1 Bft) W-SW 247 0 min 0,0 UV-I 0 W/m 8,3 C 12,2 C 8,0 km/h (2 Bft)
12.05.2022 04:00 12,2 C 11,1 C 77 % 1015,4 hPa 0,0 l/m 3,2 km/h (1 Bft) W-SW 247 0 min 0,0 UV-I 0 W/m 8,3 C 12,2 C 4,8 km/h (1 Bft)
12.05.2022 04:01 12,2 C 11,1 C 77 % 1015,5 hPa 0,0 l/m 8,0 km/h (2 Bft) W-SW 247 0 min 0,0 UV-I 0 W/m 8,3 C 11,2 C 14,5 km/h (3 Bft)
12.05.2022 04:02 12,2 C 11,1 C 77 % 1015,3 hPa 0,0 l/m 6,4 km/h (2 Bft) W 270 0 min 0,0 UV-I 0 W/m 8,3 C 12,2 C 9,7 km/h (2 Bft)
12.05.2022 04:03 12,2 C 11,1 C 77 % 1015,5 hPa 0,0 l/m 4,8 km/h (1 Bft) W 270 0 min 0,0 UV-I 0 W/m 8,3 C 12,2 C 6,4 km/h (2 Bft)
12.05.2022 04:04 12,2 C 11,1 C 77 % 1015,5 hPa 0,0 l/m 4,8 km/h (1 Bft) W 270 0 min 0,0 UV-I 0 W/m 8,3 C 12,2 C 9,7 km/h (2 Bft)
12.05.2022 04:05 12,2 C 11,1 C 77 % 1015,5 hPa 0,0 l/m 4,8 km/h (1 Bft) W 270 0 min 0,0 UV-I 0 W/m 8,3 C 12,2 C 6,4 km/h (2 Bft)
12.05.2022 04:06 12,2 C 11,1 C 77 % 1015,5 hPa 0,0 l/m 6,4 km/h (2 Bft) W 270 0 min 0,0 UV-I 0 W/m 8,3 C 12,2 C 12,9 km/h (3 Bft)
12.05.2022 04:07 12,2 C 11,1 C 77 % 1015,6 hPa 0,0 l/m 4,8 km/h (1 Bft) W-NW 292 0 min 0,0 UV-I 0 W/m 8,3 C 12,2 C 9,7 km/h (2 Bft)
12.05.2022 04:08 12,2 C 11,1 C 77 % 1015,5 hPa 0,0 l/m 8,0 km/h (2 Bft) W-SW 247 0 min 0,0 UV-I 0 W/m 8,3 C 11,2 C 11,3 km/h (2 Bft)
12.05.2022 04:09 12,2 C 11,1 C 77 % 1015,5 hPa 0,0 l/m 9,7 km/h (2 Bft) W 270 0 min 0,0 UV-I 0 W/m 8,3 C 10,2 C 12,9 km/h (3 Bft)
12.05.2022 04:10 12,2 C 11,7 C 77 % 1015,5 hPa 0,0 l/m 6,4 km/h (2 Bft) W 270 0 min 0,0 UV-I 0 W/m 8,3 C 12,2 C 11,3 km/h (2 Bft)
12.05.2022 04:11 12,2 C 11,7 C 77 % 1015,5 hPa 0,0 l/m 8,0 km/h (2 Bft) W-SW 247 0 min 0,0 UV-I 0 W/m 8,3 C 11,2 C 14,5 km/h (3 Bft)
12.05.2022 04:12 12,2 C 11,7 C 77 % 1015,6 hPa 0,0 l/m 6,4 km/h (2 Bft) W 270 0 min 0,0 UV-I 0 W/m 8,3 C 12,2 C 9,7 km/h (2 Bft)
12.05.2022 04:13 12,2 C 11,7 C 77 % 1015,6 hPa 0,0 l/m 6,4 km/h (2 Bft) W 270 0 min 0,0 UV-I 0 W/m 8,3 C 12,2 C 9,7 km/h (2 Bft)
12.05.2022 04:14 12,2 C 11,7 C 77 % 1015,6 hPa 0,0 l/m 4,8 km/h (1 Bft) SW 225 0 min 0,0 UV-I 0 W/m 8,3 C 12,2 C 6,4 km/h (2 Bft)
12.05.2022 04:15 12,2 C 11,7 C 77 % 1015,6 hPa 0,0 l/m 3,2 km/h (1 Bft) W-SW 247 0 min 0,0 UV-I 0 W/m 8,3 C 12,2 C 6,4 km/h (2 Bft)
12.05.2022 04:16 12,2 C 11,7 C 77 % 1015,6 hPa 0,0 l/m 4,8 km/h (1 Bft) W-SW 247 0 min 0,0 UV-I 0 W/m 8,3 C 12,2 C 8,0 km/h (2 Bft)
12.05.2022 04:17 12,2 C 11,7 C 78 % 1015,6 hPa 0,0 l/m 4,8 km/h (1 Bft) W-SW 247 0 min 0,0 UV-I 0 W/m 8,5 C 12,2 C 8,0 km/h (2 Bft)
12.05.2022 04:18 12,2 C 11,7 C 78 % 1015,7 hPa 0,0 l/m 8,0 km/h (2 Bft) W-SW 247 0 min 0,0 UV-I 0 W/m 8,5 C 11,2 C 12,9 km/h (3 Bft)
12.05.2022 04:19 12,1 C 11,7 C 78 % 1015,7 hPa 0,0 l/m 8,0 km/h (2 Bft) W 270 0 min 0,0 UV-I 0 W/m 8,4 C 11,1 C 11,3 km/h (2 Bft)
12.05.2022 04:20 12,2 C 11,7 C 78 % 1015,7 hPa 0,0 l/m 6,4 km/h (2 Bft) W 270 0 min 0,0 UV-I 0 W/m 8,5 C 12,2 C 9,7 km/h (2 Bft)
12.05.2022 04:21 12,1 C 11,7 C 78 % 1015,7 hPa 0,0 l/m 4,8 km/h (1 Bft) W 270 0 min 0,0 UV-I 0 W/m 8,4 C 12,1 C 6,4 km/h (2 Bft)
12.05.2022 04:22 12,1 C 11,7 C 78 % 1015,8 hPa 0,0 l/m 8,0 km/h (2 Bft) W-SW 247 0 min 0,0 UV-I 0 W/m 8,4 C 11,1 C 11,3 km/h (2 Bft)
12.05.2022 04:23 12,1 C 11,7 C 78 % 1015,6 hPa 0,0 l/m 4,8 km/h (1 Bft) W-SW 247 0 min 0,0 UV-I 0 W/m 8,4 C 12,1 C 8,0 km/h (2 Bft)
12.05.2022 04:24 12,1 C 11,7 C 78 % 1015,7 hPa 0,0 l/m 8,0 km/h (2 Bft) SW 225 0 min 0,0 UV-I 0 W/m 8,4 C 11,1 C 12,9 km/h (3 Bft)
12.05.2022 04:25 12,1 C 11,7 C 78 % 1015,7 hPa 0,0 l/m 8,0 km/h (2 Bft) SW 225 0 min 0,0 UV-I 0 W/m 8,4 C 11,1 C 14,5 km/h (3 Bft)
12.05.2022 04:26 12,1 C 11,1 C 78 % 1015,7 hPa 0,0 l/m 11,3 km/h (2 Bft) W-SW 247 0 min 0,0 UV-I 0 W/m 8,4 C 9,3 C 17,7 km/h (3 Bft)
12.05.2022 04:27 12,1 C 11,1 C 78 % 1015,7 hPa 0,0 l/m 11,3 km/h (2 Bft) W-SW 247 0 min 0,0 UV-I 0 W/m 8,4 C 9,3 C 14,5 km/h (3 Bft)
12.05.2022 04:28 12,1 C 11,1 C 78 % 1015,9 hPa 0,0 l/m 9,7 km/h (2 Bft) W 270 0 min 0,0 UV-I 0 W/m 8,4 C 10,1 C 14,5 km/h (3 Bft)
12.05.2022 04:29 12,0 C 11,1 C 79 % 1015,7 hPa 0,0 l/m 16,1 km/h (3 Bft) W 270 0 min 0,0 UV-I 0 W/m 8,5 C 7,1 C 20,9 km/h (4 Bft)
12.05.2022 04:30 12,0 C 11,1 C 79 % 1015,7 hPa 0,0 l/m 16,1 km/h (3 Bft) W 270 0 min 0,0 UV-I 0 W/m 8,5 C 7,1 C 22,5 km/h (4 Bft)
12.05.2022 04:31 11,9 C 11,1 C 78 % 1015,7 hPa 0,0 l/m 17,7 km/h (3 Bft) W 270 0 min 0,0 UV-I 0 W/m 8,2 C 6,5 C 22,5 km/h (4 Bft)
12.05.2022 04:32 11,9 C 11,1 C 78 % 1015,7 hPa 0,0 l/m 16,1 km/h (3 Bft) W 270 0 min 0,0 UV-I 0 W/m 8,2 C 7,0 C 20,9 km/h (4 Bft)
12.05.2022 04:33 11,9 C 11,1 C 79 % 1015,8 hPa 0,0 l/m 9,7 km/h (2 Bft) W 270 0 min 0,0 UV-I 0 W/m 8,4 C 9,9 C 16,1 km/h (3 Bft)
12.05.2022 04:34 11,8 C 11,1 C 79 % 1015,8 hPa 0,0 l/m 12,9 km/h (3 Bft) W-SW 247 0 min 0,0 UV-I 0 W/m 8,3 C 8,2 C 17,7 km/h (3 Bft)
12.05.2022 04:35 11,8 C 11,1 C 79 % 1015,9 hPa 0,0 l/m 9,7 km/h (2 Bft) W-SW 247 0 min 0,0 UV-I 0 W/m 8,3 C 9,7 C 14,5 km/h (3 Bft)
12.05.2022 04:36 11,8 C 11,1 C 79 % 1015,8 hPa 0,0 l/m 6,4 km/h (2 Bft) W-SW 247 0 min 0,0 UV-I 0 W/m 8,3 C 11,8 C 9,7 km/h (2 Bft)
12.05.2022 04:37 11,8 C 10,6 C 79 % 1015,9 hPa 0,0 l/m 6,4 km/h (2 Bft) W-SW 247 0 min 0,0 UV-I 0 W/m 8,3 C 11,8 C 11,3 km/h (2 Bft)
12.05.2022 04:38 11,7 C 10,6 C 79 % 1015,9 hPa 0,0 l/m 11,3 km/h (2 Bft) W 270 0 min 0,0 UV-I 0 W/m 8,2 C 8,8 C 16,1 km/h (3 Bft)
12.05.2022 04:39 11,7 C 10,6 C 79 % 1015,9 hPa 0,0 l/m 9,7 km/h (2 Bft) W 270 0 min 0,0 UV-I 0 W/m 8,2 C 9,6 C 14,5 km/h (3 Bft)
12.05.2022 04:40 11,7 C 10,6 C 79 % 1015,9 hPa 0,0 l/m 8,0 km/h (2 Bft) W 270 0 min 0,0 UV-I 0 W/m 8,2 C 10,6 C 14,5 km/h (3 Bft)
12.05.2022 04:41 11,7 C 10,6 C 79 % 1015,9 hPa 0,0 l/m 9,7 km/h (2 Bft) W 270 0 min 0,0 UV-I 0 W/m 8,2 C 9,6 C 14,5 km/h (3 Bft)
12.05.2022 04:42 11,6 C 10,6 C 79 % 1015,9 hPa 0,0 l/m 12,9 km/h (3 Bft) W 270 0 min 0,0 UV-I 0 W/m 8,1 C 7,9 C 19,3 km/h (3 Bft)
12.05.2022 04:43 11,6 C 10,6 C 79 % 1015,9 hPa 0,0 l/m 12,9 km/h (3 Bft) W 270 0 min 0,0 UV-I 0 W/m 8,1 C 7,9 C 19,3 km/h (3 Bft)
12.05.2022 04:44 11,6 C 10,6 C 79 % 1015,9 hPa 0,0 l/m 12,9 km/h (3 Bft) W 270 0 min 0,0 UV-I 0 W/m 8,1 C 7,9 C 16,1 km/h (3 Bft)
12.05.2022 04:45 11,5 C 10,6 C 79 % 1016,0 hPa 0,0 l/m 12,9 km/h (3 Bft) W-SW 247 0 min 0,0 UV-I 0 W/m 8,0 C 7,8 C 17,7 km/h (3 Bft)
12.05.2022 04:46 11,5 C 10,6 C 80 % 1016,0 hPa 0,0 l/m 11,3 km/h (2 Bft) W 270 0 min 0,0 UV-I 0 W/m 8,2 C 8,6 C 12,9 km/h (3 Bft)
12.05.2022 04:47 11,5 C 10,6 C 80 % 1016,0 hPa 0,0 l/m 11,3 km/h (2 Bft) W-SW 247 0 min 0,0 UV-I 0 W/m 8,2 C 8,6 C 16,1 km/h (3 Bft)
12.05.2022 04:48 11,4 C 10,0 C 80 % 1016,0 hPa 0,0 l/m 12,9 km/h (3 Bft) W 270 0 min 0,0 UV-I 0 W/m 8,1 C 7,7 C 17,7 km/h (3 Bft)
12.05.2022 04:49 11,4 C 10,0 C 80 % 1016,0 hPa 0,0 l/m 14,5 km/h (3 Bft) W 270 0 min 0,0 UV-I 0 W/m 8,1 C 7,0 C 17,7 km/h (3 Bft)
12.05.2022 04:50 11,4 C 10,0 C 80 % 1015,9 hPa 0,0 l/m 8,0 km/h (2 Bft) W 270 0 min 0,0 UV-I 0 W/m 8,1 C 10,3 C 12,9 km/h (3 Bft)
12.05.2022 04:51 11,3 C 10,0 C 80 % 1016,1 hPa 0,0 l/m 8,0 km/h (2 Bft) W 270 0 min 0,0 UV-I 0 W/m 8,0 C 10,2 C 12,9 km/h (3 Bft)
12.05.2022 04:52 11,3 C 10,0 C 80 % 1015,9 hPa 0,0 l/m 11,3 km/h (2 Bft) W 270 0 min 0,0 UV-I 0 W/m 8,0 C 8,4 C 16,1 km/h (3 Bft)
12.05.2022 04:53 11,3 C 10,0 C 80 % 1015,9 hPa 0,0 l/m 12,9 km/h (3 Bft) W 270 0 min 0,0 UV-I 0 W/m 8,0 C 7,6 C 20,9 km/h (4 Bft)
12.05.2022 04:54 11,2 C 10,0 C 80 % 1016,1 hPa 0,0 l/m 8,0 km/h (2 Bft) W 270 0 min 0,0 UV-I 0 W/m 7,9 C 10,1 C 17,7 km/h (3 Bft)
12.05.2022 04:55 11,2 C 10,0 C 80 % 1016,1 hPa 0,0 l/m 8,0 km/h (2 Bft) W 270 0 min 0,0 UV-I 0 W/m 7,9 C 10,1 C 14,5 km/h (3 Bft)
12.05.2022 04:56 11,2 C 10,0 C 80 % 1016,1 hPa 0,0 l/m 8,0 km/h (2 Bft) W 270 0 min 0,0 UV-I 0 W/m 7,9 C 10,1 C 12,9 km/h (3 Bft)
12.05.2022 04:57 11,1 C 9,4 C 80 % 1016,1 hPa 0,0 l/m 11,3 km/h (2 Bft) W-SW 247 0 min 0,0 UV-I 0 W/m 7,8 C 8,1 C 16,1 km/h (3 Bft)
12.05.2022 04:58 11,0 C 9,4 C 80 % 1016,2 hPa 0,0 l/m 9,7 km/h (2 Bft) W 270 0 min 0,0 UV-I 0 W/m 7,7 C 8,9 C 11,3 km/h (2 Bft)
12.05.2022 04:59 10,9 C 9,4 C 80 % 1016,1 hPa 0,0 l/m 9,7 km/h (2 Bft) W 270 0 min 0,0 UV-I 0 W/m 7,6 C 8,8 C 14,5 km/h (3 Bft)
12.05.2022 05:00 10,9 C 9,4 C 80 % 1016,2 hPa 0,0 l/m 14,5 km/h (3 Bft) W-SW 247 0 min 0,0 UV-I 0 W/m 7,6 C 6,4 C 17,7 km/h (3 Bft)
12.05.2022 05:01 10,9 C 9,4 C 80 % 1016,2 hPa 0,0 l/m 12,9 km/h (3 Bft) W 270 0 min 0,0 UV-I 0 W/m 7,6 C 7,1 C 17,7 km/h (3 Bft)
12.05.2022 05:02 10,9 C 9,4 C 81 % 1016,2 hPa 0,0 l/m 11,3 km/h (2 Bft) W-SW 247 0 min 0,0 UV-I 0 W/m 7,8 C 7,9 C 14,5 km/h (3 Bft)
12.05.2022 05:03 10,8 C 9,4 C 81 % 1016,2 hPa 0,0 l/m 6,4 km/h (2 Bft) W 270 0 min 0,0 UV-I 0 W/m 7,7 C 10,8 C 11,3 km/h (2 Bft)
12.05.2022 05:04 10,8 C 9,4 C 81 % 1016,2 hPa 0,0 l/m 6,4 km/h (2 Bft) W-SW 247 0 min 0,0 UV-I 0 W/m 7,7 C 10,8 C 12,9 km/h (3 Bft)
12.05.2022 05:05 10,8 C 9,4 C 81 % 1016,3 hPa 0,0 l/m 8,0 km/h (2 Bft) SW 225 0 min 0,0 UV-I 0 W/m 7,7 C 9,7 C 11,3 km/h (2 Bft)
12.05.2022 05:06 10,8 C 8,9 C 81 % 1016,3 hPa 0,0 l/m 6,4 km/h (2 Bft) SW 225 0 min 0,0 UV-I 0 W/m 7,7 C 10,8 C 8,0 km/h (2 Bft)
12.05.2022 05:07 10,8 C 8,9 C 81 % 1016,2 hPa 0,0 l/m 6,4 km/h (2 Bft) W-SW 247 0 min 0,0 UV-I 0 W/m 7,7 C 10,8 C 9,7 km/h (2 Bft)
12.05.2022 05:08 10,7 C 8,9 C 81 % 1016,2 hPa 0,0 l/m 4,8 km/h (1 Bft) SW 225 0 min 0,0 UV-I 0 W/m 7,6 C 10,7 C 8,0 km/h (2 Bft)
12.05.2022 05:09 10,6 C 8,9 C 81 % 1016,2 hPa 0,0 l/m 4,8 km/h (1 Bft) W 270 0 min 0,0 UV-I 0 W/m 7,5 C 10,6 C 9,7 km/h (2 Bft)
12.05.2022 05:10 10,6 C 8,9 C 81 % 1016,3 hPa 0,0 l/m 6,4 km/h (2 Bft) SW 225 0 min 0,0 UV-I 0 W/m 7,5 C 10,6 C 12,9 km/h (3 Bft)
12.05.2022 05:11 10,6 C 8,9 C 81 % 1016,2 hPa 0,0 l/m 6,4 km/h (2 Bft) W 270 0 min 0,0 UV-I 0 W/m 7,5 C 10,6 C 12,9 km/h (3 Bft)
12.05.2022 05:12 10,6 C 8,9 C 81 % 1016,3 hPa 0,0 l/m 6,4 km/h (2 Bft) SW 225 0 min 0,0 UV-I 0 W/m 7,5 C 10,6 C 11,3 km/h (2 Bft)
12.05.2022 05:13 10,6 C 8,9 C 81 % 1016,3 hPa 0,0 l/m 8,0 km/h (2 Bft) W-SW 247 0 min 0,0 UV-I 0 W/m 7,5 C 9,5 C 14,5 km/h (3 Bft)
12.05.2022 05:14 10,6 C 8,9 C 81 % 1016,4 hPa 0,0 l/m 4,8 km/h (1 Bft) W-SW 247 0 min 0,0 UV-I 0 W/m 7,5 C 10,6 C 8,0 km/h (2 Bft)
12.05.2022 05:15 10,5 C 8,9 C 81 % 1016,3 hPa 0,0 l/m 6,4 km/h (2 Bft) W-SW 247 0 min 0,0 UV-I 0 W/m 7,4 C 10,5 C 11,3 km/h (2 Bft)
12.05.2022 05:16 10,5 C 8,9 C 81 % 1016,3 hPa 0,0 l/m 4,8 km/h (1 Bft) SW 225 0 min 0,0 UV-I 0 W/m 7,4 C 10,5 C 6,4 km/h (2 Bft)
12.05.2022 05:17 10,4 C 8,9 C 82 % 1016,4 hPa 0,0 l/m 6,4 km/h (2 Bft) W-SW 247 0 min 0,0 UV-I 0 W/m 7,5 C 10,4 C 8,0 km/h (2 Bft)
12.05.2022 05:18 10,4 C 8,3 C 82 % 1016,3 hPa 0,0 l/m 4,8 km/h (1 Bft) SW 225 0 min 0,0 UV-I 0 W/m 7,5 C 10,4 C 6,4 km/h (2 Bft)
12.05.2022 05:19 10,4 C 8,3 C 82 % 1016,4 hPa 0,0 l/m 4,8 km/h (1 Bft) W-SW 247 0 min 0,0 UV-I 0 W/m 7,5 C 10,4 C 8,0 km/h (2 Bft)
12.05.2022 05:20 10,3 C 8,3 C 81 % 1016,4 hPa 0,0 l/m 3,2 km/h (1 Bft) W-SW 247 0 min 0,0 UV-I 0 W/m 7,2 C 10,3 C 4,8 km/h (1 Bft)
12.05.2022 05:21 10,3 C 8,3 C 82 % 1016,5 hPa 0,0 l/m 4,8 km/h (1 Bft) W-SW 247 0 min 0,0 UV-I 0 W/m 7,4 C 10,3 C 6,4 km/h (2 Bft)
12.05.2022 05:22 10,3 C 8,3 C 82 % 1016,4 hPa 0,0 l/m 3,2 km/h (1 Bft) W-SW 247 0 min 0,0 UV-I 0 W/m 7,4 C 10,3 C 4,8 km/h (1 Bft)
12.05.2022 05:23 10,2 C 7,8 C 82 % 1016,4 hPa 0,0 l/m 1,6 km/h (1 Bft) W-SW 247 0 min 0,0 UV-I 0 W/m 7,3 C 10,2 C 3,2 km/h (1 Bft)
12.05.2022 05:24 10,2 C 7,8 C 82 % 1016,4 hPa 0,0 l/m 3,2 km/h (1 Bft) W-SW 247 0 min 0,0 UV-I 0 W/m 7,3 C 10,2 C 3,2 km/h (1 Bft)
12.05.2022 05:25 10,2 C 7,8 C 82 % 1016,3 hPa 0,0 l/m 3,2 km/h (1 Bft) W-SW 247 0 min 0,0 UV-I 0 W/m 7,3 C 10,2 C 8,0 km/h (2 Bft)
12.05.2022 05:26 10,1 C 7,8 C 82 % 1016,4 hPa 0,0 l/m 6,4 km/h (2 Bft) W-SW 247 0 min 0,0 UV-I 0 W/m 7,2 C 10,1 C 6,4 km/h (2 Bft)
12.05.2022 05:27 10,1 C 7,8 C 82 % 1016,5 hPa 0,0 l/m 3,2 km/h (1 Bft) W-SW 247 0 min 0,0 UV-I 0 W/m 7,2 C 10,1 C 4,8 km/h (1 Bft)
12.05.2022 05:28 10,1 C 7,8 C 82 % 1016,4 hPa 0,0 l/m 3,2 km/h (1 Bft) W-SW 247 0 min 0,0 UV-I 0 W/m 7,2 C 10,1 C 8,0 km/h (2 Bft)
12.05.2022 05:29 10,1 C 7,8 C 82 % 1016,4 hPa 0,0 l/m 4,8 km/h (1 Bft) S-SW 202 0 min 0,0 UV-I 0 W/m 7,2 C 10,1 C 8,0 km/h (2 Bft)
12.05.2022 05:30 10,0 C 7,8 C 82 % 1016,4 hPa 0,0 l/m 1,6 km/h (1 Bft) S-SW 202 0 min 0,0 UV-I 0 W/m 7,1 C 10,0 C 3,2 km/h (1 Bft)
12.05.2022 05:31 10,0 C 7,8 C 82 % 1016,5 hPa 0,0 l/m 3,2 km/h (1 Bft) S-SW 202 0 min 0,0 UV-I 0 W/m 7,1 C 10,0 C 6,4 km/h (2 Bft)
12.05.2022 05:32 9,9 C 7,8 C 82 % 1016,5 hPa 0,0 l/m 4,8 km/h (1 Bft) SW 225 0 min 0,0 UV-I 0 W/m 7,0 C 9,9 C 8,0 km/h (2 Bft)
12.05.2022 05:33 9,9 C 7,8 C 82 % 1016,5 hPa 0,0 l/m 3,2 km/h (1 Bft) SW 225 0 min 0,0 UV-I 0 W/m 7,0 C 9,9 C 4,8 km/h (1 Bft)
12.05.2022 05:34 9,9 C 7,8 C 83 % 1016,4 hPa 0,0 l/m 3,2 km/h (1 Bft) SW 225 0 min 0,0 UV-I 0 W/m 7,2 C 9,9 C 4,8 km/h (1 Bft)
12.05.2022 05:35 9,8 C 7,2 C 83 % 1016,5 hPa 0,0 l/m 1,6 km/h (1 Bft) SW 225 0 min 0,0 UV-I 0 W/m 7,1 C 9,8 C 3,2 km/h (1 Bft)
12.05.2022 05:36 9,8 C 7,2 C 83 % 1016,6 hPa 0,0 l/m 1,6 km/h (1 Bft) SW 225 0 min 0,0 UV-I 0 W/m 7,1 C 9,8 C 3,2 km/h (1 Bft)
12.05.2022 05:37 9,8 C 6,7 C 83 % 1016,4 hPa 0,0 l/m 1,6 km/h (1 Bft) SW 225 0 min 0,0 UV-I 0 W/m 7,1 C 9,8 C 1,6 km/h (1 Bft)
12.05.2022 05:38 9,7 C 6,7 C 83 % 1016,5 hPa 0,0 l/m 0,0 km/h (0 Bft) SW 225 0 min 0,0 UV-I 0 W/m 7,0 C 9,7 C 1,6 km/h (1 Bft)
12.05.2022 05:39 9,7 C 6,7 C 83 % 1016,6 hPa 0,0 l/m 0,0 km/h (0 Bft) SW 225 0 min 0,0 UV-I 0 W/m 7,0 C 9,7 C 3,2 km/h (1 Bft)
12.05.2022 05:40 9,7 C 6,7 C 83 % 1016,6 hPa 0,0 l/m 1,6 km/h (1 Bft) SW 225 0 min 0,0 UV-I 0 W/m 7,0 C 9,7 C 1,6 km/h (1 Bft)
12.05.2022 05:41 9,6 C 6,7 C 83 % 1016,5 hPa 0,0 l/m 1,6 km/h (1 Bft) SW 225 0 min 0,0 UV-I 0 W/m 6,9 C 9,6 C 1,6 km/h (1 Bft)
12.05.2022 05:42 9,5 C 6,1 C 83 % 1016,6 hPa 0,0 l/m 0,0 km/h (0 Bft) SW 225 0 min 0,0 UV-I 0 W/m 6,8 C 9,5 C 1,6 km/h (1 Bft)
12.05.2022 05:43 9,4 C 6,1 C 83 % 1016,6 hPa 0,0 l/m 3,2 km/h (1 Bft) SW 225 0 min 0,0 UV-I 0 W/m 6,7 C 9,4 C 4,8 km/h (1 Bft)
12.05.2022 05:44 9,4 C 6,1 C 83 % 1016,6 hPa 0,0 l/m 1,6 km/h (1 Bft) SW 225 0 min 0,0 UV-I 0 W/m 6,7 C 9,4 C 3,2 km/h (1 Bft)
12.05.2022 05:45 9,3 C 6,1 C 84 % 1016,6 hPa 0,0 l/m 1,6 km/h (1 Bft) SW 225 0 min 0,0 UV-I 0 W/m 6,7 C 9,3 C 3,2 km/h (1 Bft)
12.05.2022 05:46 9,3 C 6,1 C 84 % 1016,7 hPa 0,0 l/m 3,2 km/h (1 Bft) SW 225 0 min 0,0 UV-I 0 W/m 6,7 C 9,3 C 4,8 km/h (1 Bft)
12.05.2022 05:47 9,2 C 6,1 C 84 % 1016,7 hPa 0,0 l/m 3,2 km/h (1 Bft) SW 225 0 min 0,0 UV-I 0 W/m 6,6 C 9,2 C 4,8 km/h (1 Bft)
12.05.2022 05:48 9,2 C 6,1 C 84 % 1016,7 hPa 0,0 l/m 1,6 km/h (1 Bft) SW 225 0 min 0,0 UV-I 0 W/m 6,6 C 9,2 C 4,8 km/h (1 Bft)
12.05.2022 05:49 9,1 C 6,1 C 84 % 1016,7 hPa 0,0 l/m 3,2 km/h (1 Bft) SW 225 0 min 0,0 UV-I 0 W/m 6,5 C 9,1 C 3,2 km/h (1 Bft)
12.05.2022 05:50 9,1 C 6,1 C 84 % 1016,7 hPa 0,0 l/m 3,2 km/h (1 Bft) SW 225 0 min 0,0 UV-I 0 W/m 6,5 C 9,1 C 3,2 km/h (1 Bft)
12.05.2022 05:51 9,2 C 6,1 C 85 % 1016,7 hPa 0,0 l/m 1,6 km/h (1 Bft) SW 225 0 min 0,0 UV-I 0 W/m 6,8 C 9,2 C 3,2 km/h (1 Bft)
12.05.2022 05:52 9,2 C 6,1 C 85 % 1016,7 hPa 0,0 l/m 3,2 km/h (1 Bft) SW 225 0 min 0,0 UV-I 5 W/m 6,8 C 9,2 C 3,2 km/h (1 Bft)
12.05.2022 05:53 9,2 C 6,1 C 85 % 1016,8 hPa 0,0 l/m 1,6 km/h (1 Bft) SW 225 0 min 0,0 UV-I 5 W/m 6,8 C 9,2 C 1,6 km/h (1 Bft)
12.05.2022 05:54 9,1 C 6,1 C 85 % 1016,7 hPa 0,0 l/m 1,6 km/h (1 Bft) SW 225 0 min 0,0 UV-I 5 W/m 6,7 C 9,1 C 3,2 km/h (1 Bft)
12.05.2022 05:55 9,1 C 5,6 C 85 % 1016,9 hPa 0,0 l/m 1,6 km/h (1 Bft) SW 225 0 min 0,0 UV-I 5 W/m 6,7 C 9,1 C 1,6 km/h (1 Bft)
12.05.2022 05:56 9,0 C 5,6 C 85 % 1016,8 hPa 0,0 l/m 1,6 km/h (1 Bft) SW 225 0 min 0,0 UV-I 5 W/m 6,6 C 9,0 C 3,2 km/h (1 Bft)
12.05.2022 05:57 9,0 C 6,1 C 85 % 1016,8 hPa 0,0 l/m 1,6 km/h (1 Bft) SW 225 0 min 0,0 UV-I 5 W/m 6,6 C 9,0 C 3,2 km/h (1 Bft)
12.05.2022 05:58 8,9 C 6,1 C 85 % 1016,9 hPa 0,0 l/m 1,6 km/h (1 Bft) SW 225 0 min 0,0 UV-I 5 W/m 6,5 C 8,9 C 3,2 km/h (1 Bft)
12.05.2022 05:59 8,9 C 6,1 C 85 % 1016,8 hPa 0,0 l/m 1,6 km/h (1 Bft) SW 225 0 min 0,0 UV-I 7 W/m 6,5 C 8,9 C 3,2 km/h (1 Bft)
12.05.2022 06:00 8,9 C 6,1 C 85 % 1016,9 hPa 0,0 l/m 1,6 km/h (1 Bft) SW 225 0 min 0,0 UV-I 7 W/m 6,5 C 8,9 C 4,8 km/h (1 Bft)
12.05.2022 06:01 8,9 C 6,1 C 85 % 1016,9 hPa 0,0 l/m 1,6 km/h (1 Bft) SW 225 0 min 0,0 UV-I 7 W/m 6,5 C 8,9 C 3,2 km/h (1 Bft)
12.05.2022 06:02 8,9 C 5,6 C 85 % 1017,0 hPa 0,0 l/m 0,0 km/h (0 Bft) SW 225 0 min 0,0 UV-I 7 W/m 6,5 C 8,9 C 1,6 km/h (1 Bft)
12.05.2022 06:03 8,8 C 5,6 C 86 % 1016,9 hPa 0,0 l/m 1,6 km/h (1 Bft) SW 225 0 min 0,0 UV-I 7 W/m 6,6 C 8,8 C 3,2 km/h (1 Bft)
12.05.2022 06:04 8,8 C 5,6 C 86 % 1016,8 hPa 0,0 l/m 3,2 km/h (1 Bft) SW 225 0 min 0,0 UV-I 7 W/m 6,6 C 8,8 C 4,8 km/h (1 Bft)
12.05.2022 06:05 8,8 C 5,6 C 86 % 1017,0 hPa 0,0 l/m 1,6 km/h (1 Bft) SW 225 0 min 0,0 UV-I 9 W/m 6,6 C 8,8 C 3,2 km/h (1 Bft)
12.05.2022 06:06 8,7 C 5,6 C 85 % 1016,9 hPa 0,0 l/m 1,6 km/h (1 Bft) SW 225 0 min 0,0 UV-I 9 W/m 6,3 C 8,7 C 3,2 km/h (1 Bft)
12.05.2022 06:07 8,6 C 5,6 C 85 % 1016,9 hPa 0,0 l/m 1,6 km/h (1 Bft) SW 225 0 min 0,0 UV-I 9 W/m 6,2 C 8,6 C 3,2 km/h (1 Bft)
12.05.2022 06:08 8,6 C 5,6 C 85 % 1017,0 hPa 0,0 l/m 1,6 km/h (1 Bft) SW 225 0 min 0,0 UV-I 11 W/m 6,2 C 8,6 C 3,2 km/h (1 Bft)
12.05.2022 06:09 8,5 C 5,6 C 86 % 1017,0 hPa 0,0 l/m 1,6 km/h (1 Bft) SW 225 0 min 0,0 UV-I 11 W/m 6,3 C 8,5 C 3,2 km/h (1 Bft)
12.05.2022 06:10 8,5 C 5,6 C 86 % 1017,0 hPa 0,0 l/m 3,2 km/h (1 Bft) SW 225 0 min 0,0 UV-I 11 W/m 6,3 C 8,5 C 3,2 km/h (1 Bft)
12.05.2022 06:11 8,4 C 5,6 C 86 % 1017,1 hPa 0,0 l/m 3,2 km/h (1 Bft) SW 225 0 min 0,0 UV-I 12 W/m 6,2 C 8,4 C 4,8 km/h (1 Bft)
12.05.2022 06:12 8,5 C 5,6 C 86 % 1017,0 hPa 0,0 l/m 4,8 km/h (1 Bft) SW 225 0 min 0,0 UV-I 12 W/m 6,3 C 8,5 C 6,4 km/h (2 Bft)
12.05.2022 06:13 8,5 C 6,1 C 86 % 1017,1 hPa 0,0 l/m 4,8 km/h (1 Bft) SW 225 0 min 0,0 UV-I 14 W/m 6,3 C 8,5 C 6,4 km/h (2 Bft)
12.05.2022 06:14 8,6 C 6,1 C 87 % 1017,1 hPa 0,0 l/m 3,2 km/h (1 Bft) SW 225 0 min 0,0 UV-I 14 W/m 6,6 C 8,6 C 6,4 km/h (2 Bft)
12.05.2022 06:15 8,6 C 6,1 C 86 % 1017,1 hPa 0,0 l/m 3,2 km/h (1 Bft) SW 225 0 min 0,0 UV-I 12 W/m 6,4 C 8,6 C 4,8 km/h (1 Bft)
12.05.2022 06:16 8,6 C 6,1 C 86 % 1017,0 hPa 0,0 l/m 4,8 km/h (1 Bft) SW 225 0 min 0,0 UV-I 12 W/m 6,4 C 8,6 C 6,4 km/h (2 Bft)
12.05.2022 06:17 8,6 C 6,1 C 87 % 1017,1 hPa 0,0 l/m 3,2 km/h (1 Bft) SW 225 0 min 0,0 UV-I 12 W/m 6,6 C 8,6 C 4,8 km/h (1 Bft)
12.05.2022 06:18 8,6 C 6,1 C 87 % 1017,1 hPa 0,0 l/m 3,2 km/h (1 Bft) SW 225 0 min 0,0 UV-I 12 W/m 6,6 C 8,6 C 4,8 km/h (1 Bft)
12.05.2022 06:19 8,7 C 6,7 C 87 % 1017,2 hPa 0,0 l/m 3,2 km/h (1 Bft) SW 225 0 min 0,0 UV-I 14 W/m 6,7 C 8,7 C 6,4 km/h (2 Bft)
12.05.2022 06:20 8,7 C 6,7 C 87 % 1017,1 hPa 0,0 l/m 4,8 km/h (1 Bft) SW 225 0 min 0,0 UV-I 14 W/m 6,7 C 8,7 C 6,4 km/h (2 Bft)
12.05.2022 06:21 8,7 C 6,7 C 87 % 1017,1 hPa 0,0 l/m 3,2 km/h (1 Bft) SW 225 0 min 0,0 UV-I 14 W/m 6,7 C 8,7 C 4,8 km/h (1 Bft)
12.05.2022 06:22 8,7 C 6,7 C 87 % 1017,2 hPa 0,0 l/m 3,2 km/h (1 Bft) SW 225 0 min 0,0 UV-I 14 W/m 6,7 C 8,7 C 4,8 km/h (1 Bft)
12.05.2022 06:23 8,8 C 6,7 C 87 % 1017,1 hPa 0,0 l/m 4,8 km/h (1 Bft) SW 225 0 min 0,0 UV-I 14 W/m 6,8 C 8,8 C 8,0 km/h (2 Bft)
12.05.2022 06:24 8,8 C 6,7 C 87 % 1017,1 hPa 0,0 l/m 3,2 km/h (1 Bft) SW 225 0 min 0,0 UV-I 14 W/m 6,8 C 8,8 C 4,8 km/h (1 Bft)
12.05.2022 06:25 8,8 C 6,7 C 87 % 1017,1 hPa 0,0 l/m 3,2 km/h (1 Bft) SW 225 0 min 0,0 UV-I 16 W/m 6,8 C 8,8 C 4,8 km/h (1 Bft)
12.05.2022 06:26 8,8 C 6,7 C 87 % 1017,1 hPa 0,0 l/m 3,2 km/h (1 Bft) SW 225 0 min 0,0 UV-I 16 W/m 6,8 C 8,8 C 8,0 km/h (2 Bft)
12.05.2022 06:27 8,8 C 6,1 C 87 % 1017,2 hPa 0,0 l/m 3,2 km/h (1 Bft) SW 225 0 min 0,0 UV-I 16 W/m 6,8 C 8,8 C 4,8 km/h (1 Bft)
12.05.2022 06:28 8,8 C 6,1 C 87 % 1017,2 hPa 0,0 l/m 4,8 km/h (1 Bft) SW 225 0 min 0,0 UV-I 17 W/m 6,8 C 8,8 C 8,0 km/h (2 Bft)
12.05.2022 06:29 8,8 C 6,1 C 87 % 1017,3 hPa 0,0 l/m 3,2 km/h (1 Bft) SW 225 0 min 0,0 UV-I 18 W/m 6,8 C 8,8 C 4,8 km/h (1 Bft)
12.05.2022 06:30 8,8 C 6,1 C 87 % 1017,2 hPa 0,0 l/m 3,2 km/h (1 Bft) SW 225 0 min 0,0 UV-I 18 W/m 6,8 C 8,8 C 6,4 km/h (2 Bft)
12.05.2022 06:31 8,8 C 6,7 C 87 % 1017,4 hPa 0,0 l/m 4,8 km/h (1 Bft) SW 225 0 min 0,0 UV-I 18 W/m 6,8 C 8,8 C 8,0 km/h (2 Bft)
12.05.2022 06:32 8,8 C 6,7 C 87 % 1017,3 hPa 0,0 l/m 3,2 km/h (1 Bft) SW 225 0 min 0,0 UV-I 19 W/m 6,8 C 8,8 C 4,8 km/h (1 Bft)
12.05.2022 06:33 8,9 C 6,7 C 87 % 1017,3 hPa 0,0 l/m 3,2 km/h (1 Bft) SW 225 0 min 0,0 UV-I 19 W/m 6,9 C 8,9 C 4,8 km/h (1 Bft)
12.05.2022 06:34 8,9 C 6,1 C 87 % 1017,5 hPa 0,0 l/m 6,4 km/h (2 Bft) SW 225 0 min 0,0 UV-I 19 W/m 6,9 C 8,9 C 8,0 km/h (2 Bft)
12.05.2022 06:35 8,9 C 6,1 C 87 % 1017,4 hPa 0,0 l/m 3,2 km/h (1 Bft) W-SW 247 0 min 0,0 UV-I 21 W/m 6,9 C 8,9 C 4,8 km/h (1 Bft)
12.05.2022 06:36 8,8 C 6,1 C 87 % 1017,4 hPa 0,0 l/m 3,2 km/h (1 Bft) W-SW 247 0 min 0,0 UV-I 21 W/m 6,8 C 8,8 C 4,8 km/h (1 Bft)
12.05.2022 06:37 8,8 C 6,1 C 87 % 1017,5 hPa 0,0 l/m 3,2 km/h (1 Bft) W-SW 247 0 min 0,0 UV-I 21 W/m 6,8 C 8,8 C 4,8 km/h (1 Bft)
12.05.2022 06:38 8,8 C 6,1 C 87 % 1017,5 hPa 0,0 l/m 1,6 km/h (1 Bft) W-SW 247 0 min 0,0 UV-I 23 W/m 6,8 C 8,8 C 3,2 km/h (1 Bft)
12.05.2022 06:39 8,8 C 6,1 C 87 % 1017,5 hPa 0,0 l/m 3,2 km/h (1 Bft) W-SW 247 0 min 0,0 UV-I 26 W/m 6,8 C 8,8 C 4,8 km/h (1 Bft)
12.05.2022 06:40 8,8 C 6,1 C 87 % 1017,5 hPa 0,0 l/m 1,6 km/h (1 Bft) W-SW 247 0 min 0,0 UV-I 26 W/m 6,8 C 8,8 C 3,2 km/h (1 Bft)
12.05.2022 06:41 8,8 C 6,1 C 87 % 1017,4 hPa 0,0 l/m 1,6 km/h (1 Bft) W-SW 247 0 min 0,0 UV-I 33 W/m 6,8 C 8,8 C 3,2 km/h (1 Bft)
12.05.2022 06:42 8,7 C 6,1 C 87 % 1017,5 hPa 0,0 l/m 1,6 km/h (1 Bft) W-SW 247 0 min 0,0 UV-I 39 W/m 6,7 C 8,7 C 3,2 km/h (1 Bft)
12.05.2022 06:43 8,7 C 6,1 C 87 % 1017,5 hPa 0,0 l/m 1,6 km/h (1 Bft) W-SW 247 0 min 0,0 UV-I 39 W/m 6,7 C 8,7 C 3,2 km/h (1 Bft)
12.05.2022 06:44 8,7 C 6,1 C 87 % 1017,5 hPa 0,0 l/m 1,6 km/h (1 Bft) W-SW 247 0 min 0,0 UV-I 40 W/m 6,7 C 8,7 C 3,2 km/h (1 Bft)
12.05.2022 06:45 8,7 C 6,1 C 87 % 1017,6 hPa 0,0 l/m 1,6 km/h (1 Bft) W-SW 247 0 min 0,0 UV-I 42 W/m 6,7 C 8,7 C 3,2 km/h (1 Bft)
12.05.2022 06:46 8,7 C 6,1 C 87 % 1017,6 hPa 0,0 l/m 1,6 km/h (1 Bft) W-SW 247 0 min 0,0 UV-I 47 W/m 6,7 C 8,7 C 3,2 km/h (1 Bft)
12.05.2022 06:47 8,7 C 6,1 C 87 % 1017,6 hPa 0,0 l/m 1,6 km/h (1 Bft) W-SW 247 0 min 0,0 UV-I 51 W/m 6,7 C 8,7 C 3,2 km/h (1 Bft)
12.05.2022 06:48 8,8 C 6,7 C 87 % 1017,6 hPa 0,0 l/m 3,2 km/h (1 Bft) W-SW 247 0 min 0,0 UV-I 53 W/m 6,8 C 8,8 C 3,2 km/h (1 Bft)
12.05.2022 06:49 8,8 C 6,7 C 87 % 1017,6 hPa 0,0 l/m 3,2 km/h (1 Bft) W-SW 247 0 min 0,0 UV-I 54 W/m 6,8 C 8,8 C 4,8 km/h (1 Bft)
12.05.2022 06:50 8,8 C 6,7 C 87 % 1017,6 hPa 0,0 l/m 3,2 km/h (1 Bft) W-SW 247 0 min 0,0 UV-I 56 W/m 6,8 C 8,8 C 4,8 km/h (1 Bft)
12.05.2022 06:51 8,8 C 6,7 C 87 % 1017,8 hPa 0,0 l/m 3,2 km/h (1 Bft) W-SW 247 0 min 0,0 UV-I 58 W/m 6,8 C 8,8 C 4,8 km/h (1 Bft)
12.05.2022 06:52 8,9 C 6,7 C 88 % 1017,8 hPa 0,0 l/m 1,6 km/h (1 Bft) W-SW 247 0 min 0,0 UV-I 60 W/m 7,0 C 8,9 C 3,2 km/h (1 Bft)
12.05.2022 06:53 8,9 C 6,7 C 88 % 1017,8 hPa 0,0 l/m 1,6 km/h (1 Bft) W-SW 247 0 min 0,0 UV-I 60 W/m 7,0 C 8,9 C 3,2 km/h (1 Bft)
12.05.2022 06:54 9,0 C 6,7 C 88 % 1017,8 hPa 0,0 l/m 3,2 km/h (1 Bft) W-SW 247 0 min 0,0 UV-I 58 W/m 7,1 C 9,0 C 4,8 km/h (1 Bft)
12.05.2022 06:55 9,1 C 7,2 C 88 % 1017,8 hPa 0,0 l/m 3,2 km/h (1 Bft) W-SW 247 0 min 0,0 UV-I 60 W/m 7,2 C 9,1 C 4,8 km/h (1 Bft)
12.05.2022 06:56 9,1 C 7,2 C 88 % 1017,9 hPa 0,0 l/m 1,6 km/h (1 Bft) W-SW 247 0 min 0,0 UV-I 62 W/m 7,2 C 9,1 C 3,2 km/h (1 Bft)
12.05.2022 06:57 9,1 C 7,2 C 88 % 1017,8 hPa 0,0 l/m 3,2 km/h (1 Bft) W-SW 247 0 min 0,0 UV-I 62 W/m 7,2 C 9,1 C 4,8 km/h (1 Bft)
12.05.2022 06:58 9,2 C 7,2 C 88 % 1017,9 hPa 0,0 l/m 1,6 km/h (1 Bft) W-SW 247 0 min 0,0 UV-I 64 W/m 7,3 C 9,2 C 3,2 km/h (1 Bft)
12.05.2022 06:59 9,3 C 7,2 C 87 % 1017,9 hPa 0,0 l/m 1,6 km/h (1 Bft) W-SW 247 0 min 0,0 UV-I 67 W/m 7,2 C 9,3 C 3,2 km/h (1 Bft)
12.05.2022 07:00 9,3 C 7,2 C 88 % 1017,9 hPa 0,0 l/m 3,2 km/h (1 Bft) W-SW 247 0 min 0,0 UV-I 67 W/m 7,4 C 9,3 C 4,8 km/h (1 Bft)
12.05.2022 07:01 9,4 C 7,8 C 88 % 1017,9 hPa 0,0 l/m 3,2 km/h (1 Bft) W-SW 247 0 min 0,0 UV-I 72 W/m 7,5 C 9,4 C 4,8 km/h (1 Bft)
12.05.2022 07:02 9,5 C 7,8 C 88 % 1017,9 hPa 0,0 l/m 3,2 km/h (1 Bft) W-SW 247 0 min 0,0 UV-I 74 W/m 7,6 C 9,5 C 4,8 km/h (1 Bft)
12.05.2022 07:03 9,6 C 7,8 C 88 % 1017,8 hPa 0,0 l/m 3,2 km/h (1 Bft) W-SW 247 0 min 0,0 UV-I 79 W/m 7,7 C 9,6 C 6,4 km/h (2 Bft)
12.05.2022 07:04 9,7 C 8,3 C 88 % 1017,9 hPa 0,0 l/m 4,8 km/h (1 Bft) W-SW 247 0 min 0,0 UV-I 84 W/m 7,8 C 9,7 C 6,4 km/h (2 Bft)
12.05.2022 07:05 9,7 C 8,3 C 88 % 1017,9 hPa 0,0 l/m 3,2 km/h (1 Bft) W-SW 247 0 min 0,0 UV-I 86 W/m 7,8 C 9,7 C 3,2 km/h (1 Bft)
12.05.2022 07:06 9,8 C 8,3 C 88 % 1017,9 hPa 0,0 l/m 1,6 km/h (1 Bft) W-SW 247 0 min 0,0 UV-I 90 W/m 7,9 C 9,8 C 3,2 km/h (1 Bft)
12.05.2022 07:07 9,9 C 8,9 C 87 % 1017,9 hPa 0,0 l/m 4,8 km/h (1 Bft) W-SW 247 0 min 0,0 UV-I 91 W/m 7,8 C 9,9 C 6,4 km/h (2 Bft)
12.05.2022 07:08 9,9 C 8,9 C 87 % 1017,9 hPa 0,0 l/m 3,2 km/h (1 Bft) W-SW 247 0 min 0,0 UV-I 95 W/m 7,8 C 9,9 C 4,8 km/h (1 Bft)
12.05.2022 07:09 10,0 C 8,9 C 87 % 1017,9 hPa 0,0 l/m 3,2 km/h (1 Bft) W-SW 247 0 min 0,0 UV-I 98 W/m 7,9 C 10,0 C 8,0 km/h (2 Bft)
12.05.2022 07:10 10,1 C 8,9 C 87 % 1017,9 hPa 0,0 l/m 6,4 km/h (2 Bft) W-SW 247 0 min 0,0 UV-I 100 W/m 8,0 C 10,1 C 8,0 km/h (2 Bft)
12.05.2022 07:11 10,1 C 8,9 C 87 % 1017,9 hPa 0,0 l/m 3,2 km/h (1 Bft) W-SW 247 0 min 0,0 UV-I 104 W/m 8,0 C 10,1 C 4,8 km/h (1 Bft)
12.05.2022 07:12 10,1 C 8,9 C 87 % 1017,9 hPa 0,0 l/m 6,4 km/h (2 Bft) W-SW 247 0 min 0,0 UV-I 104 W/m 8,0 C 10,1 C 9,7 km/h (2 Bft)
12.05.2022 07:13 10,2 C 9,4 C 86 % 1017,9 hPa 0,0 l/m 8,0 km/h (2 Bft) W-SW 247 0 min 0,0 UV-I 105 W/m 8,0 C 9,1 C 11,3 km/h (2 Bft)
12.05.2022 07:14 10,2 C 9,4 C 87 % 1018,0 hPa 0,0 l/m 8,0 km/h (2 Bft) W-SW 247 0 min 0,0 UV-I 109 W/m 8,1 C 9,1 C 11,3 km/h (2 Bft)
12.05.2022 07:15 10,2 C 9,4 C 86 % 1017,9 hPa 0,0 l/m 6,4 km/h (2 Bft) SW 225 0 min 0,0 UV-I 115 W/m 8,0 C 10,2 C 8,0 km/h (2 Bft)
12.05.2022 07:16 10,3 C 9,4 C 86 % 1018,0 hPa 0,0 l/m 4,8 km/h (1 Bft) SW 225 0 min 0,5 UV-I 118 W/m 8,1 C 10,3 C 8,0 km/h (2 Bft)
12.05.2022 07:17 10,3 C 9,4 C 86 % 1018,0 hPa 0,0 l/m 6,4 km/h (2 Bft) W-SW 247 0 min 0,5 UV-I 120 W/m 8,1 C 10,3 C 8,0 km/h (2 Bft)
12.05.2022 07:18 10,3 C 9,4 C 86 % 1018,0 hPa 0,0 l/m 4,8 km/h (1 Bft) SW 225 0 min 0,5 UV-I 121 W/m 8,1 C 10,3 C 9,7 km/h (2 Bft)
12.05.2022 07:19 10,4 C 9,4 C 86 % 1018,0 hPa 0,0 l/m 6,4 km/h (2 Bft) W-SW 247 0 min 0,5 UV-I 123 W/m 8,2 C 10,4 C 9,7 km/h (2 Bft)
12.05.2022 07:20 10,4 C 9,4 C 86 % 1018,0 hPa 0,0 l/m 6,4 km/h (2 Bft) W-SW 247 0 min 0,5 UV-I 127 W/m 8,2 C 10,4 C 14,5 km/h (3 Bft)
12.05.2022 07:21 10,4 C 9,4 C 86 % 1018,0 hPa 0,0 l/m 9,7 km/h (2 Bft) W 270 0 min 0,5 UV-I 126 W/m 8,2 C 8,2 C 12,9 km/h (3 Bft)
12.05.2022 07:22 10,4 C 9,4 C 85 % 1018,1 hPa 0,0 l/m 11,3 km/h (2 Bft) W 270 0 min 0,5 UV-I 128 W/m 8,0 C 7,3 C 14,5 km/h (3 Bft)
12.05.2022 07:23 10,5 C 9,4 C 85 % 1018,0 hPa 0,0 l/m 6,4 km/h (2 Bft) W 270 0 min 0,5 UV-I 134 W/m 8,1 C 10,5 C 11,3 km/h (2 Bft)
12.05.2022 07:24 10,5 C 9,4 C 85 % 1018,0 hPa 0,0 l/m 6,4 km/h (2 Bft) W 270 0 min 0,5 UV-I 137 W/m 8,1 C 10,5 C 9,7 km/h (2 Bft)
12.05.2022 07:25 10,6 C 10,0 C 85 % 1018,1 hPa 0,0 l/m 3,2 km/h (1 Bft) SW 225 0 min 0,5 UV-I 139 W/m 8,2 C 10,6 C 6,4 km/h (2 Bft)
12.05.2022 07:26 10,6 C 10,0 C 85 % 1018,0 hPa 0,0 l/m 3,2 km/h (1 Bft) SW 225 0 min 0,6 UV-I 141 W/m 8,2 C 10,6 C 6,4 km/h (2 Bft)
12.05.2022 07:27 10,7 C 10,0 C 85 % 1018,0 hPa 0,0 l/m 4,8 km/h (1 Bft) SW 225 0 min 0,6 UV-I 144 W/m 8,3 C 10,7 C 9,7 km/h (2 Bft)
12.05.2022 07:28 10,7 C 10,0 C 84 % 1018,1 hPa 0,0 l/m 6,4 km/h (2 Bft) W-SW 247 0 min 0,6 UV-I 148 W/m 8,1 C 10,7 C 8,0 km/h (2 Bft)
12.05.2022 07:29 10,7 C 10,0 C 84 % 1018,0 hPa 0,0 l/m 6,4 km/h (2 Bft) SW 225 0 min 0,6 UV-I 149 W/m 8,1 C 10,7 C 11,3 km/h (2 Bft)
12.05.2022 07:30 10,7 C 10,0 C 84 % 1018,1 hPa 0,0 l/m 6,4 km/h (2 Bft) W-SW 247 0 min 0,6 UV-I 153 W/m 8,1 C 10,7 C 11,3 km/h (2 Bft)
12.05.2022 07:31 10,7 C 10,0 C 83 % 1018,1 hPa 0,0 l/m 9,7 km/h (2 Bft) W-SW 247 0 min 0,6 UV-I 153 W/m 7,9 C 8,5 C 14,5 km/h (3 Bft)
12.05.2022 07:32 10,7 C 10,0 C 84 % 1018,1 hPa 0,0 l/m 8,0 km/h (2 Bft) W-SW 247 0 min 0,6 UV-I 160 W/m 8,1 C 9,6 C 12,9 km/h (3 Bft)
12.05.2022 07:33 10,8 C 10,0 C 84 % 1018,2 hPa 0,0 l/m 4,8 km/h (1 Bft) W 270 0 min 0,6 UV-I 163 W/m 8,2 C 10,8 C 6,4 km/h (2 Bft)
12.05.2022 07:34 10,8 C 10,0 C 84 % 1018,1 hPa 0,0 l/m 4,8 km/h (1 Bft) W-SW 247 0 min 0,6 UV-I 167 W/m 8,2 C 10,8 C 9,7 km/h (2 Bft)
12.05.2022 07:35 10,8 C 10,0 C 83 % 1018,2 hPa 0,0 l/m 6,4 km/h (2 Bft) W-SW 247 0 min 0,7 UV-I 171 W/m 8,0 C 10,8 C 11,3 km/h (2 Bft)
12.05.2022 07:36 10,9 C 10,0 C 83 % 1018,2 hPa 0,0 l/m 4,8 km/h (1 Bft) SW 225 0 min 0,7 UV-I 174 W/m 8,1 C 10,9 C 8,0 km/h (2 Bft)
12.05.2022 07:37 10,9 C 10,6 C 83 % 1018,2 hPa 0,0 l/m 4,8 km/h (1 Bft) SW 225 0 min 0,7 UV-I 178 W/m 8,1 C 10,9 C 8,0 km/h (2 Bft)
12.05.2022 07:38 10,9 C 10,6 C 83 % 1018,2 hPa 0,0 l/m 4,8 km/h (1 Bft) W-SW 247 0 min 0,7 UV-I 176 W/m 8,1 C 10,9 C 6,4 km/h (2 Bft)
12.05.2022 07:39 10,9 C 10,6 C 82 % 1018,3 hPa 0,0 l/m 4,8 km/h (1 Bft) W-SW 247 0 min 0,7 UV-I 180 W/m 7,9 C 10,9 C 8,0 km/h (2 Bft)
12.05.2022 07:40 11,0 C 10,6 C 82 % 1018,3 hPa 0,0 l/m 4,8 km/h (1 Bft) S-SW 202 0 min 0,7 UV-I 183 W/m 8,0 C 11,0 C 11,3 km/h (2 Bft)
12.05.2022 07:41 11,0 C 10,6 C 82 % 1018,3 hPa 0,0 l/m 3,2 km/h (1 Bft) SW 225 0 min 0,7 UV-I 186 W/m 8,0 C 11,0 C 4,8 km/h (1 Bft)
12.05.2022 07:42 11,0 C 10,6 C 82 % 1018,2 hPa 0,0 l/m 6,4 km/h (2 Bft) SW 225 0 min 0,7 UV-I 190 W/m 8,0 C 11,0 C 9,7 km/h (2 Bft)
12.05.2022 07:43 11,1 C 10,6 C 82 % 1018,2 hPa 0,0 l/m 6,4 km/h (2 Bft) W-SW 247 0 min 0,7 UV-I 193 W/m 8,1 C 11,1 C 11,3 km/h (2 Bft)
12.05.2022 07:44 11,1 C 10,6 C 82 % 1018,3 hPa 0,0 l/m 6,4 km/h (2 Bft) SW 225 0 min 0,7 UV-I 186 W/m 8,1 C 11,1 C 8,0 km/h (2 Bft)
12.05.2022 07:45 11,1 C 10,6 C 82 % 1018,3 hPa 0,0 l/m 4,8 km/h (1 Bft) SW 225 0 min 0,7 UV-I 174 W/m 8,1 C 11,1 C 6,4 km/h (2 Bft)
12.05.2022 07:48 11,2 C 11,1 C 82 % 1018,3 hPa 0,0 l/m 4,1 km/h (1 Bft) SW 226 0 min 0,8 UV-I 180 W/m 8,2 C 11,2 C 6,4 km/h (2 Bft)
12.05.2022 07:50 11,2 C 11,1 C 82 % 1018,5 hPa 0,0 l/m 6,0 km/h (2 Bft) W-SW 241 0 min 0,8 UV-I 204 W/m 8,2 C 11,2 C 9,7 km/h (2 Bft)
12.05.2022 07:52 11,3 C 11,7 C 82 % 1018,4 hPa 0,0 l/m 5,8 km/h (2 Bft) W-SW 244 0 min 0,8 UV-I 203 W/m 8,3 C 11,3 C 9,7 km/h (2 Bft)
12.05.2022 07:54 11,3 C 12,2 C 81 % 1018,5 hPa 0,0 l/m 5,6 km/h (1 Bft) W-SW 240 0 min 0,8 UV-I 187 W/m 8,2 C 11,3 C 11,3 km/h (2 Bft)
12.05.2022 07:56 11,4 C 12,2 C 82 % 1018,4 hPa 0,0 l/m 5,3 km/h (1 Bft) SW 230 0 min 0,9 UV-I 207 W/m 8,4 C 11,4 C 8,0 km/h (2 Bft)
12.05.2022 07:58 11,4 C 12,2 C 81 % 1018,6 hPa 0,0 l/m 7,0 km/h (2 Bft) SW 223 0 min 0,9 UV-I 174 W/m 8,3 C 11,0 C 11,3 km/h (2 Bft)
12.05.2022 08:00 11,4 C 12,2 C 81 % 1018,6 hPa 0,0 l/m 6,4 km/h (2 Bft) S-SW 207 0 min 0,9 UV-I 242 W/m 8,3 C 11,4 C 9,7 km/h (2 Bft)
12.05.2022 08:02 11,4 C 12,8 C 80 % 1018,6 hPa 0,0 l/m 9,3 km/h (2 Bft) SW 226 0 min 0,9 UV-I 267 W/m 8,1 C 9,5 C 14,5 km/h (3 Bft)
12.05.2022 08:04 11,5 C 12,8 C 80 % 1018,6 hPa 0,0 l/m 6,7 km/h (2 Bft) W 279 0 min 1,0 UV-I 291 W/m 8,2 C 11,3 C 9,7 km/h (2 Bft)
12.05.2022 08:06 11,6 C 13,3 C 80 % 1018,7 hPa 0,0 l/m 7,5 km/h (2 Bft) W 265 0 min 0,9 UV-I 271 W/m 8,3 C 10,9 C 11,3 km/h (2 Bft)
12.05.2022 08:08 11,5 C 12,8 C 79 % 1018,7 hPa 0,0 l/m 6,7 km/h (2 Bft) SW 218 0 min 0,8 UV-I 118 W/m 8,0 C 11,3 C 11,3 km/h (2 Bft)
12.05.2022 08:10 11,3 C 12,2 C 79 % 1018,7 hPa 0,0 l/m 10,1 km/h (2 Bft) SW 227 0 min 0,8 UV-I 110 W/m 7,8 C 9,0 C 19,3 km/h (3 Bft)
12.05.2022 08:12 11,2 C 11,7 C 79 % 1018,6 hPa 0,0 l/m 7,2 km/h (2 Bft) SW 226 0 min 0,8 UV-I 99 W/m 7,7 C 10,6 C 12,9 km/h (3 Bft)
12.05.2022 08:14 11,2 C 11,7 C 80 % 1018,7 hPa 0,0 l/m 6,2 km/h (2 Bft) SW 233 0 min 0,8 UV-I 117 W/m 7,9 C 11,2 C 9,7 km/h (2 Bft)
12.05.2022 08:16 11,2 C 11,7 C 80 % 1018,7 hPa 0,0 l/m 7,8 km/h (2 Bft) W-SW 248 0 min 0,8 UV-I 131 W/m 7,9 C 10,2 C 12,9 km/h (3 Bft)
12.05.2022 08:18 11,2 C 12,2 C 79 % 1018,8 hPa 0,0 l/m 6,5 km/h (2 Bft) SW 234 0 min 0,9 UV-I 181 W/m 7,7 C 11,2 C 11,3 km/h (2 Bft)
12.05.2022 08:20 11,4 C 12,2 C 80 % 1018,8 hPa 0,0 l/m 5,0 km/h (1 Bft) S-SW 195 0 min 1,1 UV-I 185 W/m 8,1 C 11,4 C 8,0 km/h (2 Bft)
12.05.2022 08:22 11,4 C 12,8 C 80 % 1018,9 hPa 0,0 l/m 5,9 km/h (2 Bft) S-SW 203 0 min 0,8 UV-I 144 W/m 8,1 C 11,4 C 9,7 km/h (2 Bft)
12.05.2022 08:24 11,4 C 12,2 C 80 % 1018,8 hPa 0,0 l/m 7,5 km/h (2 Bft) SW 220 0 min 0,8 UV-I 112 W/m 8,1 C 10,7 C 11,3 km/h (2 Bft)
12.05.2022 08:26 11,3 C 12,2 C 79 % 1019,0 hPa 0,0 l/m 9,0 km/h (2 Bft) S-SW 211 0 min 0,8 UV-I 90 W/m 7,8 C 9,6 C 12,9 km/h (3 Bft)
12.05.2022 08:28 11,2 C 11,7 C 79 % 1018,9 hPa 0,0 l/m 6,5 km/h (2 Bft) S-SW 206 0 min 0,8 UV-I 80 W/m 7,7 C 11,2 C 11,3 km/h (2 Bft)
12.05.2022 08:30 11,2 C 11,7 C 79 % 1018,9 hPa 0,0 l/m 6,6 km/h (2 Bft) S-SW 211 0 min 1,1 UV-I 84 W/m 7,7 C 11,1 C 9,7 km/h (2 Bft)
12.05.2022 08:32 11,2 C 11,7 C 79 % 1019,0 hPa 0,0 l/m 6,2 km/h (2 Bft) SW 221 0 min 0,9 UV-I 84 W/m 7,7 C 11,2 C 9,7 km/h (2 Bft)
12.05.2022 08:34 11,4 C 12,2 C 80 % 1018,9 hPa 0,0 l/m 4,5 km/h (1 Bft) W-SW 250 0 min 1,4 UV-I 282 W/m 8,1 C 11,4 C 11,3 km/h (2 Bft)
12.05.2022 08:36 11,8 C 13,3 C 79 % 1019,0 hPa 0,0 l/m 8,0 km/h (2 Bft) W 263 2 min 1,5 UV-I 396 W/m 8,3 C 10,7 C 11,3 km/h (2 Bft)
12.05.2022 08:38 12,1 C 13,9 C 78 % 1019,0 hPa 0,0 l/m 4,9 km/h (1 Bft) SW 227 2 min 1,6 UV-I 456 W/m 8,4 C 12,1 C 6,4 km/h (2 Bft)
12.05.2022 08:40 12,2 C 14,4 C 77 % 1019,0 hPa 0,0 l/m 6,3 km/h (2 Bft) SW 217 2 min 1,3 UV-I 483 W/m 8,3 C 12,2 C 12,9 km/h (3 Bft)
12.05.2022 08:42 12,1 C 13,9 C 77 % 1018,9 hPa 0,0 l/m 9,2 km/h (2 Bft) S-SW 194 0 min 1,0 UV-I 210 W/m 8,2 C 10,3 C 12,9 km/h (3 Bft)
12.05.2022 08:44 11,9 C 13,3 C 77 % 1019,0 hPa 0,0 l/m 6,6 km/h (2 Bft) S 190 0 min 0,9 UV-I 118 W/m 8,0 C 11,8 C 14,5 km/h (3 Bft)
12.05.2022 08:46 11,7 C 12,2 C 78 % 1019,1 hPa 0,0 l/m 11,6 km/h (2 Bft) S-SW 210 0 min 0,9 UV-I 82 W/m 8,0 C 8,7 C 16,1 km/h (3 Bft)
12.05.2022 08:48 11,4 C 11,7 C 78 % 1019,1 hPa 0,0 l/m 10,7 km/h (2 Bft) S-SW 210 0 min 1,0 UV-I 81 W/m 7,7 C 8,8 C 14,5 km/h (3 Bft)
12.05.2022 08:50 11,2 C 11,7 C 79 % 1019,1 hPa 0,0 l/m 7,5 km/h (2 Bft) S-SW 192 0 min 1,1 UV-I 109 W/m 7,7 C 10,4 C 11,3 km/h (2 Bft)
12.05.2022 08:52 11,3 C 12,2 C 79 % 1019,1 hPa 0,0 l/m 8,0 km/h (2 Bft) S-SO 167 0 min 1,7 UV-I 196 W/m 7,8 C 10,2 C 11,3 km/h (2 Bft)
12.05.2022 08:54 11,5 C 12,8 C 79 % 1019,0 hPa 0,0 l/m 5,2 km/h (1 Bft) S 189 2 min 1,6 UV-I 441 W/m 8,0 C 11,5 C 9,7 km/h (2 Bft)
12.05.2022 08:56 11,9 C 13,9 C 79 % 1019,1 hPa 0,0 l/m 4,6 km/h (1 Bft) S 171 2 min 1,8 UV-I 438 W/m 8,4 C 11,9 C 8,0 km/h (2 Bft)
12.05.2022 08:58 12,2 C 13,9 C 77 % 1019,0 hPa 0,0 l/m 10,2 km/h (2 Bft) S 171 2 min 1,9 UV-I 434 W/m 8,3 C 9,9 C 17,7 km/h (3 Bft)
12.05.2022 09:00 12,5 C 13,9 C 77 % 1019,1 hPa 0,0 l/m 7,1 km/h (2 Bft) S-SW 202 2 min 1,9 UV-I 435 W/m 8,6 C 12,0 C 11,3 km/h (2 Bft)
12.05.2022 09:02 12,6 C 14,4 C 75 % 1019,0 hPa 0,0 l/m 8,7 km/h (2 Bft) SW 216 2 min 2,0 UV-I 458 W/m 8,3 C 11,2 C 12,9 km/h (3 Bft)
12.05.2022 09:04 12,7 C 15,0 C 75 % 1019,1 hPa 0,0 l/m 6,3 km/h (2 Bft) S-SO 156 2 min 2,0 UV-I 481 W/m 8,4 C 12,7 C 14,5 km/h (3 Bft)
12.05.2022 09:06 12,7 C 15,6 C 75 % 1019,2 hPa 0,0 l/m 8,1 km/h (2 Bft) SW 222 2 min 2,2 UV-I 511 W/m 8,4 C 11,6 C 11,3 km/h (2 Bft)
12.05.2022 09:08 12,7 C 16,1 C 75 % 1019,1 hPa 0,0 l/m 8,0 km/h (2 Bft) S-SO 155 2 min 1,9 UV-I 568 W/m 8,4 C 11,7 C 11,3 km/h (2 Bft)
12.05.2022 09:10 12,8 C 15,6 C 74 % 1019,1 hPa 0,0 l/m 9,5 km/h (2 Bft) W-SW 254 2 min 1,7 UV-I 561 W/m 8,3 C 10,9 C 16,1 km/h (3 Bft)
12.05.2022 09:12 12,8 C 14,4 C 72 % 1019,2 hPa 0,0 l/m 11,0 km/h (2 Bft) W-SW 244 0 min 1,1 UV-I 193 W/m 7,9 C 10,2 C 17,7 km/h (3 Bft)
12.05.2022 09:14 12,5 C 13,9 C 73 % 1019,1 hPa 0,0 l/m 11,8 km/h (2 Bft) W-SW 246 0 min 1,1 UV-I 103 W/m 7,8 C 9,5 C 19,3 km/h (3 Bft)
12.05.2022 09:16 12,2 C 12,8 C 73 % 1019,2 hPa 0,0 l/m 10,5 km/h (2 Bft) S-SW 206 0 min 1,1 UV-I 85 W/m 7,5 C 9,8 C 19,3 km/h (3 Bft)
12.05.2022 09:18 11,9 C 12,2 C 73 % 1019,2 hPa 0,0 l/m 8,3 km/h (2 Bft) W-SW 244 0 min 1,1 UV-I 73 W/m 7,2 C 10,7 C 14,5 km/h (3 Bft)
12.05.2022 09:20 11,7 C 12,2 C 74 % 1019,3 hPa 0,0 l/m 6,5 km/h (2 Bft) S-SW 202 0 min 1,3 UV-I 80 W/m 7,2 C 11,7 C 11,3 km/h (2 Bft)
12.05.2022 09:22 11,6 C 11,7 C 75 % 1019,3 hPa 0,0 l/m 6,3 km/h (2 Bft) SW 221 0 min 1,9 UV-I 123 W/m 7,3 C 11,6 C 9,7 km/h (2 Bft)
12.05.2022 09:24 11,8 C 13,3 C 76 % 1019,3 hPa 0,0 l/m 8,2 km/h (2 Bft) S 190 2 min 2,3 UV-I 448 W/m 7,7 C 10,6 C 11,3 km/h (2 Bft)
12.05.2022 09:26 12,1 C 13,9 C 74 % 1019,3 hPa 0,0 l/m 7,4 km/h (2 Bft) S 187 2 min 2,4 UV-I 491 W/m 7,6 C 11,4 C 11,3 km/h (2 Bft)
12.05.2022 09:28 12,4 C 15,0 C 74 % 1019,4 hPa 0,0 l/m 8,0 km/h (2 Bft) S-SW 204 2 min 2,4 UV-I 507 W/m 7,9 C 11,4 C 12,9 km/h (3 Bft)
12.05.2022 09:30 12,7 C 15,0 C 73 % 1019,2 hPa 0,0 l/m 5,9 km/h (2 Bft) S-SO 166 2 min 2,5 UV-I 540 W/m 8,0 C 12,7 C 9,7 km/h (2 Bft)
12.05.2022 09:32 12,9 C 16,1 C 73 % 1019,4 hPa 0,0 l/m 6,0 km/h (2 Bft) SW 219 2 min 2,6 UV-I 548 W/m 8,2 C 12,9 C 9,7 km/h (2 Bft)
12.05.2022 09:34 13,1 C 16,7 C 72 % 1019,4 hPa 0,0 l/m 6,7 km/h (2 Bft) S-SW 202 2 min 2,6 UV-I 553 W/m 8,2 C 12,9 C 9,7 km/h (2 Bft)
12.05.2022 09:36 13,3 C 16,7 C 71 % 1019,4 hPa 0,0 l/m 10,0 km/h (2 Bft) S-SW 197 2 min 2,7 UV-I 571 W/m 8,2 C 11,2 C 14,5 km/h (3 Bft)
12.05.2022 09:38 13,4 C 16,7 C 69 % 1019,3 hPa 0,0 l/m 10,0 km/h (2 Bft) W 278 2 min 2,3 UV-I 582 W/m 7,8 C 11,4 C 14,5 km/h (3 Bft)
12.05.2022 09:40 13,8 C 16,7 C 70 % 1019,4 hPa 0,0 l/m 10,0 km/h (2 Bft) W 276 2 min 2,3 UV-I 529 W/m 8,4 C 11,8 C 17,7 km/h (3 Bft)
12.05.2022 09:42 13,9 C 17,2 C 68 % 1019,4 hPa 0,0 l/m 7,7 km/h (2 Bft) SW 223 2 min 2,7 UV-I 522 W/m 8,1 C 13,1 C 12,9 km/h (3 Bft)
12.05.2022 09:44 13,9 C 17,2 C 68 % 1019,5 hPa 0,0 l/m 6,5 km/h (2 Bft) SW 234 2 min 2,2 UV-I 556 W/m 8,1 C 13,9 C 11,3 km/h (2 Bft)
12.05.2022 09:46 13,7 C 16,7 C 69 % 1019,4 hPa 0,0 l/m 10,1 km/h (2 Bft) W 265 0 min 1,4 UV-I 246 W/m 8,1 C 11,6 C 12,9 km/h (3 Bft)
12.05.2022 09:48 13,4 C 16,1 C 70 % 1019,5 hPa 0,0 l/m 8,1 km/h (2 Bft) SW 229 0 min 1,4 UV-I 190 W/m 8,0 C 12,4 C 14,5 km/h (3 Bft)
12.05.2022 09:50 13,2 C 15,0 C 71 % 1019,6 hPa 0,0 l/m 5,9 km/h (2 Bft) W-SW 238 0 min 1,5 UV-I 212 W/m 8,1 C 13,2 C 9,7 km/h (2 Bft)
12.05.2022 09:52 13,1 C 15,0 C 72 % 1019,5 hPa 0,0 l/m 6,2 km/h (2 Bft) SW 231 0 min 1,5 UV-I 207 W/m 8,2 C 13,1 C 9,7 km/h (2 Bft)
12.05.2022 09:54 12,9 C 14,4 C 73 % 1019,6 hPa 0,0 l/m 9,7 km/h (2 Bft) S-SW 192 0 min 1,7 UV-I 208 W/m 8,2 C 11,0 C 16,1 km/h (3 Bft)
12.05.2022 09:56 12,9 C 15,0 C 73 % 1019,6 hPa 0,0 l/m 6,7 km/h (2 Bft) S-SO 159 0 min 3,1 UV-I 302 W/m 8,2 C 12,7 C 11,3 km/h (2 Bft)
12.05.2022 09:58 13,5 C 16,1 C 74 % 1019,6 hPa 0,0 l/m 6,1 km/h (2 Bft) SW 232 2 min 3,1 UV-I 575 W/m 9,0 C 13,5 C 9,7 km/h (2 Bft)
12.05.2022 10:00 13,7 C 16,1 C 72 % 1019,6 hPa 0,0 l/m 9,2 km/h (2 Bft) W-SW 257 2 min 2,7 UV-I 580 W/m 8,7 C 12,1 C 17,7 km/h (3 Bft)
12.05.2022 10:02 13,9 C 16,1 C 72 % 1019,7 hPa 0,0 l/m 13,4 km/h (3 Bft) W-SW 248 2 min 2,5 UV-I 498 W/m 8,9 C 10,4 C 17,7 km/h (3 Bft)
12.05.2022 10:04 13,7 C 15,6 C 70 % 1019,7 hPa 0,0 l/m 11,1 km/h (2 Bft) W-SW 239 0 min 2,5 UV-I 190 W/m 8,3 C 11,2 C 16,1 km/h (3 Bft)
12.05.2022 10:06 13,9 C 16,1 C 72 % 1019,7 hPa 0,0 l/m 6,3 km/h (2 Bft) S-SW 209 2 min 3,2 UV-I 584 W/m 8,9 C 13,9 C 11,3 km/h (2 Bft)
12.05.2022 10:08 13,9 C 16,7 C 69 % 1019,7 hPa 0,0 l/m 5,2 km/h (1 Bft) W-NW 293 2 min 3,2 UV-I 628 W/m 8,3 C 13,9 C 9,7 km/h (2 Bft)
12.05.2022 10:10 13,9 C 17,2 C 68 % 1019,7 hPa 0,0 l/m 6,3 km/h (2 Bft) SW 221 2 min 2,5 UV-I 633 W/m 8,1 C 13,9 C 17,7 km/h (3 Bft)
12.05.2022 10:12 13,7 C 16,1 C 69 % 1019,7 hPa 0,0 l/m 8,6 km/h (2 Bft) S-SW 208 0 min 2,0 UV-I 256 W/m 8,1 C 12,4 C 14,5 km/h (3 Bft)
12.05.2022 10:14 13,6 C 16,1 C 70 % 1019,7 hPa 0,0 l/m 6,0 km/h (2 Bft) SW 215 0 min 2,0 UV-I 251 W/m 8,2 C 13,6 C 9,7 km/h (2 Bft)
12.05.2022 10:16 13,7 C 15,6 C 69 % 1019,7 hPa 0,0 l/m 7,0 km/h (2 Bft) S 182 0 min 2,2 UV-I 286 W/m 8,1 C 13,3 C 17,7 km/h (3 Bft)
12.05.2022 10:18 13,8 C 16,1 C 69 % 1019,8 hPa 0,0 l/m 13,7 km/h (3 Bft) SW 215 0 min 2,6 UV-I 316 W/m 8,2 C 10,2 C 19,3 km/h (3 Bft)
12.05.2022 10:20 13,7 C 15,6 C 68 % 1019,8 hPa 0,0 l/m 14,5 km/h (3 Bft) S 188 0 min 1,9 UV-I 214 W/m 7,9 C 9,8 C 20,9 km/h (4 Bft)
12.05.2022 10:22 13,5 C 15,6 C 68 % 1019,8 hPa 0,0 l/m 12,1 km/h (2 Bft) S-SW 207 0 min 2,7 UV-I 223 W/m 7,7 C 10,5 C 19,3 km/h (3 Bft)
12.05.2022 10:24 13,6 C 15,6 C 68 % 1019,8 hPa 0,0 l/m 8,8 km/h (2 Bft) S 175 2 min 3,1 UV-I 360 W/m 7,8 C 12,2 C 12,9 km/h (3 Bft)
12.05.2022 10:26 13,9 C 16,1 C 70 % 1019,9 hPa 0,0 l/m 9,2 km/h (2 Bft) W-SW 248 2 min 3,5 UV-I 658 W/m 8,5 C 12,3 C 16,1 km/h (3 Bft)
12.05.2022 10:28 14,2 C 16,7 C 66 % 1019,8 hPa 0,0 l/m 10,9 km/h (2 Bft) S-SW 198 2 min 3,6 UV-I 675 W/m 7,9 C 11,8 C 19,3 km/h (3 Bft)
12.05.2022 10:30 14,2 C 17,2 C 66 % 1019,9 hPa 0,0 l/m 11,6 km/h (2 Bft) W 266 2 min 3,6 UV-I 681 W/m 7,9 C 11,5 C 14,5 km/h (3 Bft)
12.05.2022 10:32 14,3 C 17,8 C 65 % 1019,9 hPa 0,0 l/m 7,3 km/h (2 Bft) W-SW 244 2 min 3,7 UV-I 681 W/m 7,8 C 13,8 C 12,9 km/h (3 Bft)
12.05.2022 10:34 14,4 C 17,8 C 64 % 1019,9 hPa 0,0 l/m 12,2 km/h (2 Bft) S 180 2 min 3,8 UV-I 687 W/m 7,7 C 11,5 C 19,3 km/h (3 Bft)
12.05.2022 10:36 14,4 C 17,8 C 64 % 1019,9 hPa 0,0 l/m 11,9 km/h (2 Bft) S-SW 195 2 min 3,9 UV-I 711 W/m 7,7 C 11,6 C 19,3 km/h (3 Bft)
12.05.2022 10:38 14,4 C 18,3 C 64 % 1019,8 hPa 0,0 l/m 5,6 km/h (1 Bft) S-SW 194 2 min 3,9 UV-I 727 W/m 7,7 C 14,4 C 8,0 km/h (2 Bft)
12.05.2022 10:40 14,7 C 19,4 C 65 % 1019,8 hPa 0,0 l/m 7,2 km/h (2 Bft) S-SW 202 2 min 4,0 UV-I 765 W/m 8,2 C 14,2 C 11,3 km/h (2 Bft)
12.05.2022 10:42 14,8 C 19,4 C 64 % 1019,9 hPa 0,0 l/m 8,6 km/h (2 Bft) W-SW 242 2 min 4,2 UV-I 801 W/m 8,1 C 13,6 C 14,5 km/h (3 Bft)
12.05.2022 10:44 14,9 C 20,0 C 65 % 1019,8 hPa 0,0 l/m 4,8 km/h (1 Bft) SW 236 2 min 4,1 UV-I 800 W/m 8,4 C 14,9 C 9,7 km/h (2 Bft)
12.05.2022 10:46 14,7 C 20,0 C 63 % 1019,9 hPa 0,0 l/m 8,7 km/h (2 Bft) S-SW 204 2 min 3,6 UV-I 790 W/m 7,7 C 13,4 C 16,1 km/h (3 Bft)
12.05.2022 10:48 14,4 C 18,3 C 63 % 1019,9 hPa 0,0 l/m 16,1 km/h (3 Bft) S-SW 205 0 min 2,6 UV-I 266 W/m 7,4 C 10,1 C 20,9 km/h (4 Bft)
12.05.2022 10:50 14,3 C 18,3 C 65 % 1020,0 hPa 0,0 l/m 12,4 km/h (3 Bft) S-SW 196 2 min 4,2 UV-I 415 W/m 7,8 C 11,3 C 17,7 km/h (3 Bft)
12.05.2022 10:52 14,3 C 18,9 C 64 % 1019,9 hPa 0,0 l/m 8,9 km/h (2 Bft) S-SW 192 2 min 4,2 UV-I 740 W/m 7,6 C 12,9 C 12,9 km/h (3 Bft)
12.05.2022 10:54 14,6 C 20,0 C 65 % 1019,8 hPa 0,0 l/m 9,1 km/h (2 Bft) S-SW 210 2 min 4,4 UV-I 751 W/m 8,1 C 13,1 C 16,1 km/h (3 Bft)
12.05.2022 10:56 14,9 C 20,6 C 64 % 1019,8 hPa 0,0 l/m 10,6 km/h (2 Bft) S-SO 150 2 min 4,4 UV-I 761 W/m 8,2 C 12,7 C 14,5 km/h (3 Bft)
12.05.2022 10:58 15,1 C 20,6 C 64 % 1019,9 hPa 0,0 l/m 10,3 km/h (2 Bft) S-SW 213 2 min 4,4 UV-I 761 W/m 8,3 C 13,1 C 17,7 km/h (3 Bft)
12.05.2022 11:00 14,9 C 21,1 C 63 % 1019,9 hPa 0,0 l/m 12,4 km/h (3 Bft) S 182 2 min 4,5 UV-I 804 W/m 7,9 C 12,0 C 19,3 km/h (3 Bft)
12.05.2022 11:02 15,1 C 21,1 C 65 % 1019,9 hPa 0,0 l/m 11,7 km/h (2 Bft) S-SW 196 2 min 4,4 UV-I 856 W/m 8,6 C 12,5 C 19,3 km/h (3 Bft)
12.05.2022 11:04 14,9 C 18,9 C 62 % 1019,8 hPa 0,0 l/m 19,4 km/h (3 Bft) S-SW 210 2 min 2,6 UV-I 518 W/m 7,7 C 9,8 C 25,7 km/h (4 Bft)
12.05.2022 11:06 14,8 C 19,4 C 64 % 1019,9 hPa 0,0 l/m 12,6 km/h (3 Bft) S-SW 200 2 min 4,4 UV-I 577 W/m 8,1 C 11,8 C 17,7 km/h (3 Bft)
12.05.2022 11:08 15,0 C 20,6 C 66 % 1019,9 hPa 0,0 l/m 12,1 km/h (2 Bft) S-SW 201 2 min 4,5 UV-I 764 W/m 8,7 C 12,2 C 16,1 km/h (3 Bft)
12.05.2022 11:10 14,9 C 21,1 C 63 % 1019,9 hPa 0,0 l/m 13,1 km/h (3 Bft) S-SO 156 2 min 4,6 UV-I 771 W/m 7,9 C 11,7 C 19,3 km/h (3 Bft)
12.05.2022 11:12 15,2 C 21,7 C 64 % 1019,9 hPa 0,0 l/m 8,1 km/h (2 Bft) W-SW 250 2 min 4,4 UV-I 708 W/m 8,4 C 14,3 C 12,9 km/h (3 Bft)
12.05.2022 11:14 15,3 C 21,1 C 61 % 1019,8 hPa 0,0 l/m 8,7 km/h (2 Bft) W-SW 244 2 min 4,1 UV-I 635 W/m 7,8 C 14,1 C 20,9 km/h (4 Bft)
12.05.2022 11:16 15,4 C 21,7 C 60 % 1019,9 hPa 0,0 l/m 10,7 km/h (2 Bft) SW 222 2 min 4,6 UV-I 688 W/m 7,7 C 13,3 C 19,3 km/h (3 Bft)
12.05.2022 11:18 15,3 C 21,7 C 59 % 1019,9 hPa 0,0 l/m 10,0 km/h (2 Bft) S-SW 204 2 min 4,9 UV-I 811 W/m 7,3 C 13,4 C 16,1 km/h (3 Bft)
12.05.2022 11:20 15,3 C 21,1 C 58 % 1019,9 hPa 0,0 l/m 13,8 km/h (3 Bft) S-SW 209 2 min 4,6 UV-I 806 W/m 7,1 C 12,0 C 19,3 km/h (3 Bft)
12.05.2022 11:22 15,2 C 20,6 C 58 % 1019,9 hPa 0,0 l/m 15,8 km/h (3 Bft) S 186 2 min 4,1 UV-I 616 W/m 7,0 C 11,2 C 25,7 km/h (4 Bft)
12.05.2022 11:24 15,3 C 19,4 C 61 % 1019,9 hPa 0,0 l/m 11,4 km/h (2 Bft) S-SW 196 2 min 4,0 UV-I 565 W/m 7,8 C 12,9 C 20,9 km/h (4 Bft)
12.05.2022 11:26 15,2 C 20,0 C 59 % 1019,9 hPa 0,0 l/m 15,4 km/h (3 Bft) S 169 2 min 4,1 UV-I 656 W/m 7,2 C 11,3 C 20,9 km/h (4 Bft)
12.05.2022 11:28 15,1 C 20,0 C 61 % 1019,9 hPa 0,0 l/m 12,3 km/h (3 Bft) S 186 2 min 4,7 UV-I 783 W/m 7,6 C 12,3 C 16,1 km/h (3 Bft)
12.05.2022 11:30 15,2 C 20,6 C 61 % 1019,9 hPa 0,0 l/m 12,3 km/h (3 Bft) S-SW 209 2 min 4,9 UV-I 800 W/m 7,7 C 12,4 C 17,7 km/h (3 Bft)
12.05.2022 11:32 15,6 C 21,7 C 64 % 1019,8 hPa 0,0 l/m 7,1 km/h (2 Bft) SW 223 2 min 4,9 UV-I 793 W/m 8,8 C 15,2 C 12,9 km/h (3 Bft)
12.05.2022 11:34 15,7 C 22,2 C 61 % 1019,8 hPa 0,0 l/m 11,7 km/h (2 Bft) SO 144 2 min 5,0 UV-I 815 W/m 8,2 C 13,2 C 16,1 km/h (3 Bft)
12.05.2022 11:36 15,6 C 21,7 C 58 % 1019,8 hPa 0,0 l/m 12,9 km/h (3 Bft) SO 140 2 min 5,1 UV-I 823 W/m 7,4 C 12,6 C 17,7 km/h (3 Bft)
12.05.2022 11:38 15,4 C 21,7 C 61 % 1019,8 hPa 0,0 l/m 12,3 km/h (3 Bft) SO 130 2 min 5,1 UV-I 834 W/m 7,9 C 12,6 C 17,7 km/h (3 Bft)
12.05.2022 11:40 15,6 C 22,2 C 60 % 1019,8 hPa 0,0 l/m 10,9 km/h (2 Bft) S 171 2 min 5,1 UV-I 836 W/m 7,9 C 13,4 C 17,7 km/h (3 Bft)
12.05.2022 11:42 15,7 C 20,6 C 58 % 1019,8 hPa 0,0 l/m 16,4 km/h (3 Bft) S 174 2 min 4,7 UV-I 836 W/m 7,5 C 11,6 C 25,7 km/h (4 Bft)
12.05.2022 11:44 15,6 C 20,6 C 62 % 1019,7 hPa 0,0 l/m 12,1 km/h (2 Bft) S 170 2 min 4,7 UV-I 828 W/m 8,3 C 12,9 C 20,9 km/h (4 Bft)
12.05.2022 11:46 15,7 C 21,1 C 59 % 1019,7 hPa 0,0 l/m 11,1 km/h (2 Bft) S-SW 196 2 min 5,1 UV-I 800 W/m 7,7 C 13,4 C 17,7 km/h (3 Bft)
12.05.2022 11:48 15,8 C 21,7 C 58 % 1019,7 hPa 0,0 l/m 13,7 km/h (3 Bft) SW 222 2 min 5,2 UV-I 820 W/m 7,6 C 12,6 C 19,3 km/h (3 Bft)
12.05.2022 11:50 15,8 C 21,7 C 58 % 1019,8 hPa 0,0 l/m 11,0 km/h (2 Bft) W-SW 238 2 min 5,0 UV-I 774 W/m 7,6 C 13,6 C 17,7 km/h (3 Bft)
12.05.2022 11:52 16,0 C 22,2 C 59 % 1019,8 hPa 0,0 l/m 8,9 km/h (2 Bft) S 172 2 min 5,1 UV-I 790 W/m 8,0 C 14,7 C 14,5 km/h (3 Bft)
12.05.2022 11:54 16,1 C 23,3 C 59 % 1019,7 hPa 0,0 l/m 7,5 km/h (2 Bft) SO 137 2 min 5,1 UV-I 792 W/m 8,1 C 15,5 C 16,1 km/h (3 Bft)
12.05.2022 11:56 16,1 C 23,3 C 56 % 1019,7 hPa 0,0 l/m 13,2 km/h (3 Bft) S-SO 148 2 min 5,2 UV-I 801 W/m 7,3 C 13,1 C 20,9 km/h (4 Bft)
12.05.2022 11:58 16,1 C 22,2 C 55 % 1019,7 hPa 0,0 l/m 10,0 km/h (2 Bft) SO 146 2 min 5,1 UV-I 812 W/m 7,1 C 14,3 C 17,7 km/h (3 Bft)
12.05.2022 12:00 16,0 C 23,3 C 56 % 1019,7 hPa 0,0 l/m 8,3 km/h (2 Bft) S-SW 202 2 min 5,1 UV-I 808 W/m 7,2 C 15,0 C 12,9 km/h (3 Bft)
12.05.2022 12:02 16,0 C 22,2 C 57 % 1019,7 hPa 0,0 l/m 15,9 km/h (3 Bft) S-SW 202 2 min 5,3 UV-I 823 W/m 7,5 C 12,1 C 20,9 km/h (4 Bft)
12.05.2022 12:04 15,8 C 22,2 C 57 % 1019,7 hPa 0,0 l/m 10,6 km/h (2 Bft) S-SW 192 2 min 5,3 UV-I 818 W/m 7,3 C 13,7 C 16,1 km/h (3 Bft)
12.05.2022 12:06 15,9 C 22,2 C 58 % 1019,7 hPa 0,0 l/m 13,2 km/h (3 Bft) S 188 2 min 5,3 UV-I 830 W/m 7,6 C 12,9 C 20,9 km/h (4 Bft)
12.05.2022 12:08 16,0 C 22,2 C 57 % 1019,7 hPa 0,0 l/m 13,3 km/h (3 Bft) S-SW 195 2 min 5,5 UV-I 860 W/m 7,5 C 13,0 C 19,3 km/h (3 Bft)
12.05.2022 12:10 15,9 C 22,2 C 55 % 1019,7 hPa 0,0 l/m 15,7 km/h (3 Bft) S 179 2 min 5,5 UV-I 854 W/m 6,9 C 12,1 C 20,9 km/h (4 Bft)
12.05.2022 12:12 15,9 C 22,2 C 54 % 1019,7 hPa 0,0 l/m 16,6 km/h (3 Bft) S 171 2 min 5,5 UV-I 848 W/m 6,6 C 11,8 C 22,5 km/h (4 Bft)
12.05.2022 12:14 16,2 C 22,2 C 54 % 1019,7 hPa 0,0 l/m 14,1 km/h (3 Bft) S-SW 213 2 min 5,6 UV-I 855 W/m 6,9 C 12,9 C 19,3 km/h (3 Bft)
12.05.2022 12:16 16,2 C 22,2 C 53 % 1019,7 hPa 0,0 l/m 15,0 km/h (3 Bft) S 190 2 min 5,5 UV-I 832 W/m 6,6 C 12,6 C 20,9 km/h (4 Bft)
12.05.2022 12:18 16,1 C 22,2 C 54 % 1019,6 hPa 0,0 l/m 9,7 km/h (2 Bft) S-SO 148 2 min 5,6 UV-I 848 W/m 6,8 C 14,5 C 17,7 km/h (3 Bft)
12.05.2022 12:20 16,3 C 22,8 C 55 % 1019,6 hPa 0,0 l/m 9,8 km/h (2 Bft) W-SW 253 2 min 5,7 UV-I 871 W/m 7,2 C 14,6 C 20,9 km/h (4 Bft)
12.05.2022 12:22 16,6 C 23,3 C 55 % 1019,6 hPa 0,0 l/m 11,9 km/h (2 Bft) W-SW 237 2 min 5,7 UV-I 867 W/m 7,5 C 14,2 C 19,3 km/h (3 Bft)
12.05.2022 12:24 16,8 C 23,3 C 54 % 1019,6 hPa 0,0 l/m 12,2 km/h (2 Bft) SW 221 2 min 5,7 UV-I 858 W/m 7,4 C 14,3 C 19,3 km/h (3 Bft)
12.05.2022 12:26 16,8 C 23,3 C 53 % 1019,6 hPa 0,0 l/m 14,0 km/h (3 Bft) S-SW 209 2 min 5,6 UV-I 841 W/m 7,2 C 13,7 C 20,9 km/h (4 Bft)
12.05.2022 12:28 16,4 C 22,8 C 53 % 1019,5 hPa 0,0 l/m 12,0 km/h (2 Bft) SW 231 2 min 5,2 UV-I 816 W/m 6,8 C 13,9 C 19,3 km/h (3 Bft)
12.05.2022 12:30 16,2 C 22,2 C 55 % 1019,6 hPa 0,0 l/m 16,7 km/h (3 Bft) SW 217 2 min 5,4 UV-I 800 W/m 7,2 C 12,1 C 24,1 km/h (4 Bft)
12.05.2022 12:32 16,1 C 22,2 C 55 % 1019,6 hPa 0,0 l/m 13,7 km/h (3 Bft) S 180 2 min 5,6 UV-I 826 W/m 7,1 C 12,9 C 17,7 km/h (3 Bft)
12.05.2022 12:34 16,0 C 22,2 C 56 % 1019,6 hPa 0,0 l/m 7,1 km/h (2 Bft) S-SW 202 2 min 5,5 UV-I 811 W/m 7,2 C 15,6 C 17,7 km/h (3 Bft)
12.05.2022 12:36 16,4 C 22,8 C 58 % 1019,6 hPa 0,0 l/m 10,4 km/h (2 Bft) S-SW 209 2 min 5,6 UV-I 842 W/m 8,1 C 14,5 C 17,7 km/h (3 Bft)
12.05.2022 12:38 16,4 C 22,8 C 53 % 1019,6 hPa 0,0 l/m 11,9 km/h (2 Bft) S 178 2 min 5,7 UV-I 844 W/m 6,8 C 13,9 C 17,7 km/h (3 Bft)
12.05.2022 12:40 16,3 C 23,3 C 56 % 1019,5 hPa 0,0 l/m 9,0 km/h (2 Bft) W-SW 245 2 min 5,6 UV-I 835 W/m 7,5 C 15,0 C 17,7 km/h (3 Bft)
12.05.2022 12:42 16,4 C 23,3 C 56 % 1019,5 hPa 0,0 l/m 7,7 km/h (2 Bft) SW 215 2 min 5,8 UV-I 846 W/m 7,6 C 15,7 C 14,5 km/h (3 Bft)
12.05.2022 12:44 16,4 C 23,3 C 54 % 1019,6 hPa 0,0 l/m 6,0 km/h (2 Bft) SW 228 2 min 5,8 UV-I 850 W/m 7,1 C 16,4 C 9,7 km/h (2 Bft)
12.05.2022 12:46 16,4 C 23,3 C 51 % 1019,5 hPa 0,0 l/m 14,8 km/h (3 Bft) S-SW 202 2 min 5,6 UV-I 854 W/m 6,2 C 12,9 C 24,1 km/h (4 Bft)
12.05.2022 12:48 16,6 C 23,3 C 52 % 1019,6 hPa 0,0 l/m 17,0 km/h (3 Bft) S 172 2 min 5,9 UV-I 862 W/m 6,7 C 12,6 C 24,1 km/h (4 Bft)
12.05.2022 12:50 16,5 C 23,3 C 53 % 1019,6 hPa 0,0 l/m 13,8 km/h (3 Bft) S-SW 211 2 min 5,9 UV-I 862 W/m 6,9 C 13,4 C 20,9 km/h (4 Bft)
12.05.2022 12:52 16,6 C 23,3 C 52 % 1019,6 hPa 0,0 l/m 12,7 km/h (3 Bft) S-SW 196 2 min 5,9 UV-I 861 W/m 6,7 C 13,9 C 16,1 km/h (3 Bft)
12.05.2022 12:54 16,7 C 23,3 C 54 % 1019,5 hPa 0,0 l/m 13,1 km/h (3 Bft) W-SW 250 2 min 5,9 UV-I 860 W/m 7,3 C 13,9 C 17,7 km/h (3 Bft)
12.05.2022 12:56 16,9 C 23,9 C 54 % 1019,6 hPa 0,0 l/m 11,0 km/h (2 Bft) SW 224 2 min 6,0 UV-I 872 W/m 7,5 C 14,8 C 19,3 km/h (3 Bft)
12.05.2022 12:58 17,0 C 23,9 C 52 % 1019,6 hPa 0,0 l/m 13,5 km/h (3 Bft) S-SW 207 2 min 5,9 UV-I 850 W/m 7,1 C 14,1 C 20,9 km/h (4 Bft)
12.05.2022 13:00 17,1 C 23,9 C 55 % 1019,6 hPa 0,0 l/m 10,1 km/h (2 Bft) S-SW 204 2 min 6,0 UV-I 864 W/m 8,0 C 15,4 C 17,7 km/h (3 Bft)
12.05.2022 13:02 16,9 C 23,9 C 51 % 1019,5 hPa 0,0 l/m 11,2 km/h (2 Bft) W-SW 254 2 min 5,9 UV-I 869 W/m 6,7 C 14,8 C 25,7 km/h (4 Bft)
12.05.2022 13:04 17,2 C 24,4 C 54 % 1019,4 hPa 0,0 l/m 9,5 km/h (2 Bft) S-SO 158 2 min 5,9 UV-I 873 W/m 7,8 C 15,8 C 14,5 km/h (3 Bft)
12.05.2022 13:06 17,2 C 24,4 C 52 % 1019,5 hPa 0,0 l/m 14,3 km/h (3 Bft) S-SW 208 2 min 5,9 UV-I 858 W/m 7,3 C 14,1 C 22,5 km/h (4 Bft)
12.05.2022 13:08 17,2 C 23,9 C 53 % 1019,5 hPa 0,0 l/m 12,2 km/h (2 Bft) S-SO 150 2 min 5,9 UV-I 833 W/m 7,5 C 14,7 C 19,3 km/h (3 Bft)
12.05.2022 13:10 17,2 C 22,8 C 52 % 1019,5 hPa 0,0 l/m 17,8 km/h (3 Bft) S-SW 198 2 min 5,9 UV-I 855 W/m 7,3 C 13,1 C 25,7 km/h (4 Bft)
12.05.2022 13:12 17,1 C 22,8 C 51 % 1019,5 hPa 0,0 l/m 14,1 km/h (3 Bft) S 178 2 min 5,8 UV-I 820 W/m 6,9 C 14,0 C 17,7 km/h (3 Bft)
12.05.2022 13:14 17,0 C 22,8 C 52 % 1019,5 hPa 0,0 l/m 10,2 km/h (2 Bft) S-SW 195 2 min 5,3 UV-I 762 W/m 7,1 C 15,2 C 16,1 km/h (3 Bft)
12.05.2022 13:16 17,1 C 23,9 C 51 % 1019,5 hPa 0,0 l/m 11,1 km/h (2 Bft) S-SO 165 2 min 6,1 UV-I 859 W/m 6,9 C 15,0 C 20,9 km/h (4 Bft)
12.05.2022 13:18 17,1 C 23,9 C 49 % 1019,5 hPa 0,0 l/m 14,7 km/h (3 Bft) S-SW 207 2 min 6,0 UV-I 880 W/m 6,3 C 13,8 C 27,4 km/h (4 Bft)
12.05.2022 13:20 17,3 C 24,4 C 52 % 1019,5 hPa 0,0 l/m 14,9 km/h (3 Bft) S 175 2 min 6,1 UV-I 919 W/m 7,3 C 14,0 C 22,5 km/h (4 Bft)
12.05.2022 13:22 17,4 C 24,4 C 49 % 1019,6 hPa 0,0 l/m 16,0 km/h (3 Bft) S-SW 199 2 min 6,1 UV-I 923 W/m 6,6 C 13,8 C 20,9 km/h (4 Bft)
12.05.2022 13:24 17,5 C 24,4 C 49 % 1019,6 hPa 0,0 l/m 15,3 km/h (3 Bft) S 175 2 min 6,1 UV-I 666 W/m 6,7 C 14,1 C 20,9 km/h (4 Bft)
12.05.2022 13:26 17,4 C 24,4 C 50 % 1019,6 hPa 0,0 l/m 11,3 km/h (2 Bft) W-SW 248 2 min 6,4 UV-I 696 W/m 6,9 C 15,3 C 24,1 km/h (4 Bft)
12.05.2022 13:28 17,3 C 25,0 C 50 % 1019,6 hPa 0,0 l/m 12,4 km/h (3 Bft) S-SW 192 2 min 6,3 UV-I 936 W/m 6,8 C 14,8 C 19,3 km/h (3 Bft)
12.05.2022 13:30 17,3 C 25,0 C 49 % 1019,6 hPa 0,0 l/m 11,0 km/h (2 Bft) S-SW 194 2 min 6,3 UV-I 925 W/m 6,5 C 15,3 C 17,7 km/h (3 Bft)
12.05.2022 13:32 17,4 C 25,6 C 50 % 1019,6 hPa 0,0 l/m 8,6 km/h (2 Bft) SW 221 2 min 5,9 UV-I 821 W/m 6,9 C 16,4 C 14,5 km/h (3 Bft)
12.05.2022 13:34 17,6 C 25,0 C 51 % 1019,6 hPa 0,0 l/m 8,3 km/h (2 Bft) S-SW 208 2 min 6,1 UV-I 875 W/m 7,3 C 16,7 C 14,5 km/h (3 Bft)
12.05.2022 13:36 17,6 C 25,6 C 48 % 1019,5 hPa 0,0 l/m 10,9 km/h (2 Bft) S 191 2 min 6,1 UV-I 889 W/m 6,5 C 15,7 C 22,5 km/h (4 Bft)
12.05.2022 13:38 17,4 C 24,4 C 49 % 1019,5 hPa 0,0 l/m 12,9 km/h (3 Bft) S-SW 211 2 min 6,1 UV-I 900 W/m 6,6 C 14,7 C 22,5 km/h (4 Bft)
12.05.2022 13:40 17,6 C 25,0 C 48 % 1019,5 hPa 0,0 l/m 10,4 km/h (2 Bft) S-SW 205 2 min 5,8 UV-I 878 W/m 6,5 C 15,8 C 17,7 km/h (3 Bft)
12.05.2022 13:42 17,7 C 24,4 C 49 % 1019,5 hPa 0,0 l/m 15,1 km/h (3 Bft) S-SW 192 2 min 6,0 UV-I 865 W/m 6,9 C 14,4 C 22,5 km/h (4 Bft)
12.05.2022 13:44 17,6 C 23,9 C 50 % 1019,6 hPa 0,0 l/m 15,8 km/h (3 Bft) S 186 2 min 6,0 UV-I 840 W/m 7,1 C 14,1 C 24,1 km/h (4 Bft)
12.05.2022 13:46 17,5 C 24,4 C 51 % 1019,6 hPa 0,0 l/m 12,4 km/h (3 Bft) S 191 2 min 6,0 UV-I 860 W/m 7,3 C 15,0 C 20,9 km/h (4 Bft)
12.05.2022 13:48 17,4 C 23,9 C 52 % 1019,5 hPa 0,0 l/m 11,5 km/h (2 Bft) S-SW 202 2 min 5,9 UV-I 833 W/m 7,4 C 15,2 C 17,7 km/h (3 Bft)
12.05.2022 13:50 17,6 C 23,9 C 52 % 1019,5 hPa 0,0 l/m 16,5 km/h (3 Bft) S-SW 192 2 min 5,6 UV-I 780 W/m 7,6 C 13,9 C 25,7 km/h (4 Bft)
12.05.2022 13:52 17,6 C 23,9 C 50 % 1019,4 hPa 0,0 l/m 16,3 km/h (3 Bft) S-SW 198 2 min 6,1 UV-I 864 W/m 7,1 C 14,0 C 22,5 km/h (4 Bft)
12.05.2022 13:54 17,4 C 23,9 C 49 % 1019,4 hPa 0,0 l/m 12,0 km/h (2 Bft) S 182 2 min 5,9 UV-I 841 W/m 6,6 C 15,0 C 22,5 km/h (4 Bft)
12.05.2022 13:56 17,5 C 24,4 C 50 % 1019,6 hPa 0,0 l/m 15,9 km/h (3 Bft) S-SW 200 2 min 5,8 UV-I 814 W/m 7,0 C 14,0 C 25,7 km/h (4 Bft)
12.05.2022 13:58 17,4 C 23,9 C 48 % 1019,6 hPa 0,0 l/m 15,6 km/h (3 Bft) S-SO 167 2 min 5,7 UV-I 754 W/m 6,3 C 13,9 C 22,5 km/h (4 Bft)
12.05.2022 14:00 17,5 C 23,9 C 50 % 1019,5 hPa 0,0 l/m 11,6 km/h (2 Bft) S 178 2 min 6,0 UV-I 878 W/m 7,0 C 15,3 C 17,7 km/h (3 Bft)
12.05.2022 14:02 17,7 C 24,4 C 50 % 1019,5 hPa 0,0 l/m 16,6 km/h (3 Bft) W-SW 249 2 min 6,1 UV-I 826 W/m 7,1 C 14,0 C 20,9 km/h (4 Bft)
12.05.2022 14:04 17,5 C 25,0 C 48 % 1019,4 hPa 0,0 l/m 7,9 km/h (2 Bft) S 191 2 min 6,2 UV-I 919 W/m 6,4 C 16,8 C 11,3 km/h (2 Bft)
12.05.2022 14:06 17,6 C 26,1 C 51 % 1019,4 hPa 0,0 l/m 11,6 km/h (2 Bft) S-SW 211 2 min 6,0 UV-I 881 W/m 7,3 C 15,4 C 20,9 km/h (4 Bft)
12.05.2022 14:08 17,6 C 25,6 C 48 % 1019,4 hPa 0,0 l/m 14,6 km/h (3 Bft) S 182 2 min 5,8 UV-I 841 W/m 6,5 C 14,5 C 20,9 km/h (4 Bft)
12.05.2022 14:10 17,6 C 25,0 C 51 % 1019,4 hPa 0,0 l/m 13,7 km/h (3 Bft) S 175 2 min 5,5 UV-I 793 W/m 7,3 C 14,7 C 20,9 km/h (4 Bft)
12.05.2022 14:12 17,6 C 23,9 C 49 % 1019,4 hPa 0,0 l/m 13,9 km/h (3 Bft) S-SW 206 2 min 5,5 UV-I 798 W/m 6,8 C 14,7 C 20,9 km/h (4 Bft)
12.05.2022 14:14 17,5 C 23,9 C 51 % 1019,4 hPa 0,0 l/m 14,6 km/h (3 Bft) S 182 2 min 5,3 UV-I 750 W/m 7,3 C 14,3 C 24,1 km/h (4 Bft)
12.05.2022 14:16 17,6 C 23,9 C 52 % 1019,3 hPa 0,0 l/m 10,8 km/h (2 Bft) SW 215 2 min 5,4 UV-I 762 W/m 7,6 C 15,7 C 19,3 km/h (3 Bft)
12.05.2022 14:18 17,7 C 23,9 C 52 % 1019,3 hPa 0,0 l/m 14,7 km/h (3 Bft) S-SW 196 2 min 5,2 UV-I 752 W/m 7,7 C 14,5 C 19,3 km/h (3 Bft)
12.05.2022 14:20 17,7 C 23,3 C 51 % 1019,5 hPa 0,0 l/m 16,7 km/h (3 Bft) S-SW 194 2 min 4,9 UV-I 665 W/m 7,4 C 14,0 C 24,1 km/h (4 Bft)
12.05.2022 14:22 17,7 C 23,3 C 52 % 1019,3 hPa 0,0 l/m 16,4 km/h (3 Bft) S 184 2 min 5,0 UV-I 666 W/m 7,7 C 14,1 C 27,4 km/h (4 Bft)
12.05.2022 14:24 17,9 C 23,9 C 52 % 1019,3 hPa 0,0 l/m 12,2 km/h (2 Bft) S-SW 209 2 min 5,4 UV-I 794 W/m 7,9 C 15,5 C 25,7 km/h (4 Bft)
12.05.2022 14:26 17,9 C 23,9 C 50 % 1019,3 hPa 0,0 l/m 16,4 km/h (3 Bft) S-SW 211 2 min 5,4 UV-I 805 W/m 7,3 C 14,3 C 20,9 km/h (4 Bft)
12.05.2022 14:28 17,8 C 24,4 C 48 % 1019,3 hPa 0,0 l/m 16,9 km/h (3 Bft) S 175 2 min 5,7 UV-I 837 W/m 6,6 C 14,1 C 25,7 km/h (4 Bft)
12.05.2022 14:30 17,9 C 24,4 C 51 % 1019,4 hPa 0,0 l/m 12,9 km/h (3 Bft) S-SW 202 2 min 5,7 UV-I 850 W/m 7,6 C 15,3 C 20,9 km/h (4 Bft)
12.05.2022 14:32 17,8 C 25,6 C 51 % 1019,3 hPa 0,0 l/m 8,9 km/h (2 Bft) S-SW 198 2 min 5,6 UV-I 826 W/m 7,5 C 16,7 C 16,1 km/h (3 Bft)
12.05.2022 14:34 18,0 C 25,6 C 49 % 1019,3 hPa 0,0 l/m 11,2 km/h (2 Bft) SW 216 2 min 5,1 UV-I 730 W/m 7,1 C 16,0 C 16,1 km/h (3 Bft)
12.05.2022 14:36 17,9 C 25,6 C 48 % 1019,3 hPa 0,0 l/m 11,2 km/h (2 Bft) SW 223 2 min 5,2 UV-I 771 W/m 6,7 C 15,9 C 14,5 km/h (3 Bft)
12.05.2022 14:38 18,1 C 25,0 C 49 % 1019,3 hPa 0,0 l/m 14,2 km/h (3 Bft) SW 223 2 min 5,4 UV-I 801 W/m 7,2 C 15,2 C 24,1 km/h (4 Bft)
12.05.2022 14:40 18,1 C 25,0 C 49 % 1019,3 hPa 0,0 l/m 16,6 km/h (3 Bft) W-SW 240 2 min 5,7 UV-I 870 W/m 7,2 C 14,5 C 24,1 km/h (4 Bft)
12.05.2022 14:42 17,9 C 23,9 C 48 % 1019,3 hPa 0,0 l/m 15,3 km/h (3 Bft) SW 219 2 min 5,3 UV-I 770 W/m 6,7 C 14,6 C 20,9 km/h (4 Bft)
12.05.2022 14:44 18,1 C 24,4 C 48 % 1019,3 hPa 0,0 l/m 16,6 km/h (3 Bft) W 263 2 min 5,4 UV-I 807 W/m 6,9 C 14,5 C 24,1 km/h (4 Bft)
12.05.2022 14:46 18,1 C 25,0 C 51 % 1019,3 hPa 0,0 l/m 8,2 km/h (2 Bft) S 174 2 min 5,3 UV-I 773 W/m 7,8 C 17,3 C 14,5 km/h (3 Bft)
12.05.2022 14:48 18,1 C 25,6 C 51 % 1019,2 hPa 0,0 l/m 7,3 km/h (2 Bft) S-SW 198 2 min 5,2 UV-I 766 W/m 7,8 C 17,7 C 11,3 km/h (2 Bft)
12.05.2022 14:50 17,8 C 26,1 C 49 % 1019,2 hPa 0,0 l/m 5,4 km/h (1 Bft) S 187 2 min 5,1 UV-I 750 W/m 6,9 C 17,8 C 11,3 km/h (2 Bft)
12.05.2022 14:52 17,8 C 26,1 C 51 % 1019,2 hPa 0,0 l/m 7,9 km/h (2 Bft) S 182 2 min 5,1 UV-I 774 W/m 7,5 C 17,1 C 14,5 km/h (3 Bft)
12.05.2022 14:54 18,1 C 25,6 C 50 % 1019,2 hPa 0,0 l/m 12,6 km/h (3 Bft) SW 232 2 min 5,0 UV-I 747 W/m 7,5 C 15,6 C 25,7 km/h (4 Bft)
12.05.2022 14:56 18,1 C 25,0 C 48 % 1019,2 hPa 0,0 l/m 13,2 km/h (3 Bft) S 186 2 min 4,9 UV-I 707 W/m 6,9 C 15,5 C 19,3 km/h (3 Bft)
12.05.2022 14:58 18,2 C 25,0 C 50 % 1019,2 hPa 0,0 l/m 11,8 km/h (2 Bft) SO 137 2 min 5,6 UV-I 812 W/m 7,6 C 16,0 C 24,1 km/h (4 Bft)
12.05.2022 15:00 18,4 C 25,6 C 49 % 1019,2 hPa 0,0 l/m 12,0 km/h (2 Bft) SO 144 2 min 5,5 UV-I 849 W/m 7,5 C 16,2 C 17,7 km/h (3 Bft)
12.05.2022 15:02 18,5 C 25,6 C 47 % 1019,3 hPa 0,0 l/m 12,1 km/h (2 Bft) SW 227 2 min 5,3 UV-I 807 W/m 7,0 C 16,3 C 19,3 km/h (3 Bft)
12.05.2022 15:04 18,6 C 25,6 C 47 % 1019,2 hPa 0,0 l/m 14,8 km/h (3 Bft) S-SW 198 2 min 5,2 UV-I 804 W/m 7,1 C 15,6 C 20,9 km/h (4 Bft)
12.05.2022 15:06 18,2 C 25,0 C 46 % 1019,1 hPa 0,0 l/m 12,4 km/h (3 Bft) S 184 2 min 4,9 UV-I 724 W/m 6,4 C 15,8 C 20,9 km/h (4 Bft)
12.05.2022 15:08 18,1 C 23,9 C 49 % 1019,1 hPa 0,0 l/m 13,8 km/h (3 Bft) S 184 2 min 4,6 UV-I 655 W/m 7,2 C 15,3 C 19,3 km/h (3 Bft)
12.05.2022 15:10 18,2 C 23,9 C 48 % 1019,2 hPa 0,0 l/m 18,3 km/h (3 Bft) S-SW 204 2 min 4,8 UV-I 720 W/m 7,0 C 14,3 C 25,7 km/h (4 Bft)
12.05.2022 15:12 18,2 C 23,9 C 48 % 1019,1 hPa 0,0 l/m 13,2 km/h (3 Bft) W-SW 238 2 min 5,1 UV-I 759 W/m 7,0 C 15,6 C 22,5 km/h (4 Bft)
12.05.2022 15:14 18,3 C 25,6 C 49 % 1019,1 hPa 0,0 l/m 10,8 km/h (2 Bft) W 262 2 min 5,3 UV-I 817 W/m 7,4 C 16,5 C 19,3 km/h (3 Bft)
12.05.2022 15:16 18,5 C 26,1 C 48 % 1019,1 hPa 0,0 l/m 10,8 km/h (2 Bft) SW 215 2 min 5,2 UV-I 799 W/m 7,3 C 16,7 C 17,7 km/h (3 Bft)
12.05.2022 15:18 18,6 C 26,1 C 48 % 1019,0 hPa 0,0 l/m 11,7 km/h (2 Bft) S-SO 150 2 min 5,2 UV-I 815 W/m 7,4 C 16,5 C 14,5 km/h (3 Bft)
12.05.2022 15:20 18,7 C 26,1 C 45 % 1019,1 hPa 0,0 l/m 14,0 km/h (3 Bft) S 191 2 min 5,0 UV-I 739 W/m 6,5 C 15,9 C 24,1 km/h (4 Bft)
12.05.2022 15:22 18,3 C 23,9 C 46 % 1019,1 hPa 0,0 l/m 13,7 km/h (3 Bft) S 184 2 min 3,9 UV-I 534 W/m 6,5 C 15,6 C 20,9 km/h (4 Bft)
12.05.2022 15:24 18,1 C 23,3 C 46 % 1019,1 hPa 0,0 l/m 11,1 km/h (2 Bft) S-SO 166 2 min 4,3 UV-I 480 W/m 6,3 C 16,1 C 19,3 km/h (3 Bft)
12.05.2022 15:26 18,3 C 25,0 C 51 % 1019,1 hPa 0,0 l/m 9,9 km/h (2 Bft) S 180 2 min 4,6 UV-I 480 W/m 8,0 C 16,8 C 14,5 km/h (3 Bft)
12.05.2022 15:28 18,4 C 26,1 C 47 % 1019,1 hPa 0,0 l/m 8,8 km/h (2 Bft) S 177 2 min 5,0 UV-I 676 W/m 6,9 C 17,3 C 17,7 km/h (3 Bft)
12.05.2022 15:30 18,4 C 25,6 C 49 % 1019,2 hPa 0,0 l/m 12,2 km/h (2 Bft) S-SW 200 2 min 5,0 UV-I 764 W/m 7,5 C 16,1 C 20,9 km/h (4 Bft)
12.05.2022 15:32 18,5 C 25,6 C 47 % 1019,1 hPa 0,0 l/m 15,6 km/h (3 Bft) S-SW 198 2 min 5,2 UV-I 766 W/m 7,0 C 15,3 C 20,9 km/h (4 Bft)
12.05.2022 15:34 18,6 C 26,1 C 47 % 1019,1 hPa 0,0 l/m 13,9 km/h (3 Bft) S 186 2 min 5,2 UV-I 854 W/m 7,1 C 15,9 C 17,7 km/h (3 Bft)
12.05.2022 15:36 18,7 C 26,1 C 46 % 1019,0 hPa 0,0 l/m 14,2 km/h (3 Bft) S-SW 205 2 min 5,1 UV-I 815 W/m 6,8 C 15,9 C 22,5 km/h (4 Bft)
12.05.2022 15:38 18,7 C 26,1 C 46 % 1019,0 hPa 0,0 l/m 14,7 km/h (3 Bft) SO 130 2 min 5,1 UV-I 778 W/m 6,8 C 15,8 C 25,7 km/h (4 Bft)
12.05.2022 15:40 18,9 C 26,1 C 49 % 1019,1 hPa 0,0 l/m 13,1 km/h (3 Bft) S-SW 203 2 min 5,2 UV-I 840 W/m 7,9 C 16,4 C 27,4 km/h (4 Bft)
12.05.2022 15:42 18,9 C 25,6 C 46 % 1018,9 hPa 0,0 l/m 18,3 km/h (3 Bft) S-SW 193 2 min 4,8 UV-I 801 W/m 7,0 C 15,1 C 24,1 km/h (4 Bft)
12.05.2022 15:44 18,7 C 24,4 C 47 % 1019,1 hPa 0,0 l/m 14,5 km/h (3 Bft) SW 229 2 min 4,4 UV-I 769 W/m 7,2 C 15,8 C 20,9 km/h (4 Bft)
12.05.2022 15:46 18,6 C 24,4 C 47 % 1018,9 hPa 0,0 l/m 9,9 km/h (2 Bft) SW 227 2 min 4,3 UV-I 578 W/m 7,1 C 17,1 C 17,7 km/h (3 Bft)
12.05.2022 15:48 18,6 C 25,6 C 45 % 1019,1 hPa 0,0 l/m 13,2 km/h (3 Bft) S-SW 204 2 min 4,2 UV-I 645 W/m 6,4 C 16,1 C 20,9 km/h (4 Bft)
12.05.2022 15:50 18,4 C 25,0 C 46 % 1019,0 hPa 0,0 l/m 15,7 km/h (3 Bft) S 185 2 min 4,2 UV-I 639 W/m 6,6 C 15,1 C 24,1 km/h (4 Bft)
12.05.2022 15:52 18,5 C 24,4 C 46 % 1019,1 hPa 0,0 l/m 14,1 km/h (3 Bft) S 190 2 min 4,5 UV-I 704 W/m 6,7 C 15,7 C 19,3 km/h (3 Bft)
12.05.2022 15:54 18,3 C 23,3 C 46 % 1019,2 hPa 0,0 l/m 15,0 km/h (3 Bft) S-SO 167 2 min 3,6 UV-I 484 W/m 6,5 C 15,2 C 22,5 km/h (4 Bft)
12.05.2022 15:56 18,2 C 22,2 C 46 % 1019,1 hPa 0,0 l/m 10,9 km/h (2 Bft) S-SO 167 2 min 3,6 UV-I 465 W/m 6,4 C 16,3 C 17,7 km/h (3 Bft)
12.05.2022 15:58 18,3 C 23,9 C 46 % 1019,2 hPa 0,0 l/m 13,3 km/h (3 Bft) S 190 2 min 4,5 UV-I 475 W/m 6,5 C 15,7 C 20,9 km/h (4 Bft)
12.05.2022 16:00 18,3 C 23,9 C 45 % 1019,0 hPa 0,0 l/m 13,9 km/h (3 Bft) S 173 2 min 4,7 UV-I 694 W/m 6,2 C 15,5 C 22,5 km/h (4 Bft)
12.05.2022 16:02 18,6 C 24,4 C 47 % 1019,0 hPa 0,0 l/m 10,6 km/h (2 Bft) S 179 2 min 4,6 UV-I 760 W/m 7,1 C 16,9 C 17,7 km/h (3 Bft)
12.05.2022 16:04 18,8 C 25,0 C 46 % 1019,0 hPa 0,0 l/m 13,4 km/h (3 Bft) S 189 2 min 4,5 UV-I 746 W/m 6,9 C 16,2 C 17,7 km/h (3 Bft)
12.05.2022 16:06 18,8 C 25,6 C 45 % 1019,1 hPa 0,0 l/m 12,0 km/h (2 Bft) S-SW 204 2 min 4,5 UV-I 746 W/m 6,6 C 16,6 C 17,7 km/h (3 Bft)
12.05.2022 16:08 18,9 C 25,6 C 46 % 1019,1 hPa 0,0 l/m 13,1 km/h (3 Bft) S 181 2 min 4,5 UV-I 748 W/m 7,0 C 16,4 C 20,9 km/h (4 Bft)
12.05.2022 16:10 18,9 C 25,6 C 46 % 1019,0 hPa 0,0 l/m 12,6 km/h (3 Bft) W-SW 248 2 min 4,5 UV-I 747 W/m 7,0 C 16,6 C 20,9 km/h (4 Bft)
12.05.2022 16:12 18,9 C 25,6 C 44 % 1019,1 hPa 0,0 l/m 10,5 km/h (2 Bft) SW 221 2 min 4,4 UV-I 743 W/m 6,4 C 17,3 C 17,7 km/h (3 Bft)
12.05.2022 16:14 19,1 C 25,6 C 45 % 1019,1 hPa 0,0 l/m 13,6 km/h (3 Bft) SW 216 2 min 4,4 UV-I 735 W/m 6,9 C 16,5 C 22,5 km/h (4 Bft)
12.05.2022 16:16 18,8 C 25,0 C 42 % 1019,1 hPa 0,0 l/m 16,5 km/h (3 Bft) S 188 2 min 4,4 UV-I 735 W/m 5,6 C 15,4 C 27,4 km/h (4 Bft)
12.05.2022 16:18 18,8 C 25,0 C 43 % 1019,1 hPa 0,0 l/m 16,1 km/h (3 Bft) S-SW 192 2 min 4,3 UV-I 733 W/m 6,0 C 15,5 C 24,1 km/h (4 Bft)
12.05.2022 16:20 18,9 C 25,6 C 44 % 1019,1 hPa 0,0 l/m 14,6 km/h (3 Bft) S-SW 209 2 min 4,3 UV-I 730 W/m 6,4 C 16,0 C 22,5 km/h (4 Bft)
12.05.2022 16:22 18,7 C 25,6 C 43 % 1019,0 hPa 0,0 l/m 14,3 km/h (3 Bft) S-SW 196 2 min 4,1 UV-I 701 W/m 5,9 C 15,9 C 19,3 km/h (3 Bft)
12.05.2022 16:24 18,7 C 25,6 C 44 % 1019,0 hPa 0,0 l/m 13,1 km/h (3 Bft) S-SW 196 2 min 3,8 UV-I 633 W/m 6,2 C 16,2 C 22,5 km/h (4 Bft)
12.05.2022 16:26 18,7 C 25,6 C 43 % 1019,1 hPa 0,0 l/m 18,6 km/h (3 Bft) S 191 2 min 4,0 UV-I 699 W/m 5,9 C 14,8 C 24,1 km/h (4 Bft)
12.05.2022 16:28 18,7 C 25,6 C 44 % 1019,1 hPa 0,0 l/m 15,7 km/h (3 Bft) S-SW 192 2 min 4,2 UV-I 728 W/m 6,2 C 15,5 C 22,5 km/h (4 Bft)
12.05.2022 16:30 18,7 C 25,6 C 43 % 1019,0 hPa 0,0 l/m 14,2 km/h (3 Bft) S-SW 208 2 min 4,1 UV-I 721 W/m 5,9 C 15,9 C 20,9 km/h (4 Bft)
12.05.2022 16:32 18,7 C 26,1 C 43 % 1019,0 hPa 0,0 l/m 12,7 km/h (3 Bft) S-SW 207 2 min 4,1 UV-I 710 W/m 5,9 C 16,3 C 22,5 km/h (4 Bft)
12.05.2022 16:34 18,8 C 25,6 C 43 % 1018,9 hPa 0,0 l/m 17,9 km/h (3 Bft) S-SW 201 2 min 4,0 UV-I 698 W/m 6,0 C 15,1 C 29,0 km/h (5 Bft)
12.05.2022 16:36 18,8 C 26,1 C 42 % 1019,0 hPa 0,0 l/m 14,4 km/h (3 Bft) S 184 2 min 3,9 UV-I 675 W/m 5,6 C 16,0 C 24,1 km/h (4 Bft)
12.05.2022 16:38 18,7 C 25,6 C 43 % 1019,0 hPa 0,0 l/m 14,9 km/h (3 Bft) S-SO 168 2 min 3,9 UV-I 670 W/m 5,9 C 15,7 C 24,1 km/h (4 Bft)
12.05.2022 16:40 18,8 C 25,6 C 44 % 1019,0 hPa 0,0 l/m 14,9 km/h (3 Bft) S-SO 153 2 min 3,8 UV-I 683 W/m 6,3 C 15,8 C 27,4 km/h (4 Bft)
12.05.2022 16:42 18,9 C 25,6 C 42 % 1019,0 hPa 0,0 l/m 17,3 km/h (3 Bft) S 182 2 min 3,9 UV-I 695 W/m 5,7 C 15,4 C 24,1 km/h (4 Bft)
12.05.2022 16:44 18,9 C 25,0 C 43 % 1019,1 hPa 0,0 l/m 15,6 km/h (3 Bft) S-SW 192 2 min 3,8 UV-I 692 W/m 6,0 C 15,8 C 22,5 km/h (4 Bft)
12.05.2022 16:46 18,8 C 26,1 C 41 % 1019,0 hPa 0,0 l/m 9,1 km/h (2 Bft) S-SW 198 2 min 3,8 UV-I 693 W/m 5,3 C 17,6 C 14,5 km/h (3 Bft)
12.05.2022 16:48 18,9 C 26,7 C 43 % 1019,0 hPa 0,0 l/m 14,5 km/h (3 Bft) SW 214 2 min 3,7 UV-I 671 W/m 6,0 C 16,0 C 24,1 km/h (4 Bft)
12.05.2022 16:50 18,8 C 25,6 C 40 % 1019,1 hPa 0,0 l/m 15,6 km/h (3 Bft) S-SW 202 2 min 3,5 UV-I 590 W/m 4,9 C 15,6 C 25,7 km/h (4 Bft)
12.05.2022 16:52 18,8 C 25,6 C 40 % 1019,1 hPa 0,0 l/m 14,3 km/h (3 Bft) S-SO 167 2 min 3,6 UV-I 636 W/m 4,9 C 16,0 C 20,9 km/h (4 Bft)
12.05.2022 16:54 18,8 C 25,6 C 39 % 1019,0 hPa 0,0 l/m 12,1 km/h (2 Bft) S-SO 163 2 min 3,6 UV-I 670 W/m 4,6 C 16,6 C 20,9 km/h (4 Bft)
12.05.2022 16:56 18,8 C 26,7 C 41 % 1019,0 hPa 0,0 l/m 11,2 km/h (2 Bft) S-SW 213 2 min 3,6 UV-I 644 W/m 5,3 C 16,9 C 17,7 km/h (3 Bft)
12.05.2022 16:58 18,7 C 25,0 C 42 % 1019,0 hPa 0,0 l/m 8,3 km/h (2 Bft) S-SW 198 2 min 2,8 UV-I 600 W/m 5,5 C 17,9 C 12,9 km/h (3 Bft)
12.05.2022 17:00 18,6 C 23,3 C 43 % 1019,0 hPa 0,0 l/m 9,0 km/h (2 Bft) S-SW 213 0 min 2,2 UV-I 307 W/m 5,8 C 17,5 C 11,3 km/h (2 Bft)
12.05.2022 17:02 18,4 C 22,2 C 42 % 1019,0 hPa 0,0 l/m 7,6 km/h (2 Bft) S 190 0 min 2,2 UV-I 320 W/m 5,3 C 17,8 C 12,9 km/h (3 Bft)
12.05.2022 17:04 18,2 C 22,2 C 43 % 1018,9 hPa 0,0 l/m 10,0 km/h (2 Bft) S-SO 156 2 min 2,3 UV-I 352 W/m 5,4 C 16,7 C 19,3 km/h (3 Bft)
12.05.2022 17:06 18,2 C 21,7 C 44 % 1018,9 hPa 0,0 l/m 10,2 km/h (2 Bft) S-SW 200 2 min 2,7 UV-I 474 W/m 5,7 C 16,6 C 14,5 km/h (3 Bft)
12.05.2022 17:08 18,3 C 22,8 C 45 % 1018,9 hPa 0,0 l/m 9,5 km/h (2 Bft) S-SW 213 2 min 3,0 UV-I 518 W/m 6,2 C 17,0 C 20,9 km/h (4 Bft)
12.05.2022 17:10 18,6 C 23,9 C 46 % 1018,9 hPa 0,0 l/m 11,0 km/h (2 Bft) SO 145 2 min 2,8 UV-I 541 W/m 6,8 C 16,7 C 19,3 km/h (3 Bft)
12.05.2022 17:12 18,8 C 25,0 C 46 % 1018,9 hPa 0,0 l/m 10,8 km/h (2 Bft) S-SW 209 2 min 3,0 UV-I 556 W/m 6,9 C 17,0 C 22,5 km/h (4 Bft)
12.05.2022 17:14 18,8 C 24,4 C 44 % 1018,8 hPa 0,0 l/m 15,1 km/h (3 Bft) S-SO 159 2 min 2,8 UV-I 554 W/m 6,3 C 15,8 C 24,1 km/h (4 Bft)
12.05.2022 17:16 18,7 C 22,8 C 43 % 1018,9 hPa 0,0 l/m 14,7 km/h (3 Bft) S-SO 161 2 min 2,4 UV-I 385 W/m 5,9 C 15,8 C 22,5 km/h (4 Bft)
12.05.2022 17:18 18,4 C 22,2 C 43 % 1018,9 hPa 0,0 l/m 16,8 km/h (3 Bft) S 190 2 min 2,3 UV-I 363 W/m 5,6 C 14,9 C 25,7 km/h (4 Bft)
12.05.2022 17:20 18,3 C 22,8 C 46 % 1018,9 hPa 0,0 l/m 11,7 km/h (2 Bft) S 172 2 min 2,5 UV-I 458 W/m 6,5 C 16,2 C 17,7 km/h (3 Bft)
12.05.2022 17:22 18,4 C 22,2 C 45 % 1019,0 hPa 0,0 l/m 9,6 km/h (2 Bft) S 184 2 min 2,4 UV-I 419 W/m 6,3 C 17,0 C 14,5 km/h (3 Bft)
12.05.2022 17:24 18,3 C 21,7 C 45 % 1019,0 hPa 0,0 l/m 9,6 km/h (2 Bft) S-SW 203 2 min 2,1 UV-I 349 W/m 6,2 C 16,9 C 14,5 km/h (3 Bft)
12.05.2022 17:26 18,2 C 21,7 C 45 % 1019,1 hPa 0,0 l/m 12,2 km/h (2 Bft) S-SW 210 0 min 2,1 UV-I 341 W/m 6,1 C 15,9 C 22,5 km/h (4 Bft)
12.05.2022 17:28 18,1 C 21,1 C 44 % 1019,0 hPa 0,0 l/m 13,8 km/h (3 Bft) S-SO 161 0 min 2,0 UV-I 328 W/m 5,7 C 15,3 C 17,7 km/h (3 Bft)
12.05.2022 17:30 18,1 C 21,1 C 44 % 1019,0 hPa 0,0 l/m 9,6 km/h (2 Bft) S-SW 209 2 min 2,1 UV-I 383 W/m 5,7 C 16,7 C 14,5 km/h (3 Bft)
12.05.2022 17:32 18,1 C 21,7 C 44 % 1019,0 hPa 0,0 l/m 9,7 km/h (2 Bft) S-SW 207 2 min 2,1 UV-I 430 W/m 5,7 C 16,7 C 16,1 km/h (3 Bft)
12.05.2022 17:34 18,1 C 21,1 C 46 % 1019,0 hPa 0,0 l/m 9,5 km/h (2 Bft) W-SW 254 0 min 1,7 UV-I 326 W/m 6,3 C 16,7 C 17,7 km/h (3 Bft)
12.05.2022 17:36 18,1 C 21,1 C 45 % 1018,9 hPa 0,0 l/m 6,7 km/h (2 Bft) W-SW 251 0 min 1,8 UV-I 308 W/m 6,0 C 18,0 C 12,9 km/h (3 Bft)
12.05.2022 17:38 18,1 C 21,1 C 46 % 1018,9 hPa 0,0 l/m 7,1 km/h (2 Bft) S-SO 164 0 min 1,7 UV-I 284 W/m 6,3 C 17,8 C 14,5 km/h (3 Bft)
12.05.2022 17:40 17,9 C 20,0 C 44 % 1018,9 hPa 0,0 l/m 11,6 km/h (2 Bft) W-SW 246 0 min 1,5 UV-I 239 W/m 5,5 C 15,7 C 16,1 km/h (3 Bft)
12.05.2022 17:42 17,8 C 19,4 C 45 % 1018,9 hPa 0,0 l/m 5,6 km/h (1 Bft) SW 214 0 min 1,5 UV-I 224 W/m 5,7 C 17,8 C 14,5 km/h (3 Bft)
12.05.2022 17:44 17,8 C 19,4 C 45 % 1018,8 hPa 0,0 l/m 9,3 km/h (2 Bft) S-SO 167 0 min 1,6 UV-I 285 W/m 5,7 C 16,5 C 17,7 km/h (3 Bft)
12.05.2022 17:46 17,9 C 20,0 C 46 % 1018,9 hPa 0,0 l/m 6,8 km/h (2 Bft) SW 231 0 min 1,5 UV-I 255 W/m 6,1 C 17,7 C 12,9 km/h (3 Bft)
12.05.2022 17:48 17,8 C 19,4 C 45 % 1018,9 hPa 0,0 l/m 13,1 km/h (3 Bft) S-SW 203 0 min 1,4 UV-I 240 W/m 5,7 C 15,1 C 17,7 km/h (3 Bft)
12.05.2022 17:50 17,8 C 18,9 C 45 % 1018,9 hPa 0,0 l/m 11,8 km/h (2 Bft) S-SW 199 0 min 1,5 UV-I 274 W/m 5,7 C 15,6 C 17,7 km/h (3 Bft)
12.05.2022 17:52 17,8 C 20,0 C 46 % 1018,9 hPa 0,0 l/m 12,1 km/h (2 Bft) SW 215 0 min 2,1 UV-I 332 W/m 6,0 C 15,5 C 17,7 km/h (3 Bft)
12.05.2022 17:54 18,2 C 22,8 C 47 % 1018,9 hPa 0,0 l/m 10,2 km/h (2 Bft) SW 229 2 min 2,4 UV-I 572 W/m 6,7 C 16,6 C 14,5 km/h (3 Bft)
12.05.2022 17:56 18,3 C 22,8 C 45 % 1019,0 hPa 0,0 l/m 11,7 km/h (2 Bft) S-SW 209 2 min 2,1 UV-I 505 W/m 6,2 C 16,2 C 19,3 km/h (3 Bft)
12.05.2022 17:58 18,2 C 21,7 C 45 % 1018,9 hPa 0,0 l/m 13,8 km/h (3 Bft) S 184 2 min 1,8 UV-I 391 W/m 6,1 C 15,4 C 22,5 km/h (4 Bft)
12.05.2022 18:00 18,1 C 20,6 C 45 % 1018,9 hPa 0,0 l/m 14,9 km/h (3 Bft) S-SW 204 0 min 1,5 UV-I 291 W/m 6,0 C 15,0 C 20,9 km/h (4 Bft)
12.05.2022 18:02 17,9 C 20,0 C 45 % 1018,9 hPa 0,0 l/m 15,8 km/h (3 Bft) SW 234 0 min 1,6 UV-I 308 W/m 5,8 C 14,5 C 22,5 km/h (4 Bft)
12.05.2022 18:04 18,0 C 20,0 C 47 % 1018,9 hPa 0,0 l/m 9,1 km/h (2 Bft) S-SW 208 0 min 1,6 UV-I 309 W/m 6,5 C 16,8 C 16,1 km/h (3 Bft)
12.05.2022 18:06 18,1 C 20,6 C 48 % 1018,9 hPa 0,0 l/m 7,4 km/h (2 Bft) W-NW 291 0 min 1,7 UV-I 336 W/m 6,9 C 17,6 C 16,1 km/h (3 Bft)
12.05.2022 18:08 18,2 C 21,1 C 47 % 1018,9 hPa 0,0 l/m 9,6 km/h (2 Bft) W-SW 250 2 min 1,7 UV-I 377 W/m 6,7 C 16,8 C 14,5 km/h (3 Bft)
12.05.2022 18:10 18,2 C 21,7 C 46 % 1018,8 hPa 0,0 l/m 7,4 km/h (2 Bft) SW 236 0 min 1,7 UV-I 342 W/m 6,4 C 17,7 C 14,5 km/h (3 Bft)
12.05.2022 18:12 18,2 C 21,7 C 45 % 1018,9 hPa 0,0 l/m 9,6 km/h (2 Bft) SW 227 2 min 1,7 UV-I 385 W/m 6,1 C 16,8 C 14,5 km/h (3 Bft)
12.05.2022 18:14 18,1 C 21,1 C 45 % 1018,8 hPa 0,0 l/m 14,7 km/h (3 Bft) SW 219 0 min 1,5 UV-I 325 W/m 6,0 C 15,0 C 20,9 km/h (4 Bft)
12.05.2022 18:16 17,9 C 21,1 C 45 % 1018,9 hPa 0,0 l/m 13,4 km/h (3 Bft) SW 236 2 min 1,6 UV-I 349 W/m 5,8 C 15,2 C 22,5 km/h (4 Bft)
12.05.2022 18:18 17,9 C 21,1 C 46 % 1018,9 hPa 0,0 l/m 13,9 km/h (3 Bft) S-SW 208 2 min 1,6 UV-I 381 W/m 6,1 C 15,0 C 20,9 km/h (4 Bft)
12.05.2022 18:20 17,9 C 20,6 C 46 % 1018,9 hPa 0,0 l/m 8,7 km/h (2 Bft) SW 232 0 min 1,4 UV-I 318 W/m 6,1 C 16,8 C 14,5 km/h (3 Bft)
12.05.2022 18:22 17,9 C 20,6 C 44 % 1018,9 hPa 0,0 l/m 9,9 km/h (2 Bft) SW 229 0 min 1,3 UV-I 325 W/m 5,5 C 16,4 C 16,1 km/h (3 Bft)
12.05.2022 18:24 17,8 C 19,4 C 45 % 1018,8 hPa 0,0 l/m 13,7 km/h (3 Bft) W-SW 242 0 min 1,3 UV-I 193 W/m 5,7 C 15,0 C 19,3 km/h (3 Bft)
12.05.2022 18:26 17,8 C 20,0 C 45 % 1018,9 hPa 0,0 l/m 10,3 km/h (2 Bft) S 188 0 min 1,4 UV-I 283 W/m 5,7 C 16,1 C 16,1 km/h (3 Bft)
12.05.2022 18:28 17,8 C 20,0 C 45 % 1018,8 hPa 0,0 l/m 10,8 km/h (2 Bft) S 190 0 min 1,4 UV-I 289 W/m 5,7 C 15,9 C 16,1 km/h (3 Bft)
12.05.2022 18:30 17,8 C 20,6 C 45 % 1018,9 hPa 0,0 l/m 9,8 km/h (2 Bft) S-SW 202 2 min 1,5 UV-I 368 W/m 5,7 C 16,3 C 14,5 km/h (3 Bft)
12.05.2022 18:32 17,9 C 20,6 C 45 % 1018,8 hPa 0,0 l/m 9,0 km/h (2 Bft) S-SW 208 2 min 1,5 UV-I 367 W/m 5,8 C 16,7 C 12,9 km/h (3 Bft)
12.05.2022 18:34 18,0 C 20,6 C 44 % 1018,8 hPa 0,0 l/m 9,7 km/h (2 Bft) S-SW 211 0 min 1,4 UV-I 321 W/m 5,6 C 16,5 C 12,9 km/h (3 Bft)
12.05.2022 18:36 17,9 C 20,6 C 43 % 1018,6 hPa 0,0 l/m 9,4 km/h (2 Bft) S-SW 195 0 min 1,3 UV-I 282 W/m 5,1 C 16,6 C 14,5 km/h (3 Bft)
12.05.2022 18:38 17,9 C 19,4 C 44 % 1018,7 hPa 0,0 l/m 6,6 km/h (2 Bft) S-SW 194 0 min 1,2 UV-I 238 W/m 5,5 C 17,8 C 12,9 km/h (3 Bft)
12.05.2022 18:40 17,8 C 19,4 C 45 % 1018,7 hPa 0,0 l/m 8,6 km/h (2 Bft) W-SW 237 0 min 1,1 UV-I 242 W/m 5,7 C 16,8 C 12,9 km/h (3 Bft)
12.05.2022 18:42 17,8 C 18,9 C 47 % 1018,7 hPa 0,0 l/m 10,7 km/h (2 Bft) W-SW 249 0 min 1,2 UV-I 277 W/m 6,3 C 15,9 C 16,1 km/h (3 Bft)
12.05.2022 18:44 17,7 C 18,9 C 48 % 1018,6 hPa 0,0 l/m 4,8 km/h (1 Bft) W-SW 244 0 min 1,2 UV-I 258 W/m 6,6 C 17,7 C 6,4 km/h (2 Bft)
12.05.2022 18:46 17,7 C 18,9 C 48 % 1018,7 hPa 0,0 l/m 8,3 km/h (2 Bft) SW 221 0 min 1,1 UV-I 261 W/m 6,6 C 16,8 C 14,5 km/h (3 Bft)
12.05.2022 18:48 17,7 C 18,9 C 49 % 1018,6 hPa 0,0 l/m 8,6 km/h (2 Bft) SW 236 0 min 1,1 UV-I 251 W/m 6,9 C 16,7 C 17,7 km/h (3 Bft)
12.05.2022 18:50 17,6 C 18,3 C 50 % 1018,8 hPa 0,0 l/m 12,0 km/h (2 Bft) W-SW 240 0 min 1,1 UV-I 245 W/m 7,1 C 15,3 C 17,7 km/h (3 Bft)
12.05.2022 18:52 17,5 C 18,3 C 48 % 1018,8 hPa 0,0 l/m 12,4 km/h (3 Bft) SW 234 0 min 1,0 UV-I 222 W/m 6,4 C 15,0 C 19,3 km/h (3 Bft)
12.05.2022 18:54 17,4 C 17,8 C 49 % 1018,7 hPa 0,0 l/m 6,7 km/h (2 Bft) W-SW 242 0 min 0,9 UV-I 197 W/m 6,6 C 17,3 C 11,3 km/h (2 Bft)
12.05.2022 18:56 17,4 C 17,8 C 50 % 1018,8 hPa 0,0 l/m 6,3 km/h (2 Bft) W 259 0 min 0,9 UV-I 173 W/m 6,9 C 17,4 C 12,9 km/h (3 Bft)
12.05.2022 18:58 17,3 C 17,8 C 50 % 1018,7 hPa 0,0 l/m 6,5 km/h (2 Bft) W 260 0 min 0,9 UV-I 173 W/m 6,8 C 17,3 C 11,3 km/h (2 Bft)
12.05.2022 19:00 17,2 C 17,8 C 51 % 1018,8 hPa 0,0 l/m 5,7 km/h (1 Bft) SW 236 0 min 0,8 UV-I 163 W/m 7,0 C 17,2 C 11,3 km/h (2 Bft)
12.05.2022 19:02 17,2 C 17,8 C 50 % 1018,7 hPa 0,0 l/m 8,5 km/h (2 Bft) W-SW 241 0 min 0,8 UV-I 166 W/m 6,7 C 16,2 C 12,9 km/h (3 Bft)
12.05.2022 19:04 17,1 C 17,8 C 50 % 1018,9 hPa 0,0 l/m 5,8 km/h (2 Bft) W 263 0 min 0,8 UV-I 162 W/m 6,6 C 17,1 C 9,7 km/h (2 Bft)
12.05.2022 19:06 17,1 C 17,8 C 52 % 1018,8 hPa 0,0 l/m 8,1 km/h (2 Bft) SW 219 0 min 0,7 UV-I 165 W/m 7,2 C 16,3 C 12,9 km/h (3 Bft)
12.05.2022 19:08 17,1 C 17,8 C 51 % 1018,8 hPa 0,0 l/m 7,8 km/h (2 Bft) W-SW 252 0 min 0,7 UV-I 161 W/m 6,9 C 16,4 C 14,5 km/h (3 Bft)
12.05.2022 19:10 17,1 C 17,8 C 52 % 1019,0 hPa 0,0 l/m 9,2 km/h (2 Bft) W-SW 247 0 min 0,7 UV-I 167 W/m 7,2 C 15,8 C 16,1 km/h (3 Bft)
12.05.2022 19:12 16,9 C 17,8 C 52 % 1018,7 hPa 0,0 l/m 6,9 km/h (2 Bft) W-SW 257 0 min 0,7 UV-I 156 W/m 7,0 C 16,7 C 12,9 km/h (3 Bft)
12.05.2022 19:14 16,9 C 17,8 C 54 % 1018,7 hPa 0,0 l/m 5,1 km/h (1 Bft) W-SW 247 0 min 0,7 UV-I 159 W/m 7,5 C 16,9 C 9,7 km/h (2 Bft)
12.05.2022 19:16 16,8 C 17,8 C 54 % 1018,6 hPa 0,0 l/m 8,4 km/h (2 Bft) W 259 0 min 0,7 UV-I 175 W/m 7,4 C 15,8 C 14,5 km/h (3 Bft)
12.05.2022 19:18 16,8 C 17,8 C 53 % 1018,7 hPa 0,0 l/m 9,4 km/h (2 Bft) W 263 0 min 0,7 UV-I 218 W/m 7,2 C 15,4 C 12,9 km/h (3 Bft)
12.05.2022 19:20 16,8 C 17,8 C 54 % 1018,6 hPa 0,0 l/m 6,7 km/h (2 Bft) W-SW 250 0 min 0,7 UV-I 182 W/m 7,4 C 16,7 C 11,3 km/h (2 Bft)
12.05.2022 19:22 16,8 C 17,8 C 54 % 1018,6 hPa 0,0 l/m 4,0 km/h (1 Bft) W-SW 257 0 min 0,6 UV-I 144 W/m 7,4 C 16,8 C 6,4 km/h (2 Bft)
12.05.2022 19:24 16,8 C 17,8 C 54 % 1018,6 hPa 0,0 l/m 4,0 km/h (1 Bft) W-SW 256 0 min 0,6 UV-I 130 W/m 7,4 C 16,8 C 6,4 km/h (2 Bft)
12.05.2022 19:26 16,7 C 17,2 C 55 % 1018,7 hPa 0,0 l/m 3,8 km/h (1 Bft) W 275 0 min 0,5 UV-I 115 W/m 7,6 C 16,7 C 9,7 km/h (2 Bft)
12.05.2022 19:28 16,6 C 16,7 C 55 % 1018,8 hPa 0,0 l/m 4,8 km/h (1 Bft) W 270 0 min 0,5 UV-I 104 W/m 7,5 C 16,6 C 12,9 km/h (3 Bft)
12.05.2022 19:30 16,6 C 16,7 C 55 % 1018,7 hPa 0,0 l/m 6,0 km/h (2 Bft) SW 235 0 min 0,5 UV-I 124 W/m 7,5 C 16,6 C 12,9 km/h (3 Bft)
12.05.2022 19:32 16,5 C 17,2 C 55 % 1018,8 hPa 0,0 l/m 6,9 km/h (2 Bft) W-SW 247 0 min 0,6 UV-I 187 W/m 7,4 C 16,2 C 12,9 km/h (3 Bft)
12.05.2022 19:34 16,5 C 17,2 C 55 % 1018,8 hPa 0,0 l/m 7,9 km/h (2 Bft) W-SW 254 0 min 0,6 UV-I 171 W/m 7,4 C 15,7 C 12,9 km/h (3 Bft)
12.05.2022 19:36 16,5 C 17,2 C 55 % 1018,7 hPa 0,0 l/m 6,5 km/h (2 Bft) W-SW 248 0 min 0,5 UV-I 164 W/m 7,4 C 16,5 C 9,7 km/h (2 Bft)
12.05.2022 19:38 16,5 C 17,2 C 55 % 1018,7 hPa 0,0 l/m 3,6 km/h (1 Bft) SW 229 0 min 0,5 UV-I 165 W/m 7,4 C 16,5 C 6,4 km/h (2 Bft)
12.05.2022 19:40 16,4 C 17,2 C 55 % 1018,6 hPa 0,0 l/m 5,2 km/h (1 Bft) SW 236 0 min 0,5 UV-I 175 W/m 7,3 C 16,4 C 9,7 km/h (2 Bft)
12.05.2022 19:42 16,4 C 17,2 C 57 % 1018,7 hPa 0,0 l/m 6,6 km/h (2 Bft) W-SW 254 0 min 0,5 UV-I 172 W/m 7,9 C 16,3 C 12,9 km/h (3 Bft)
12.05.2022 19:44 16,4 C 17,2 C 55 % 1018,7 hPa 0,0 l/m 7,1 km/h (2 Bft) W 271 0 min 0,5 UV-I 170 W/m 7,3 C 16,0 C 12,9 km/h (3 Bft)
12.05.2022 19:46 16,4 C 16,7 C 57 % 1018,8 hPa 0,0 l/m 4,4 km/h (1 Bft) W 267 0 min 0,5 UV-I 140 W/m 7,9 C 16,4 C 6,4 km/h (2 Bft)
12.05.2022 19:48 16,4 C 16,7 C 56 % 1018,8 hPa 0,0 l/m 5,1 km/h (1 Bft) W-NW 288 0 min 0,0 UV-I 110 W/m 7,6 C 16,4 C 11,3 km/h (2 Bft)
12.05.2022 19:50 16,3 C 16,1 C 56 % 1018,7 hPa 0,0 l/m 6,5 km/h (2 Bft) W 269 0 min 0,0 UV-I 105 W/m 7,5 C 16,3 C 14,5 km/h (3 Bft)
12.05.2022 19:52 16,2 C 16,1 C 56 % 1018,8 hPa 0,0 l/m 6,7 km/h (2 Bft) W 269 0 min 0,0 UV-I 101 W/m 7,4 C 16,1 C 11,3 km/h (2 Bft)
12.05.2022 19:54 16,1 C 16,1 C 57 % 1018,7 hPa 0,0 l/m 4,8 km/h (1 Bft) W 259 0 min 0,0 UV-I 106 W/m 7,6 C 16,1 C 9,7 km/h (2 Bft)
12.05.2022 19:56 16,1 C 15,6 C 57 % 1018,8 hPa 0,0 l/m 7,7 km/h (2 Bft) W-SW 243 0 min 0,0 UV-I 95 W/m 7,6 C 15,4 C 11,3 km/h (2 Bft)
12.05.2022 19:58 16,0 C 15,6 C 57 % 1018,8 hPa 0,0 l/m 5,3 km/h (1 Bft) W-SW 242 0 min 0,0 UV-I 114 W/m 7,5 C 16,0 C 8,0 km/h (2 Bft)
12.05.2022 20:00 16,0 C 15,0 C 58 % 1018,8 hPa 0,0 l/m 5,5 km/h (1 Bft) W-SW 252 0 min 0,0 UV-I 98 W/m 7,7 C 16,0 C 9,7 km/h (2 Bft)
12.05.2022 20:02 15,9 C 15,0 C 57 % 1018,8 hPa 0,0 l/m 4,1 km/h (1 Bft) W 271 0 min 0,0 UV-I 87 W/m 7,4 C 15,9 C 6,4 km/h (2 Bft)
12.05.2022 20:04 15,9 C 15,0 C 58 % 1018,8 hPa 0,0 l/m 3,2 km/h (1 Bft) W 271 0 min 0,0 UV-I 87 W/m 7,6 C 15,9 C 6,4 km/h (2 Bft)
12.05.2022 20:06 15,8 C 15,0 C 57 % 1018,8 hPa 0,0 l/m 7,2 km/h (2 Bft) W-SW 242 0 min 0,0 UV-I 82 W/m 7,3 C 15,4 C 16,1 km/h (3 Bft)
12.05.2022 20:08 15,8 C 14,4 C 58 % 1018,8 hPa 0,0 l/m 7,4 km/h (2 Bft) W 268 0 min 0,0 UV-I 71 W/m 7,6 C 15,3 C 12,9 km/h (3 Bft)
12.05.2022 20:10 15,7 C 14,4 C 57 % 1018,9 hPa 0,0 l/m 6,6 km/h (2 Bft) W-SW 256 0 min 0,0 UV-I 59 W/m 7,2 C 15,6 C 12,9 km/h (3 Bft)
12.05.2022 20:12 15,6 C 14,4 C 58 % 1018,9 hPa 0,0 l/m 4,6 km/h (1 Bft) W-SW 254 0 min 0,0 UV-I 55 W/m 7,4 C 15,6 C 9,7 km/h (2 Bft)
12.05.2022 20:14 15,6 C 13,9 C 58 % 1018,9 hPa 0,0 l/m 4,7 km/h (1 Bft) W-SW 251 0 min 0,0 UV-I 54 W/m 7,4 C 15,6 C 8,0 km/h (2 Bft)
12.05.2022 20:16 15,4 C 13,9 C 59 % 1019,0 hPa 0,0 l/m 7,0 km/h (2 Bft) W-SW 255 0 min 0,0 UV-I 52 W/m 7,4 C 15,1 C 11,3 km/h (2 Bft)
12.05.2022 20:18 15,3 C 13,9 C 59 % 1018,9 hPa 0,0 l/m 6,4 km/h (2 Bft) SW 232 0 min 0,0 UV-I 51 W/m 7,3 C 15,3 C 11,3 km/h (2 Bft)
12.05.2022 20:20 15,3 C 13,9 C 60 % 1018,9 hPa 0,0 l/m 3,5 km/h (1 Bft) SW 236 0 min 0,0 UV-I 49 W/m 7,6 C 15,3 C 4,8 km/h (1 Bft)
12.05.2022 20:22 15,2 C 13,9 C 60 % 1018,9 hPa 0,0 l/m 6,5 km/h (2 Bft) W 262 0 min 0,0 UV-I 44 W/m 7,5 C 15,2 C 11,3 km/h (2 Bft)
12.05.2022 20:24 15,2 C 13,9 C 60 % 1019,0 hPa 0,0 l/m 7,6 km/h (2 Bft) W 261 0 min 0,0 UV-I 40 W/m 7,5 C 14,5 C 11,3 km/h (2 Bft)
12.05.2022 20:26 15,2 C 13,9 C 60 % 1018,9 hPa 0,0 l/m 5,4 km/h (1 Bft) W-SW 252 0 min 0,0 UV-I 40 W/m 7,5 C 15,2 C 9,7 km/h (2 Bft)
12.05.2022 20:28 15,1 C 13,9 C 60 % 1018,9 hPa 0,0 l/m 5,6 km/h (1 Bft) W-SW 246 0 min 0,0 UV-I 40 W/m 7,4 C 15,1 C 11,3 km/h (2 Bft)
12.05.2022 20:30 15,1 C 13,9 C 60 % 1019,0 hPa 0,0 l/m 5,2 km/h (1 Bft) W-SW 250 0 min 0,0 UV-I 39 W/m 7,4 C 15,1 C 8,0 km/h (2 Bft)
12.05.2022 20:32 15,1 C 13,9 C 60 % 1019,0 hPa 0,0 l/m 4,1 km/h (1 Bft) W-SW 244 0 min 0,0 UV-I 40 W/m 7,4 C 15,1 C 6,4 km/h (2 Bft)
12.05.2022 20:34 15,0 C 13,3 C 61 % 1019,1 hPa 0,0 l/m 3,6 km/h (1 Bft) W-SW 244 0 min 0,0 UV-I 40 W/m 7,5 C 15,0 C 4,8 km/h (1 Bft)
12.05.2022 20:36 14,9 C 13,3 C 61 % 1019,1 hPa 0,0 l/m 5,1 km/h (1 Bft) W-SW 248 0 min 0,0 UV-I 36 W/m 7,4 C 14,9 C 6,4 km/h (2 Bft)
12.05.2022 20:38 14,8 C 13,3 C 61 % 1019,2 hPa 0,0 l/m 6,7 km/h (2 Bft) W-SW 250 0 min 0,0 UV-I 28 W/m 7,4 C 14,6 C 11,3 km/h (2 Bft)
12.05.2022 20:40 14,7 C 13,3 C 62 % 1019,2 hPa 0,0 l/m 4,8 km/h (1 Bft) W-SW 244 0 min 0,0 UV-I 25 W/m 7,5 C 14,7 C 9,7 km/h (2 Bft)
12.05.2022 20:42 14,6 C 13,3 C 62 % 1019,2 hPa 0,0 l/m 4,5 km/h (1 Bft) W-SW 245 0 min 0,0 UV-I 23 W/m 7,4 C 14,6 C 6,4 km/h (2 Bft)
12.05.2022 20:44 14,5 C 12,8 C 62 % 1019,2 hPa 0,0 l/m 5,3 km/h (1 Bft) W-SW 243 0 min 0,0 UV-I 21 W/m 7,3 C 14,5 C 8,0 km/h (2 Bft)
12.05.2022 20:46 14,4 C 12,8 C 63 % 1019,3 hPa 0,0 l/m 3,6 km/h (1 Bft) W-SW 243 0 min 0,0 UV-I 21 W/m 7,4 C 14,4 C 6,4 km/h (2 Bft)
12.05.2022 20:48 14,3 C 12,8 C 63 % 1019,2 hPa 0,0 l/m 4,5 km/h (1 Bft) W-SW 243 0 min 0,0 UV-I 21 W/m 7,4 C 14,3 C 8,0 km/h (2 Bft)
12.05.2022 20:50 14,3 C 12,8 C 63 % 1019,3 hPa 0,0 l/m 4,7 km/h (1 Bft) W-SW 246 0 min 0,0 UV-I 20 W/m 7,4 C 14,3 C 6,4 km/h (2 Bft)
12.05.2022 20:52 14,3 C 12,8 C 63 % 1019,2 hPa 0,0 l/m 3,9 km/h (1 Bft) W-SW 242 0 min 0,0 UV-I 19 W/m 7,4 C 14,3 C 6,4 km/h (2 Bft)
12.05.2022 20:54 14,2 C 12,2 C 64 % 1019,3 hPa 0,0 l/m 4,0 km/h (1 Bft) W-SW 243 0 min 0,0 UV-I 19 W/m 7,5 C 14,2 C 6,4 km/h (2 Bft)
12.05.2022 20:56 14,2 C 12,2 C 64 % 1019,3 hPa 0,0 l/m 4,7 km/h (1 Bft) W-SW 248 0 min 0,0 UV-I 18 W/m 7,5 C 14,2 C 6,4 km/h (2 Bft)
12.05.2022 20:58 14,1 C 12,2 C 64 % 1019,3 hPa 0,0 l/m 5,8 km/h (2 Bft) W-SW 250 0 min 0,0 UV-I 15 W/m 7,4 C 14,1 C 9,7 km/h (2 Bft)
12.05.2022 21:00 14,1 C 12,2 C 64 % 1019,3 hPa 0,0 l/m 4,2 km/h (1 Bft) W-SW 250 0 min 0,0 UV-I 13 W/m 7,4 C 14,1 C 8,0 km/h (2 Bft)
12.05.2022 21:02 14,1 C 12,2 C 64 % 1019,3 hPa 0,0 l/m 3,3 km/h (1 Bft) W-SW 250 0 min 0,0 UV-I 11 W/m 7,4 C 14,1 C 4,8 km/h (1 Bft)
12.05.2022 21:04 14,0 C 11,7 C 64 % 1019,3 hPa 0,0 l/m 4,9 km/h (1 Bft) W-SW 250 0 min 0,0 UV-I 10 W/m 7,3 C 14,0 C 6,4 km/h (2 Bft)
12.05.2022 21:06 14,0 C 11,7 C 63 % 1019,4 hPa 0,0 l/m 4,3 km/h (1 Bft) W-SW 250 0 min 0,0 UV-I 9 W/m 7,1 C 14,0 C 6,4 km/h (2 Bft)
12.05.2022 21:08 13,9 C 11,1 C 64 % 1019,4 hPa 0,0 l/m 5,2 km/h (1 Bft) W-SW 252 0 min 0,0 UV-I 9 W/m 7,2 C 13,9 C 8,0 km/h (2 Bft)
12.05.2022 21:10 13,9 C 11,1 C 63 % 1019,4 hPa 0,0 l/m 5,6 km/h (1 Bft) W-SW 253 0 min 0,0 UV-I 7 W/m 7,0 C 13,9 C 8,0 km/h (2 Bft)
12.05.2022 21:12 13,9 C 11,1 C 64 % 1019,4 hPa 0,0 l/m 5,2 km/h (1 Bft) W-SW 254 0 min 0,0 UV-I 7 W/m 7,2 C 13,9 C 8,0 km/h (2 Bft)
12.05.2022 21:14 13,8 C 11,1 C 64 % 1019,4 hPa 0,0 l/m 2,4 km/h (1 Bft) W-SW 254 0 min 0,0 UV-I 7 W/m 7,1 C 13,8 C 3,2 km/h (1 Bft)
12.05.2022 21:16 13,7 C 10,6 C 64 % 1019,4 hPa 0,0 l/m 2,6 km/h (1 Bft) W-SW 254 0 min 0,0 UV-I 5 W/m 7,0 C 13,7 C 4,8 km/h (1 Bft)
12.05.2022 21:18 13,6 C 10,6 C 66 % 1019,5 hPa 0,0 l/m 2,4 km/h (1 Bft) W-SW 254 0 min 0,0 UV-I 1 W/m 7,4 C 13,6 C 6,4 km/h (2 Bft)
12.05.2022 21:20 13,3 C 10,0 C 67 % 1019,5 hPa 0,0 l/m 2,6 km/h (1 Bft) W-SW 254 0 min 0,0 UV-I 0 W/m 7,3 C 13,3 C 4,8 km/h (1 Bft)
12.05.2022 21:22 13,1 C 10,0 C 68 % 1019,5 hPa 0,0 l/m 2,5 km/h (1 Bft) W-SW 254 0 min 0,0 UV-I 0 W/m 7,3 C 13,1 C 4,8 km/h (1 Bft)
12.05.2022 21:24 12,9 C 10,0 C 68 % 1019,6 hPa 0,0 l/m 2,0 km/h (1 Bft) W-SW 254 0 min 0,0 UV-I 0 W/m 7,1 C 12,9 C 3,2 km/h (1 Bft)
12.05.2022 21:26 12,8 C 9,4 C 69 % 1019,7 hPa 0,0 l/m 2,2 km/h (1 Bft) W-SW 254 0 min 0,0 UV-I 0 W/m 7,3 C 12,8 C 3,2 km/h (1 Bft)
12.05.2022 21:28 12,7 C 9,4 C 69 % 1019,6 hPa 0,0 l/m 2,4 km/h (1 Bft) W-SW 254 0 min 0,0 UV-I 0 W/m 7,2 C 12,7 C 3,2 km/h (1 Bft)
12.05.2022 21:30 12,6 C 8,9 C 69 % 1019,7 hPa 0,0 l/m 1,3 km/h (1 Bft) W-SW 254 0 min 0,0 UV-I 0 W/m 7,1 C 12,6 C 3,2 km/h (1 Bft)
12.05.2022 21:32 12,4 C 8,9 C 70 % 1019,7 hPa 0,0 l/m 1,0 km/h (0 Bft) W-SW 254 0 min 0,0 UV-I 0 W/m 7,1 C 12,4 C 3,2 km/h (1 Bft)
12.05.2022 21:34 12,5 C 8,9 C 69 % 1019,8 hPa 0,0 l/m 2,2 km/h (1 Bft) W-SW 254 0 min 0,0 UV-I 0 W/m 7,0 C 12,5 C 4,8 km/h (1 Bft)
12.05.2022 21:36 12,6 C 8,9 C 69 % 1019,8 hPa 0,0 l/m 2,3 km/h (1 Bft) W-SW 254 0 min 0,0 UV-I 0 W/m 7,1 C 12,6 C 4,8 km/h (1 Bft)
12.05.2022 21:38 12,6 C 8,9 C 69 % 1019,6 hPa 0,0 l/m 1,8 km/h (1 Bft) W-SW 254 0 min 0,0 UV-I 0 W/m 7,1 C 12,6 C 3,2 km/h (1 Bft)
12.05.2022 21:40 12,6 C 8,9 C 69 % 1019,7 hPa 0,0 l/m 2,5 km/h (1 Bft) W-SW 254 0 min 0,0 UV-I 0 W/m 7,1 C 12,6 C 4,8 km/h (1 Bft)
12.05.2022 21:42 12,6 C 9,4 C 68 % 1019,8 hPa 0,0 l/m 3,1 km/h (1 Bft) W-SW 254 0 min 0,0 UV-I 0 W/m 6,9 C 12,6 C 4,8 km/h (1 Bft)
12.05.2022 21:44 12,6 C 9,4 C 68 % 1019,8 hPa 0,0 l/m 4,2 km/h (1 Bft) W-SW 254 0 min 0,0 UV-I 0 W/m 6,9 C 12,6 C 4,8 km/h (1 Bft)
12.05.2022 21:46 12,6 C 10,0 C 68 % 1019,9 hPa 0,0 l/m 4,6 km/h (1 Bft) W-SW 253 0 min 0,0 UV-I 0 W/m 6,9 C 12,6 C 6,4 km/h (2 Bft)
12.05.2022 21:48 12,6 C 10,0 C 68 % 1019,9 hPa 0,0 l/m 5,3 km/h (1 Bft) W-SW 244 0 min 0,0 UV-I 0 W/m 6,9 C 12,6 C 8,0 km/h (2 Bft)
12.05.2022 21:50 12,5 C 10,0 C 68 % 1019,9 hPa 0,0 l/m 3,4 km/h (1 Bft) W-SW 244 0 min 0,0 UV-I 0 W/m 6,8 C 12,5 C 4,8 km/h (1 Bft)
12.05.2022 21:52 12,4 C 9,4 C 69 % 1019,9 hPa 0,0 l/m 2,5 km/h (1 Bft) W-SW 244 0 min 0,0 UV-I 0 W/m 6,9 C 12,4 C 3,2 km/h (1 Bft)
12.05.2022 21:54 12,2 C 9,4 C 70 % 1019,9 hPa 0,0 l/m 2,6 km/h (1 Bft) W-SW 244 0 min 0,0 UV-I 0 W/m 6,9 C 12,2 C 3,2 km/h (1 Bft)
12.05.2022 21:56 12,2 C 9,4 C 70 % 1019,9 hPa 0,0 l/m 2,6 km/h (1 Bft) W-SW 244 0 min 0,0 UV-I 0 W/m 6,9 C 12,2 C 4,8 km/h (1 Bft)
12.05.2022 21:58 12,2 C 9,4 C 69 % 1019,8 hPa 0,0 l/m 3,2 km/h (1 Bft) W-SW 244 0 min 0,0 UV-I 0 W/m 6,7 C 12,2 C 4,8 km/h (1 Bft)
12.05.2022 22:00 12,1 C 9,4 C 70 % 1019,9 hPa 0,0 l/m 2,9 km/h (1 Bft) W-SW 244 0 min 0,0 UV-I 0 W/m 6,8 C 12,1 C 4,8 km/h (1 Bft)
12.05.2022 22:02 12,0 C 8,9 C 70 % 1020,0 hPa 0,0 l/m 3,1 km/h (1 Bft) W-SW 244 0 min 0,0 UV-I 0 W/m 6,7 C 12,0 C 4,8 km/h (1 Bft)
12.05.2022 22:04 12,1 C 8,9 C 70 % 1020,0 hPa 0,0 l/m 2,2 km/h (1 Bft) W-SW 244 0 min 0,0 UV-I 0 W/m 6,8 C 12,1 C 4,8 km/h (1 Bft)
12.05.2022 22:06 12,0 C 8,9 C 70 % 1019,9 hPa 0,0 l/m 2,3 km/h (1 Bft) W-SW 244 0 min 0,0 UV-I 0 W/m 6,7 C 12,0 C 3,2 km/h (1 Bft)
12.05.2022 22:08 11,8 C 8,9 C 71 % 1019,9 hPa 0,0 l/m 1,8 km/h (1 Bft) W-SW 244 0 min 0,0 UV-I 0 W/m 6,7 C 11,8 C 3,2 km/h (1 Bft)
12.05.2022 22:10 11,6 C 8,3 C 72 % 1020,0 hPa 0,0 l/m 1,0 km/h (0 Bft) W-SW 244 0 min 0,0 UV-I 0 W/m 6,7 C 11,6 C 3,2 km/h (1 Bft)
12.05.2022 22:12 11,4 C 8,3 C 72 % 1019,9 hPa 0,0 l/m 1,2 km/h (1 Bft) W-SW 244 0 min 0,0 UV-I 0 W/m 6,5 C 11,4 C 3,2 km/h (1 Bft)
12.05.2022 22:14 11,3 C 8,3 C 73 % 1019,9 hPa 0,0 l/m 2,0 km/h (1 Bft) W-SW 244 0 min 0,0 UV-I 0 W/m 6,6 C 11,3 C 3,2 km/h (1 Bft)
12.05.2022 22:16 11,3 C 8,3 C 73 % 1020,0 hPa 0,0 l/m 1,8 km/h (1 Bft) W-SW 244 0 min 0,0 UV-I 0 W/m 6,6 C 11,3 C 3,2 km/h (1 Bft)
12.05.2022 22:18 11,3 C 8,3 C 73 % 1020,1 hPa 0,0 l/m 2,2 km/h (1 Bft) W-SW 244 0 min 0,0 UV-I 0 W/m 6,6 C 11,3 C 3,2 km/h (1 Bft)
12.05.2022 22:20 11,3 C 8,3 C 73 % 1020,1 hPa 0,0 l/m 1,0 km/h (0 Bft) W-SW 244 0 min 0,0 UV-I 0 W/m 6,6 C 11,3 C 1,6 km/h (1 Bft)
12.05.2022 22:22 11,2 C 7,8 C 73 % 1020,1 hPa 0,0 l/m 1,3 km/h (1 Bft) W-SW 244 0 min 0,0 UV-I 0 W/m 6,5 C 11,2 C 3,2 km/h (1 Bft)
12.05.2022 22:24 11,2 C 7,8 C 73 % 1020,1 hPa 0,0 l/m 0,5 km/h (0 Bft) W-SW 244 0 min 0,0 UV-I 0 W/m 6,5 C 11,2 C 1,6 km/h (1 Bft)
12.05.2022 22:26 11,1 C 7,8 C 74 % 1020,1 hPa 0,0 l/m 0,0 km/h (0 Bft) W-SW 244 0 min 0,0 UV-I 0 W/m 6,6 C 11,1 C 0,0 km/h (0 Bft)
12.05.2022 22:28 10,9 C 7,8 C 74 % 1020,0 hPa 0,0 l/m 0,0 km/h (0 Bft) W-SW 244 0 min 0,0 UV-I 0 W/m 6,5 C 10,9 C 1,6 km/h (1 Bft)
12.05.2022 22:30 10,8 C 7,8 C 74 % 1020,0 hPa 0,0 l/m 0,0 km/h (0 Bft) W-SW 244 0 min 0,0 UV-I 0 W/m 6,4 C 10,8 C 1,6 km/h (1 Bft)
12.05.2022 22:32 10,8 C 7,8 C 75 % 1020,1 hPa 0,0 l/m 0,3 km/h (0 Bft) W-SW 244 0 min 0,0 UV-I 0 W/m 6,5 C 10,8 C 1,6 km/h (1 Bft)
12.05.2022 22:34 10,7 C 7,8 C 75 % 1020,0 hPa 0,0 l/m 0,7 km/h (0 Bft) W-SW 244 0 min 0,0 UV-I 0 W/m 6,5 C 10,7 C 1,6 km/h (1 Bft)
12.05.2022 22:36 10,7 C 7,8 C 75 % 1020,2 hPa 0,0 l/m 0,3 km/h (0 Bft) W-SW 244 0 min 0,0 UV-I 0 W/m 6,5 C 10,7 C 1,6 km/h (1 Bft)
12.05.2022 22:38 10,6 C 7,8 C 75 % 1020,2 hPa 0,0 l/m 0,6 km/h (0 Bft) W-SW 244 0 min 0,0 UV-I 0 W/m 6,4 C 10,6 C 1,6 km/h (1 Bft)
12.05.2022 22:40 10,6 C 7,2 C 75 % 1020,2 hPa 0,0 l/m 0,0 km/h (0 Bft) W-SW 244 0 min 0,0 UV-I 0 W/m 6,4 C 10,6 C 0,0 km/h (0 Bft)
12.05.2022 22:42 10,5 C 7,2 C 75 % 1020,2 hPa 0,0 l/m 0,0 km/h (0 Bft) W-SW 244 0 min 0,0 UV-I 0 W/m 6,3 C 10,5 C 0,0 km/h (0 Bft)
12.05.2022 22:44 10,3 C 7,2 C 75 % 1020,3 hPa 0,0 l/m 0,0 km/h (0 Bft) W-SW 244 0 min 0,0 UV-I 0 W/m 6,1 C 10,3 C 0,0 km/h (0 Bft)
12.05.2022 22:46 10,2 C 6,7 C 76 % 1020,2 hPa 0,0 l/m 0,0 km/h (0 Bft) W-SW 244 0 min 0,0 UV-I 0 W/m 6,2 C 10,2 C 0,0 km/h (0 Bft)
12.05.2022 22:48 10,3 C 6,7 C 76 % 1020,3 hPa 0,0 l/m 0,8 km/h (0 Bft) W-SW 244 0 min 0,0 UV-I 0 W/m 6,3 C 10,3 C 1,6 km/h (1 Bft)
12.05.2022 22:50 10,2 C 6,7 C 76 % 1020,3 hPa 0,0 l/m 1,0 km/h (0 Bft) W-SW 244 0 min 0,0 UV-I 0 W/m 6,2 C 10,2 C 1,6 km/h (1 Bft)
12.05.2022 22:52 10,2 C 6,7 C 76 % 1020,2 hPa 0,0 l/m 0,9 km/h (0 Bft) W-SW 244 0 min 0,0 UV-I 0 W/m 6,2 C 10,2 C 1,6 km/h (1 Bft)
12.05.2022 22:54 10,2 C 6,7 C 76 % 1020,2 hPa 0,0 l/m 0,0 km/h (0 Bft) W-SW 244 0 min 0,0 UV-I 0 W/m 6,2 C 10,2 C 0,0 km/h (0 Bft)
12.05.2022 22:56 10,1 C 6,7 C 76 % 1020,2 hPa 0,0 l/m 0,0 km/h (0 Bft) W-SW 244 0 min 0,0 UV-I 0 W/m 6,1 C 10,1 C 0,0 km/h (0 Bft)
12.05.2022 22:58 10,1 C 6,7 C 76 % 1020,3 hPa 0,0 l/m 0,0 km/h (0 Bft) W-SW 244 0 min 0,0 UV-I 0 W/m 6,1 C 10,1 C 1,6 km/h (1 Bft)
12.05.2022 23:00 10,1 C 6,7 C 76 % 1020,5 hPa 0,0 l/m 0,0 km/h (0 Bft) W-SW 244 0 min 0,0 UV-I 0 W/m 6,1 C 10,1 C 1,6 km/h (1 Bft)
12.05.2022 23:02 10,1 C 6,7 C 76 % 1020,4 hPa 0,0 l/m 0,0 km/h (0 Bft) W-SW 244 0 min 0,0 UV-I 0 W/m 6,1 C 10,1 C 0,0 km/h (0 Bft)
12.05.2022 23:04 9,9 C 6,7 C 76 % 1020,4 hPa 0,0 l/m 0,0 km/h (0 Bft) W-SW 244 0 min 0,0 UV-I 0 W/m 5,9 C 9,9 C 0,0 km/h (0 Bft)
12.05.2022 23:06 9,8 C 6,7 C 77 % 1020,5 hPa 0,0 l/m 0,1 km/h (0 Bft) W-SW 244 0 min 0,0 UV-I 0 W/m 6,0 C 9,8 C 1,6 km/h (1 Bft)
12.05.2022 23:08 9,8 C 6,7 C 77 % 1020,4 hPa 0,0 l/m 0,6 km/h (0 Bft) W-SW 244 0 min 0,0 UV-I 0 W/m 6,0 C 9,8 C 1,6 km/h (1 Bft)
12.05.2022 23:10 9,7 C 6,1 C 77 % 1020,5 hPa 0,0 l/m 1,0 km/h (0 Bft) W-SW 244 0 min 0,0 UV-I 0 W/m 5,9 C 9,7 C 3,2 km/h (1 Bft)
12.05.2022 23:12 9,7 C 6,1 C 77 % 1020,5 hPa 0,0 l/m 2,0 km/h (1 Bft) W-SW 244 0 min 0,0 UV-I 0 W/m 5,9 C 9,7 C 3,2 km/h (1 Bft)
12.05.2022 23:14 9,6 C 6,1 C 77 % 1020,5 hPa 0,0 l/m 1,3 km/h (1 Bft) W-SW 244 0 min 0,0 UV-I 0 W/m 5,8 C 9,6 C 3,2 km/h (1 Bft)
12.05.2022 23:16 9,4 C 6,1 C 77 % 1020,4 hPa 0,0 l/m 0,7 km/h (0 Bft) W-SW 244 0 min 0,0 UV-I 0 W/m 5,6 C 9,4 C 1,6 km/h (1 Bft)
12.05.2022 23:18 9,3 C 5,6 C 78 % 1020,4 hPa 0,0 l/m 0,9 km/h (0 Bft) W-SW 244 0 min 0,0 UV-I 0 W/m 5,7 C 9,3 C 1,6 km/h (1 Bft)
12.05.2022 23:20 9,3 C 5,6 C 78 % 1020,5 hPa 0,0 l/m 0,3 km/h (0 Bft) W-SW 244 0 min 0,0 UV-I 0 W/m 5,7 C 9,3 C 1,6 km/h (1 Bft)
12.05.2022 23:22 9,4 C 5,6 C 78 % 1020,5 hPa 0,0 l/m 0,0 km/h (0 Bft) W-SW 244 0 min 0,0 UV-I 0 W/m 5,8 C 9,4 C 0,0 km/h (0 Bft)
12.05.2022 23:24 9,6 C 5,6 C 78 % 1020,5 hPa 0,0 l/m 0,0 km/h (0 Bft) W-SW 244 0 min 0,0 UV-I 0 W/m 6,0 C 9,6 C 0,0 km/h (0 Bft)
12.05.2022 23:26 9,6 C 5,6 C 77 % 1020,4 hPa 0,0 l/m 0,1 km/h (0 Bft) W-SW 244 0 min 0,0 UV-I 0 W/m 5,8 C 9,6 C 1,6 km/h (1 Bft)
12.05.2022 23:28 9,6 C 5,6 C 77 % 1020,5 hPa 0,0 l/m 0,0 km/h (0 Bft) W-SW 244 0 min 0,0 UV-I 0 W/m 5,8 C 9,6 C 0,0 km/h (0 Bft)
12.05.2022 23:30 9,5 C 5,6 C 77 % 1020,5 hPa 0,0 l/m 0,0 km/h (0 Bft) W-SW 244 0 min 0,0 UV-I 0 W/m 5,7 C 9,5 C 0,0 km/h (0 Bft)
12.05.2022 23:32 9,3 C 5,0 C 77 % 1020,5 hPa 0,0 l/m 0,5 km/h (0 Bft) W-SW 244 0 min 0,0 UV-I 0 W/m 5,5 C 9,3 C 1,6 km/h (1 Bft)
12.05.2022 23:34 9,2 C 5,6 C 78 % 1020,5 hPa 0,0 l/m 0,0 km/h (0 Bft) W-SW 244 0 min 0,0 UV-I 0 W/m 5,6 C 9,2 C 0,0 km/h (0 Bft)
12.05.2022 23:36 9,2 C 5,6 C 78 % 1020,5 hPa 0,0 l/m 0,0 km/h (0 Bft) W-SW 244 0 min 0,0 UV-I 0 W/m 5,6 C 9,2 C 0,0 km/h (0 Bft)
12.05.2022 23:38 9,2 C 5,6 C 78 % 1020,5 hPa 0,0 l/m 0,0 km/h (0 Bft) W-SW 244 0 min 0,0 UV-I 0 W/m 5,6 C 9,2 C 0,0 km/h (0 Bft)
12.05.2022 23:40 9,2 C 5,6 C 78 % 1020,4 hPa 0,0 l/m 0,0 km/h (0 Bft) W-SW 244 0 min 0,0 UV-I 0 W/m 5,6 C 9,2 C 0,0 km/h (0 Bft)
12.05.2022 23:42 9,2 C 5,6 C 78 % 1020,5 hPa 0,0 l/m 0,0 km/h (0 Bft) W-SW 244 0 min 0,0 UV-I 0 W/m 5,6 C 9,2 C 0,0 km/h (0 Bft)
12.05.2022 23:44 9,2 C 5,0 C 78 % 1020,5 hPa 0,0 l/m 0,0 km/h (0 Bft) W-SW 244 0 min 0,0 UV-I 0 W/m 5,6 C 9,2 C 0,0 km/h (0 Bft)
12.05.2022 23:46 9,2 C 5,0 C 78 % 1020,5 hPa 0,0 l/m 0,0 km/h (0 Bft) W-SW 244 0 min 0,0 UV-I 0 W/m 5,6 C 9,2 C 0,0 km/h (0 Bft)
12.05.2022 23:48 9,1 C 5,0 C 78 % 1020,6 hPa 0,0 l/m 0,0 km/h (0 Bft) W-SW 244 0 min 0,0 UV-I 0 W/m 5,5 C 9,1 C 0,0 km/h (0 Bft)
12.05.2022 23:50 9,0 C 5,0 C 78 % 1020,6 hPa 0,0 l/m 0,0 km/h (0 Bft) W-SW 244 0 min 0,0 UV-I 0 W/m 5,4 C 9,0 C 1,6 km/h (1 Bft)
12.05.2022 23:52 8,8 C 5,0 C 79 % 1020,5 hPa 0,0 l/m 0,5 km/h (0 Bft) W-SW 244 0 min 0,0 UV-I 0 W/m 5,4 C 8,8 C 1,6 km/h (1 Bft)
12.05.2022 23:54 8,8 C 5,0 C 79 % 1020,5 hPa 0,0 l/m 0,0 km/h (0 Bft) W-SW 244 0 min 0,0 UV-I 0 W/m 5,4 C 8,8 C 0,0 km/h (0 Bft)
12.05.2022 23:56 8,7 C 5,0 C 79 % 1020,5 hPa 0,0 l/m 0,0 km/h (0 Bft) W-SW 244 0 min 0,0 UV-I 0 W/m 5,3 C 8,7 C 0,0 km/h (0 Bft)
12.05.2022 23:58 8,6 C 5,0 C 80 % 1020,5 hPa 0,0 l/m 0,0 km/h (0 Bft) W-SW 244 0 min 0,0 UV-I 0 W/m 5,3 C 8,6 C 0,0 km/h (0 Bft)
12.05.2022 23:59 8,6 C 5,0 C 80 % 1020,5 hPa 0,0 l/m 0,0 km/h (0 Bft) N 0 0 min 0,0 UV-I 0 W/m 5,3 C 8,6 C 0,0 km/h (0 Bft)
_ Min-Zeit 06:11 23:32 16:54 00:00 - 05:38 - - - - - 16:54 05:00 22:26
Minimum _ 8,4 C 5,0 C 39 % 1012,6 hPa - 0,0 km/h (0 Bft) - - - - - 4,6 C 6,4 C 0,0 km/h (0 Bft)
_ Max-Zeit 16:14 16:48 06:52 23:48 00:00 03:27 - - 08:36 13:26 13:28 01:58 17:36 03:25
Maximum _ 19,1 C 26,7 C 88 % 1020,6 hPa 0,0 l/m 22,5 km/h
W (4 Bft)
- - 2 min 6,4 UV-I 936 W/m 11,0 C 18,0 C 37,0 km/h
W (5 Bft)
Durchschnitt _ 14,3 C 15,6 C 66 % 1018,1 hPa #0,0 l/m 8,8 km/h (2 Bft) W-SW - #8:16 h 3,3 UV-I 441 W/m 7,6 C 12,8 C 13,9 km/h (3 Bft)